GFSGL_250_spd_000.txt.gz
Wind_Speed
105 108 111 116 121 124 127 126 124 120 115 115 114 113 109 104 100 95 87 82 78 74 70 66 65 64 62 61 61 64 68 69 75 85 90 95 98 101 106 110 122 131 131
113 117 121 125 127 129 126 126 123 116 110 108 105 100 98 93 88 84 80 77 72 70 67 63 60 58 57 58 58 59 63 67 70 80 88 93 96 99 103 107 113 127 131
121 126 125 124 124 126 126 120 113 108 104 100 94 91 87 83 83 79 74 70 70 67 62 58 57 55 56 56 56 56 59 63 67 73 83 88 93 96 99 103 108 114 126
124 123 123 122 122 115 107 104 102 100 95 90 86 84 82 78 74 73 69 68 65 62 59 56 54 54 55 57 57 57 59 60 63 68 75 82 86 91 96 99 103 108 113
119 118 117 114 106 102 99 96 96 93 91 88 85 80 78 77 72 69 67 64 60 58 58 55 54 54 55 56 57 60 59 60 62 64 70 79 84 87 88 92 95 100 103
117 114 108 104 99 98 94 87 84 80 79 77 77 76 74 71 68 64 61 58 57 56 55 55 52 50 50 50 52 55 56 57 61 64 67 73 81 85 88 88 90 93 94
109 105 101 99 97 96 93 88 84 82 80 78 77 73 71 67 63 59 56 54 56 55 51 50 49 48 47 47 48 50 53 55 58 60 63 69 76 82 86 88 89 90 92
98 98 97 97 95 92 88 86 84 81 79 77 76 72 66 61 58 57 54 55 53 50 48 46 45 44 43 44 46 48 50 52 55 55 58 64 69 75 79 83 86 88 88
94 96 96 96 95 92 89 85 82 80 78 76 71 66 59 56 56 53 52 53 50 47 43 40 41 42 41 41 43 45 46 48 48 51 54 59 61 67 73 77 82 84 88
95 97 97 96 92 86 82 78 76 73 71 69 65 58 53 54 54 50 49 49 47 42 39 37 37 39 39 37 40 43 45 43 46 49 52 54 57 62 65 69 76 80 84
98 97 96 93 87 82 77 72 70 68 66 62 58 53 49 49 50 47 46 45 42 40 37 34 33 33 35 36 37 39 41 41 43 46 48 50 53 56 60 64 69 72 76
98 95 93 88 81 76 72 69 66 64 60 57 53 49 45 47 46 45 43 40 39 36 33 32 32 31 31 32 33 34 36 37 38 41 43 45 47 51 55 58 62 65 69
95 92 87 81 76 71 68 66 62 58 54 51 47 45 44 44 42 40 39 36 35 33 31 30 29 28 27 27 28 30 31 34 36 38 41 42 44 46 48 53 57 61 63
91 86 81 77 73 69 65 60 55 50 48 48 45 42 43 43 39 36 34 32 31 30 29 29 26 25 24 24 24 25 27 29 31 33 35 38 42 44 46 48 52 55 58
83 78 74 71 69 63 58 53 49 45 45 46 44 40 42 39 36 33 32 30 29 28 27 26 24 23 21 22 22 22 21 23 25 29 32 34 37 40 43 45 48 50 53
75 72 69 65 59 55 52 49 45 42 41 43 42 40 38 36 32 31 31 28 27 27 25 24 22 22 20 20 20 19 19 20 21 22 23 26 29 33 37 39 41 44 49
70 67 62 58 53 50 48 46 45 43 38 41 37 36 34 32 30 30 28 26 24 24 22 20 20 21 19 20 15 18 19 20 21 21 21 22 24 27 29 33 35 38 42
65 60 57 54 52 48 45 44 43 41 38 35 33 32 30 29 29 28 25 24 23 21 20 17 19 18 18 18 17 17 18 19 20 19 18 19 21 24 26 27 29 32 35
57 54 52 50 48 46 45 43 40 36 33 31 30 29 28 29 28 26 23 23 21 19 17 17 17 17 17 18 19 18 17 16 16 17 17 17 17 19 22 24 25 26 29
53 51 50 48 47 46 42 39 35 32 30 30 29 29 28 28 26 24 22 20 18 17 15 17 16 17 17 17 16 16 16 15 13 12 14 15 16 16 18 20 23 24 25
51 49 48 47 45 42 38 35 33 31 31 31 31 29 27 25 24 23 20 19 17 15 15 17 17 17 16 15 15 15 15 16 15 13 11 13 13 15 15 17 19 21 23
50 48 48 46 42 39 36 34 32 33 32 31 29 26 23 22 22 21 18 17 16 14 14 17 17 17 16 16 17 17 15 15 15 14 12 11 11 13 13 15 16 18 20
49 49 47 45 41 38 35 33 33 30 29 28 26 23 21 21 20 19 18 16 16 14 15 16 18 18 17 16 16 15 16 16 15 14 14 14 12 10 13 13 14 17 19
48 46 45 41 38 35 33 33 30 27 26 26 24 23 21 20 19 18 18 17 16 16 15 17 18 18 18 17 16 16 15 16 16 15 15 14 15 14 12 13 13 14 16
45 44 41 38 36 33 33 29 27 25 24 23 22 22 20 18 18 18 17 17 17 17 17 18 18 19 18 18 18 18 17 16 17 17 17 16 15 15 16 15 13 15 16
43 42 40 37 35 32 31 27 25 24 22 21 21 20 19 19 18 18 18 18 18 18 18 18 19 19 20 19 19 20 20 19 18 19 19 19 19 17 16 17 17 18 17

GFSGL_250_spd_003.txt.gz
Wind_Speed
104 109 112 117 117 117 119 117 117 114 107 96 90 87 87 85 84 84 82 81 80 79 77 73 70 69 66 66 66 67 70 72 72 81 84 88 86 86 90 96 100 105 109
114 116 117 119 118 120 115 111 111 104 96 91 88 87 84 83 84 84 80 77 75 73 74 74 71 67 64 63 64 65 66 70 71 76 84 89 88 89 88 92 97 101 107
119 119 119 117 121 115 110 107 103 96 92 90 88 85 83 81 80 79 77 76 77 78 77 74 70 66 64 63 62 62 63 63 66 70 78 85 88 88 89 90 93 98 103
121 125 123 121 117 107 104 100 97 94 93 91 88 86 85 84 82 79 76 74 74 74 73 70 65 62 60 58 58 59 60 60 61 64 72 79 84 86 86 88 91 94 99
131 130 125 120 108 103 98 96 96 95 94 93 90 89 87 81 78 75 73 72 72 71 67 62 58 55 54 54 54 57 57 59 61 62 65 72 78 83 82 85 87 91 93
129 127 120 109 104 98 95 92 90 89 87 85 83 81 78 75 72 69 67 65 65 63 59 55 53 51 51 53 55 57 58 58 60 61 64 67 72 77 82 81 83 85 87
123 119 110 105 100 97 95 93 91 90 88 84 78 73 70 66 62 61 60 60 58 55 52 52 52 52 51 51 53 55 56 56 58 58 60 64 69 74 77 80 80 80 83
117 109 103 99 98 96 94 91 87 85 82 76 70 66 64 61 59 59 57 55 53 50 47 49 51 51 49 49 49 50 51 51 51 51 55 60 66 70 73 77 80 78 79
112 107 102 98 95 92 88 84 82 78 73 68 65 63 61 60 57 55 52 51 50 47 46 46 47 48 46 44 46 48 47 46 46 48 52 56 61 66 69 72 76 77 79
109 106 101 95 88 84 82 80 75 70 66 65 63 60 57 55 52 51 46 47 47 45 43 43 43 44 43 43 44 45 44 42 43 44 47 52 57 60 62 65 71 75 79
107 100 93 86 82 79 76 71 67 64 62 61 59 54 50 45 47 45 43 43 45 42 41 39 39 39 40 40 40 40 40 40 40 40 42 46 51 54 55 59 63 68 74
98 92 86 82 78 73 68 65 63 60 58 55 53 48 42 40 44 43 41 41 40 39 38 36 35 35 35 33 35 37 38 39 38 37 38 42 45 49 51 53 57 63 68
90 83 80 75 70 67 65 62 57 53 51 49 47 44 40 38 40 39 39 38 37 35 34 33 32 32 29 29 31 31 33 35 35 35 35 37 39 42 46 50 52 55 60
82 79 72 70 67 64 60 55 53 49 46 46 45 42 38 37 38 36 35 34 33 32 31 29 29 27 27 29 27 28 27 28 30 30 31 32 35 38 40 42 47 51 54
75 70 68 66 62 58 53 50 48 45 43 44 43 40 39 36 35 33 32 30 29 30 29 28 26 25 25 26 26 25 25 27 29 30 31 30 31 33 37 39 41 45 51
70 67 64 61 56 52 50 47 44 42 40 42 41 40 37 34 31 29 28 27 28 27 26 26 24 23 23 23 23 22 22 21 20 22 24 24 26 29 32 34 38 41 43
67 63 59 56 53 50 47 44 44 42 40 40 36 36 32 30 28 26 26 25 26 25 25 23 23 23 21 21 20 19 19 20 20 20 20 20 20 22 26 29 31 34 38
63 59 56 54 51 47 45 44 43 42 39 35 33 31 29 27 26 26 25 25 24 23 22 21 23 22 22 20 18 18 19 20 20 19 18 19 19 20 21 23 26 28 31
58 55 53 51 48 45 45 43 41 38 34 31 28 27 27 27 26 26 25 24 22 20 20 20 22 23 21 20 19 19 19 19 19 19 19 18 19 20 21 21 22 25 26
54 51 49 48 46 45 42 40 37 34 32 29 28 28 27 26 25 23 22 21 20 18 18 20 21 22 21 19 19 20 21 19 18 16 17 17 17 17 18 20 21 23 24
50 48 47 46 46 43 40 37 35 32 31 31 29 26 24 22 21 20 19 19 19 17 17 20 21 21 20 20 20 19 19 19 19 18 17 17 18 17 16 16 19 21 23
48 46 46 45 44 41 38 35 33 33 32 29 26 25 23 21 19 19 19 18 17 17 17 20 21 21 20 19 19 20 21 21 21 18 17 17 16 15 17 17 17 19 20
46 45 46 45 42 39 35 33 32 32 30 27 25 24 22 21 20 19 18 17 16 16 17 20 20 21 21 20 20 20 20 20 20 19 18 17 16 15 14 17 18 18 20
45 45 44 42 39 36 34 32 32 30 27 25 24 23 22 21 20 18 17 16 16 16 17 19 21 21 21 21 21 22 22 20 20 18 18 18 17 15 14 14 17 18 18
44 44 42 39 37 36 34 31 29 27 25 24 23 22 20 19 19 18 17 17 16 16 17 18 20 21 22 22 22 23 22 21 21 20 19 19 19 18 16 15 14 16 19
43 42 40 38 37 35 33 29 27 25 23 23 23 21 20 19 18 18 18 18 18 18 17 18 19 21 23 23 23 22 23 22 22 22 21 21 21 20 19 17 16 16 18

GFSGL_250_spd_006.txt.gz
Wind_Speed
104 108 113 117 119 121 120 119 117 113 112 105 99 94 90 88 84 83 80 78 75 76 76 75 75 75 73 72 69 65 64 64 61 68 78 85 92 89 88 86 86 85 91
111 116 120 125 128 128 125 124 120 114 108 101 98 94 89 86 84 83 80 77 78 79 80 79 77 75 72 71 69 66 63 64 61 63 74 79 86 89 84 82 79 81 84
119 122 125 130 133 132 129 121 113 104 102 98 94 93 90 86 82 79 78 77 76 76 76 76 75 74 70 66 65 65 65 64 64 64 71 77 82 88 87 82 79 78 79
127 129 131 137 140 127 118 110 104 101 99 97 94 90 88 84 80 77 75 73 72 73 73 71 69 67 65 65 64 65 64 64 64 64 68 74 79 84 85 82 78 77 78
133 137 137 137 125 115 107 102 100 99 96 93 89 85 81 77 75 73 71 68 67 65 65 62 60 59 59 60 59 62 61 60 61 61 62 67 72 76 79 80 74 75 76
137 137 134 127 114 108 105 102 97 94 90 84 81 77 74 71 67 64 62 61 60 59 58 57 55 55 55 54 55 56 59 59 59 59 61 64 69 72 75 76 74 70 73
135 133 121 111 109 108 105 100 94 88 83 79 75 71 68 65 61 59 57 57 57 56 54 53 53 53 50 50 52 54 56 57 57 56 57 61 64 68 71 72 74 72 72
129 121 114 109 107 104 99 92 85 80 77 74 69 64 62 60 56 56 55 55 54 51 47 46 48 49 46 48 50 51 52 52 51 52 56 60 61 63 66 70 71 71 71
118 114 110 107 103 97 91 85 80 76 71 67 64 62 59 59 55 53 51 50 47 42 40 40 43 45 45 46 48 48 47 44 45 46 49 53 55 57 59 62 66 69 72
112 112 108 101 94 90 85 80 75 70 67 65 63 58 54 52 49 48 46 44 40 38 37 39 41 45 44 45 44 43 44 43 42 43 45 48 51 51 53 56 60 63 66
112 106 97 91 87 83 78 73 70 67 64 59 56 52 48 45 46 44 42 39 38 37 37 38 41 42 42 40 39 39 40 41 40 40 40 43 45 47 48 52 55 56 60
101 93 87 84 80 76 72 69 66 61 57 54 52 50 44 41 43 44 40 36 37 37 37 37 38 38 38 35 35 36 37 37 37 35 35 37 39 41 43 47 52 54 57
92 87 83 79 74 70 67 63 60 56 53 52 51 49 46 41 41 42 38 36 38 36 35 35 34 33 32 33 35 32 34 33 33 33 33 33 33 36 39 42 46 50 53
86 81 77 73 70 65 61 56 54 53 52 50 49 46 44 42 42 39 36 36 35 34 33 32 30 29 30 32 32 29 27 29 31 30 29 30 30 30 33 35 38 44 48
81 76 73 69 64 62 58 54 53 50 50 50 48 45 43 38 37 34 33 33 31 29 30 28 27 27 28 29 29 27 24 24 25 26 29 30 29 28 29 30 31 36 42
77 72 68 64 62 58 56 54 50 48 47 47 44 42 38 35 31 29 28 28 27 26 27 26 26 26 26 27 27 25 24 23 22 22 24 25 27 28 27 27 29 32 34
70 67 64 61 57 55 54 53 52 48 44 44 40 36 33 30 28 26 25 24 24 25 26 25 25 25 25 26 25 24 23 21 20 20 20 20 22 24 24 26 27 28 29
65 64 60 56 54 54 53 51 49 47 44 38 34 32 29 27 27 26 25 24 25 25 25 24 24 24 24 24 23 23 22 21 19 19 18 18 19 20 19 20 23 26 28
62 59 55 53 53 53 51 49 46 43 39 35 31 28 28 27 27 26 25 24 24 23 23 23 23 23 23 23 22 21 20 20 19 18 17 18 18 19 18 18 19 21 25
57 55 53 52 52 52 49 46 44 40 37 33 30 29 27 24 22 21 20 20 20 20 21 21 22 23 23 22 20 20 19 20 19 18 16 16 18 19 19 19 19 19 19
55 52 51 50 51 50 47 44 41 38 35 32 31 27 24 22 20 19 18 17 16 17 19 19 21 22 22 21 20 20 20 20 19 17 17 18 19 20 21 20 20 20 19
51 50 50 49 48 47 45 42 40 37 35 32 29 25 23 22 20 18 17 17 16 17 18 19 21 22 22 22 21 20 20 19 19 18 17 18 18 18 20 21 20 21 20
49 49 49 48 46 45 43 39 38 35 33 30 27 24 23 21 20 19 18 17 17 16 17 19 20 22 22 22 22 21 21 20 19 18 18 19 20 19 18 20 21 21 21
48 49 48 46 44 42 41 37 35 34 31 28 25 24 23 22 20 20 18 18 17 17 18 19 20 21 22 23 23 22 22 21 20 20 21 22 21 20 18 19 21 22 22
47 47 46 44 42 40 39 36 31 31 30 27 25 24 23 22 21 20 19 18 18 18 18 19 20 21 23 24 24 24 23 22 22 22 22 23 22 21 21 19 18 20 21
47 46 44 42 41 39 37 35 31 28 29 27 25 24 24 23 22 21 20 19 19 19 19 19 20 22 23 23 24 25 24 23 22 23 23 24 24 23 22 21 20 19 20

GFSGL_250_spd_009.txt.gz
Wind_Speed
101 104 114 122 128 129 130 130 127 119 115 111 106 102 98 96 94 91 86 82 80 79 77 77 76 76 75 75 73 74 74 75 74 76 81 85 91 94 98 98 96 94 93
106 114 123 129 134 137 131 122 116 113 109 102 98 97 96 96 94 89 85 81 77 75 74 73 74 73 73 74 74 73 72 72 70 74 83 85 88 94 94 95 96 95 91
114 122 128 134 143 137 128 119 113 105 100 99 97 97 94 89 85 81 77 73 70 69 68 68 70 71 72 72 71 71 69 69 67 68 75 82 86 91 95 94 93 91 89
121 126 135 144 137 126 120 112 105 103 100 98 94 88 83 78 74 71 69 67 65 63 63 64 65 65 65 65 64 64 64 64 65 64 70 78 81 88 93 96 95 91 89
129 136 144 134 121 113 109 104 103 102 98 92 84 79 75 72 68 65 63 62 62 60 59 57 57 56 55 56 57 58 58 59 60 60 63 70 75 79 86 89 88 87 83
135 140 133 121 112 105 102 101 98 94 89 84 78 73 68 64 60 58 55 55 54 54 54 53 51 52 52 54 54 55 56 57 58 56 57 61 65 66 71 75 76 77 77
135 133 120 110 105 101 98 93 89 85 81 76 73 68 64 59 57 55 54 53 53 52 51 51 51 50 51 52 53 53 54 54 53 51 52 56 59 61 62 65 67 67 71
130 118 109 106 104 99 91 86 82 77 73 70 66 63 61 59 56 53 51 50 48 46 45 45 46 47 46 47 48 47 46 47 47 49 52 54 56 58 58 61 63 64 66
114 110 106 103 99 93 88 82 76 72 69 66 62 59 57 54 50 48 47 46 42 38 36 38 41 41 38 38 40 40 41 42 45 48 51 53 53 54 55 56 60 62 65
106 106 103 98 91 86 80 75 71 69 66 62 60 55 50 47 46 45 42 41 36 33 32 35 35 36 34 36 37 38 38 41 42 43 44 46 47 47 48 51 55 57 59
104 100 92 86 83 78 74 71 68 64 62 60 56 50 46 42 43 42 39 36 34 32 32 32 32 33 34 35 35 36 37 38 38 39 39 40 42 43 43 47 51 53 53
99 92 87 83 79 73 69 66 63 61 58 55 52 47 41 39 40 42 38 33 31 32 31 31 32 33 33 33 33 34 33 33 35 35 34 34 34 36 39 42 45 49 52
91 86 82 78 73 69 66 62 60 56 53 50 47 45 42 39 39 39 38 36 33 32 31 31 32 31 32 30 30 31 30 30 32 32 31 30 31 31 33 36 39 43 47
85 82 78 73 70 67 63 58 55 51 50 47 45 44 43 39 37 35 33 32 31 30 30 29 30 29 29 28 28 29 28 28 29 29 31 29 29 28 28 30 33 38 42
81 76 72 70 65 63 59 55 52 49 48 48 46 43 41 36 33 30 28 26 26 26 26 27 27 27 26 26 27 28 27 26 26 26 27 28 28 28 27 26 27 31 36
77 72 68 65 62 58 57 55 49 46 47 45 41 40 36 34 31 28 25 24 23 22 23 23 23 23 24 25 26 26 26 24 23 25 25 24 25 25 25 27 25 26 31
72 68 64 62 58 57 55 53 53 46 41 43 39 36 33 31 29 27 24 23 21 22 22 21 21 22 24 24 25 25 24 23 22 22 20 21 22 20 23 25 27 26 26
67 64 61 58 56 54 53 52 50 47 43 37 35 33 31 28 28 27 25 25 24 24 24 23 22 23 23 23 24 23 21 21 21 20 19 19 18 18 19 22 25 26 26
63 60 57 54 53 53 52 50 48 43 40 37 35 32 29 28 25 23 22 21 22 23 23 23 22 22 22 23 23 21 20 20 19 17 17 18 19 18 17 17 19 25 26
60 56 52 51 52 52 50 48 46 41 40 37 35 32 29 26 22 20 20 20 19 20 20 20 21 21 21 22 22 21 20 20 19 18 18 19 19 19 17 16 17 17 19
55 51 50 50 51 50 49 47 45 42 39 37 34 31 27 23 20 19 19 18 18 18 19 20 20 21 21 21 21 21 20 21 20 19 19 20 20 20 18 17 19 19 19
51 49 49 49 49 48 47 46 44 42 38 36 33 29 25 21 20 19 18 18 18 19 20 20 21 21 22 21 21 21 20 21 21 20 20 21 21 20 19 18 17 19 19
48 48 48 47 46 46 45 44 43 42 38 34 31 28 25 21 20 20 18 18 18 19 20 21 21 21 22 22 22 22 22 22 22 21 21 22 22 21 20 18 18 19 20
48 48 47 45 45 45 43 43 42 40 38 34 31 27 24 22 20 20 19 19 18 19 19 20 21 22 23 23 23 23 22 22 21 22 22 22 22 22 21 20 20 20 19
47 45 45 45 44 43 43 42 41 39 36 34 31 28 25 24 22 21 20 20 19 19 20 20 21 22 23 24 25 25 23 23 22 22 22 22 23 23 22 22 22 21 21
44 43 44 43 42 42 42 40 38 37 35 34 31 28 27 25 24 22 21 21 20 20 21 21 21 22 23 24 25 25 25 24 23 23 23 24 24 24 23 22 22 23 22

GFSGL_250_spd_012.txt.gz
Wind_Speed
98 102 106 110 114 119 123 126 131 134 135 135 129 119 108 102 100 99 96 90 85 82 80 79 80 79 78 80 79 80 79 75 72 80 83 85 86 87 87 90 94 98 103
107 109 113 117 121 126 130 136 135 135 131 121 113 106 103 101 98 93 88 83 78 74 72 71 69 69 69 69 71 73 73 73 70 74 82 86 89 91 91 91 91 93 97
111 116 120 126 130 133 135 137 134 126 118 110 106 102 99 94 88 82 78 75 72 70 68 65 63 62 62 61 62 64 67 67 67 69 79 83 88 93 94 94 93 92 93
120 122 127 130 134 136 133 126 118 112 108 105 100 94 89 84 79 76 73 69 66 63 59 56 55 56 56 56 57 58 60 62 63 65 73 81 84 91 95 97 97 95 94
126 130 134 133 131 124 117 111 106 104 103 97 89 84 79 74 72 68 65 62 59 57 54 52 50 50 50 50 51 53 54 56 58 59 66 75 80 85 89 94 95 95 94
136 133 127 123 115 109 105 104 102 99 94 87 81 76 72 68 65 61 59 56 55 53 51 48 47 48 47 47 48 50 49 51 52 52 57 65 70 71 76 83 87 90 91
125 121 116 109 105 104 103 99 95 88 83 79 74 70 66 61 59 55 54 52 49 46 44 43 42 42 44 45 46 47 48 47 48 49 54 59 61 63 65 71 75 78 80
118 112 106 104 103 101 97 91 85 80 75 71 67 64 60 56 53 51 51 49 46 43 40 39 40 40 39 40 41 42 42 43 45 48 51 55 57 58 61 64 66 70 72
108 105 103 102 98 93 87 81 77 74 70 67 64 60 56 53 49 48 47 46 44 40 37 36 37 38 36 35 36 36 34 35 39 41 44 46 48 49 52 56 60 61 65
105 102 100 96 89 83 79 75 71 68 66 63 60 54 49 47 47 45 43 42 39 33 32 35 36 33 31 31 32 31 30 33 35 38 39 43 45 46 48 51 53 56 59
102 98 94 87 82 78 74 70 66 63 62 59 53 47 45 44 44 44 43 38 34 31 31 33 32 31 29 29 28 28 29 31 32 34 38 40 42 44 45 47 49 51 54
98 92 86 80 76 73 70 65 62 61 58 53 49 46 43 43 42 42 41 38 35 31 32 32 30 29 28 27 26 27 28 28 30 33 34 34 37 40 41 42 44 45 51
91 84 79 76 73 69 65 61 60 57 54 50 47 46 44 42 41 39 37 33 31 30 29 29 27 27 26 25 25 26 27 27 29 29 30 32 32 33 35 37 39 43 46
83 79 75 72 69 65 61 59 57 54 51 49 48 46 43 40 37 33 30 27 25 25 25 26 25 25 24 24 24 25 26 26 27 28 28 27 28 28 28 30 31 35 40
78 76 73 69 65 62 60 58 52 50 49 48 46 44 41 36 32 28 25 23 21 21 21 21 22 22 22 23 23 24 24 25 26 25 25 25 25 26 26 26 27 29 33
74 71 68 65 63 60 59 54 50 47 47 46 43 41 36 33 29 26 23 21 19 18 18 19 19 19 21 22 22 22 24 25 24 23 22 24 24 25 25 26 25 25 29
70 67 64 62 60 58 54 51 49 46 44 42 40 36 34 31 28 25 24 23 21 20 20 19 18 19 20 21 22 23 24 24 23 21 21 22 23 23 24 25 25 25 25
66 63 61 58 56 53 51 49 48 46 43 39 36 33 32 29 26 25 23 21 19 19 19 20 20 20 21 22 23 23 24 23 22 21 21 22 23 24 23 23 25 26 25
62 59 56 54 52 51 49 48 46 44 41 37 35 33 30 28 25 22 20 19 18 18 18 18 19 21 22 23 23 23 23 23 22 22 21 21 20 20 21 21 21 25 27
57 55 53 51 50 49 48 46 44 43 39 36 34 31 29 27 24 20 19 18 17 17 17 17 19 20 22 23 23 23 23 23 22 22 22 22 21 20 21 20 20 22 24
53 51 50 49 49 47 46 45 43 41 39 36 33 31 28 26 24 21 19 19 18 17 17 17 18 20 22 23 23 23 24 24 23 23 23 22 22 20 20 19 19 20 22
50 49 48 48 47 45 45 43 42 40 39 36 33 30 28 25 24 21 20 19 18 18 18 18 19 21 22 23 23 23 24 24 24 23 23 23 22 22 20 19 18 19 19
49 48 47 46 45 44 43 42 41 40 38 35 32 29 28 26 24 22 21 20 18 18 18 19 19 21 22 23 23 24 24 24 25 24 23 23 23 22 22 21 20 19 20
48 47 46 45 45 42 42 41 40 38 36 34 32 30 28 26 25 23 22 21 20 19 19 20 20 20 21 22 23 24 24 24 25 25 25 24 23 23 23 22 21 20 20
47 46 45 44 43 42 41 40 38 37 36 34 33 31 28 26 25 23 22 22 21 21 20 20 21 21 22 23 23 24 24 24 24 24 25 25 25 24 23 22 21 21 21
47 45 42 42 42 41 40 39 38 36 35 34 33 30 28 26 24 23 22 21 21 21 21 20 21 22 22 23 24 24 24 24 24 24 25 26 26 26 25 24 23 22 21

GFSGL_250_spd_015.txt.gz
Wind_Speed
95 99 104 107 113 118 122 128 132 138 140 140 134 127 120 113 110 108 105 103 99 95 91 85 82 79 77 76 76 77 76 78 78 81 84 89 87 83 84 85 89 92 97
101 105 111 116 120 127 131 134 137 139 136 128 119 113 111 109 107 105 100 96 90 85 81 77 73 70 68 67 67 69 69 69 70 71 75 79 82 84 85 84 87 90 92
108 113 119 125 130 135 137 138 135 125 119 116 115 112 109 105 100 97 91 85 81 77 73 70 67 63 62 61 61 61 63 63 64 65 70 73 76 81 83 82 84 88 90
117 123 129 134 136 135 132 129 123 118 114 111 110 108 102 96 89 87 82 79 75 71 68 65 62 59 58 57 57 57 57 57 58 60 65 68 71 75 78 80 82 84 86
125 131 132 134 131 129 126 122 117 112 110 108 103 97 90 86 81 80 75 72 68 65 62 59 57 56 54 53 54 55 54 52 51 54 62 65 65 69 72 75 78 81 82
134 136 134 126 123 119 117 114 111 109 106 99 92 86 82 77 73 71 68 68 65 61 57 54 51 49 49 47 49 51 51 50 48 49 56 60 61 62 64 68 73 76 80
130 124 120 114 114 114 110 108 106 100 93 87 82 77 73 68 65 65 63 61 59 56 51 46 43 42 42 42 43 43 44 44 45 46 51 53 54 57 58 64 70 71 75
120 113 109 109 109 107 104 100 94 87 82 77 72 68 64 61 59 60 57 54 51 47 44 41 39 40 40 40 40 39 38 38 38 43 49 52 51 50 52 56 60 63 68
113 110 109 106 105 101 95 87 83 78 74 70 65 61 59 58 54 54 53 50 46 42 39 38 38 38 38 36 35 33 32 32 36 38 42 46 47 48 50 54 57 56 61
110 106 105 103 99 93 85 80 75 71 67 64 61 57 55 54 52 51 49 48 44 38 36 37 37 35 34 34 33 31 31 32 33 33 36 38 40 40 44 49 50 54 56
109 104 101 95 88 82 77 72 69 65 63 61 59 55 52 51 50 48 46 44 41 37 34 36 37 32 32 31 30 29 28 29 30 31 33 35 37 38 39 42 44 47 51
104 100 94 88 81 75 71 68 64 62 61 58 54 51 49 48 47 46 42 40 37 34 33 33 34 30 30 30 28 27 27 27 28 30 32 34 36 38 39 40 41 44 50
98 92 84 79 74 69 67 65 63 61 58 54 51 50 49 45 43 41 38 35 33 30 29 29 29 26 26 26 26 26 25 27 28 29 30 31 32 33 35 36 38 41 44
87 81 77 72 69 66 64 61 59 57 54 52 50 48 46 42 40 36 33 31 28 27 26 25 24 23 22 22 23 23 24 25 25 26 26 26 28 31 33 33 35 37 40
78 74 71 68 65 63 61 59 54 52 50 50 49 45 44 40 36 33 30 28 25 23 22 22 21 20 19 20 21 21 23 23 23 23 23 25 27 28 29 30 31 31 33
73 70 67 64 62 60 58 54 53 50 48 45 45 43 40 38 35 31 28 25 23 22 22 21 19 18 17 18 19 20 21 22 22 22 22 24 25 25 26 26 27 28 30
69 67 64 62 59 56 54 52 50 47 48 46 43 40 36 34 31 28 25 24 22 21 21 21 21 19 18 18 19 20 21 21 22 23 23 23 24 24 24 25 24 26 28
66 64 61 58 55 54 52 50 48 46 44 41 41 37 34 31 28 26 23 21 20 18 18 19 20 20 21 20 20 21 23 23 23 23 22 22 23 24 24 24 25 26 26
63 61 57 55 53 51 49 47 46 45 43 40 37 36 33 29 26 24 21 20 18 18 18 18 19 20 21 22 22 23 23 23 25 24 22 22 23 24 24 24 24 24 24
60 57 55 53 51 49 48 47 46 45 41 39 37 34 31 27 24 22 20 18 18 18 18 18 18 19 20 22 23 23 23 24 25 24 23 23 23 23 23 24 24 24 23
57 55 53 50 49 48 48 47 45 43 41 39 35 31 29 26 24 22 21 19 18 19 19 19 19 20 20 22 23 23 23 24 25 25 24 24 24 24 23 22 23 23 22
55 53 51 49 49 48 47 44 44 42 40 37 35 31 28 26 24 22 21 20 20 20 20 20 20 20 21 22 23 24 24 25 26 25 24 25 24 23 23 21 21 22 22
52 50 50 49 48 46 45 44 42 41 39 37 34 31 28 26 24 22 21 21 21 21 21 21 21 21 22 23 23 24 25 25 25 25 25 25 24 24 23 22 22 22 22
51 50 49 47 46 45 44 42 40 39 38 36 33 30 28 26 24 24 22 21 21 22 23 23 22 22 22 23 24 24 25 25 25 25 25 24 24 24 24 24 24 23 23
51 49 47 46 45 44 42 41 40 39 37 35 33 30 28 27 25 24 23 22 21 22 22 23 23 23 23 23 23 24 25 26 26 26 26 25 25 26 26 26 25 25 25
48 47 46 46 44 43 41 40 39 38 36 35 33 31 29 27 26 25 24 23 22 22 22 22 23 23 24 24 23 23 24 25 26 25 25 25 25 25 25 26 26 26 25

GFSGL_250_spd_018.txt.gz
Wind_Speed
93 96 102 109 116 122 127 131 133 131 133 135 129 125 120 115 111 107 104 104 101 98 94 87 83 79 75 73 70 68 66 66 65 68 69 72 78 83 87 83 82 84 91
99 106 111 120 127 131 134 132 134 133 130 124 120 119 118 116 111 106 105 100 94 88 82 80 76 72 69 66 63 62 62 60 60 64 66 67 72 76 77 80 77 79 85
109 115 120 128 132 135 135 135 129 124 121 119 117 115 113 110 105 102 96 87 84 82 77 74 71 66 63 61 58 56 55 56 55 57 62 63 68 70 70 71 72 78 83
117 124 129 136 135 138 131 124 119 117 115 115 112 110 106 101 93 91 86 81 78 75 71 68 65 62 58 57 54 52 51 51 51 53 57 58 61 63 64 65 67 70 78
127 130 130 131 128 127 120 116 115 112 112 110 105 99 94 87 83 83 80 76 73 70 65 61 58 57 55 53 50 50 49 49 49 51 55 54 55 54 55 59 62 65 71
134 132 126 121 116 117 112 110 108 106 102 98 93 86 83 78 76 75 73 68 65 64 60 56 52 50 48 48 46 47 47 45 46 49 51 51 52 50 50 52 56 61 64
134 131 127 119 112 110 105 105 103 97 92 88 82 78 76 72 68 68 66 63 61 58 54 51 49 47 44 44 45 43 43 42 44 45 47 47 48 49 47 48 52 56 59
134 129 122 115 105 101 100 96 93 87 83 79 74 72 70 67 62 62 62 59 56 51 48 47 46 46 42 41 41 38 37 37 40 41 43 41 44 44 45 46 46 49 55
124 119 114 111 109 102 96 90 86 81 78 75 71 66 63 62 59 56 53 52 51 48 46 44 44 45 42 36 38 36 34 33 36 38 37 37 38 40 43 46 46 45 51
118 113 109 104 100 96 89 84 79 75 72 69 66 61 58 56 54 52 50 50 49 46 44 42 40 40 38 36 36 34 30 31 32 33 33 33 34 36 38 40 43 46 47
112 106 103 100 96 90 84 79 75 71 67 64 61 58 55 53 51 51 49 48 45 41 38 36 36 34 33 32 33 31 29 28 28 29 30 30 31 32 34 36 38 40 45
106 101 97 91 85 80 77 73 70 65 63 59 57 54 53 52 50 48 46 43 40 36 33 31 30 27 25 26 28 28 27 26 27 27 27 28 28 29 31 33 34 36 40
100 94 88 82 78 74 71 67 65 62 59 57 54 53 53 50 48 45 42 39 35 32 30 28 25 23 21 21 23 24 24 24 25 26 26 26 27 29 30 32 33 36 39
92 86 80 76 72 69 67 64 61 58 55 54 53 52 51 48 46 42 38 35 33 30 27 25 21 19 18 18 20 22 22 23 24 25 26 26 27 29 30 30 31 33 36
86 80 76 72 69 66 63 62 58 55 53 51 50 48 47 46 42 39 36 33 30 28 25 23 20 18 16 17 18 19 21 22 24 24 24 25 26 26 27 28 29 32 34
81 76 73 69 66 63 61 58 56 53 52 49 47 45 43 42 40 38 35 31 29 26 23 22 20 18 17 16 17 18 20 22 22 22 23 23 23 25 27 28 29 30 31
76 72 69 66 63 61 58 56 53 51 51 49 46 44 42 41 39 36 33 29 26 22 21 20 18 18 18 18 17 18 19 21 21 21 22 22 23 24 26 27 27 27 28
72 69 66 63 60 57 55 52 51 49 48 46 45 44 41 38 36 33 30 26 23 20 19 18 17 17 18 19 19 20 21 21 22 22 22 22 23 25 26 26 25 25 25
69 66 63 59 56 54 52 51 50 46 45 44 43 41 39 36 32 30 28 25 22 20 18 19 18 19 19 20 21 22 23 23 24 24 24 24 25 25 26 25 24 25 24
66 63 59 56 53 51 51 49 47 45 45 44 41 40 37 34 31 29 27 25 22 21 20 19 20 19 20 21 22 23 24 24 25 25 26 26 26 26 25 25 26 26 25
63 59 55 53 51 50 48 46 46 45 44 43 42 38 36 34 31 28 27 25 23 21 21 20 20 20 21 22 23 23 24 25 25 27 27 26 26 26 26 26 26 26 26
59 56 53 53 50 47 46 46 45 45 44 42 40 38 33 32 30 28 27 25 24 23 22 22 21 21 22 23 23 24 25 25 26 27 28 28 28 27 27 27 26 27 26
56 54 53 50 48 47 46 45 44 44 43 41 39 37 34 33 31 30 27 26 25 24 23 23 23 23 23 23 24 25 25 26 26 27 28 28 28 28 27 27 27 27 27
55 53 51 49 48 47 46 44 43 42 42 41 39 38 34 33 31 30 28 26 25 24 23 23 23 23 24 24 24 25 26 26 27 27 28 28 28 28 27 28 28 29 29
53 51 49 49 48 47 46 44 41 40 41 42 40 38 35 33 32 30 28 27 25 24 24 24 23 23 24 25 25 25 25 25 26 27 28 28 28 29 29 29 30 30 30
51 50 50 49 48 47 45 42 41 41 41 41 40 38 35 33 31 31 30 28 26 25 25 25 24 24 24 24 25 25 25 25 25 26 27 27 27 28 28 28 29 29 29

GFSGL_250_spd_021.txt.gz
Wind_Speed
90 95 100 105 109 114 120 127 131 132 133 134 126 124 120 115 110 107 103 99 94 88 84 81 79 74 71 69 66 65 62 61 61 67 66 70 74 77 81 86 86 87 91
95 99 105 112 118 122 128 135 134 133 133 128 122 118 113 110 107 103 99 95 88 82 78 75 72 69 66 63 60 59 58 56 54 59 62 66 69 71 73 75 80 82 86
102 107 112 119 125 128 126 124 121 118 117 120 115 112 107 103 98 94 89 84 80 76 72 69 66 63 62 59 55 55 54 53 53 55 58 59 62 64 66 67 72 77 77
107 114 120 128 126 126 124 120 115 109 108 109 104 101 95 90 86 83 80 77 74 71 68 64 61 58 56 55 53 52 52 51 50 52 56 56 55 57 58 60 64 68 71
117 124 128 130 130 124 121 114 112 104 101 98 93 88 84 79 76 76 75 71 69 67 65 62 59 56 53 50 50 49 46 44 45 48 51 51 52 53 53 53 57 61 63
124 127 132 129 129 124 117 115 112 100 95 88 83 78 76 74 71 71 71 68 66 63 61 59 57 53 49 46 45 44 41 39 40 42 44 46 45 46 48 48 52 55 57
129 133 133 130 124 117 111 106 100 93 91 85 80 77 74 71 68 67 67 64 61 58 55 51 50 48 46 41 41 40 37 35 37 37 38 38 39 40 41 45 48 50 53
132 132 127 127 118 109 106 102 93 89 85 82 77 74 71 68 65 62 59 57 56 53 50 49 48 47 43 40 41 40 37 35 37 36 35 34 37 34 38 39 43 47 52
135 129 125 120 114 106 98 93 89 83 80 77 73 69 65 64 61 58 55 53 51 49 46 42 42 42 39 37 38 38 36 34 34 34 33 32 33 34 37 39 41 45 50
131 128 123 111 103 97 92 85 82 79 76 73 69 65 61 59 56 55 52 50 48 45 43 40 38 36 34 34 33 32 32 32 30 31 30 29 32 33 36 37 39 42 45
128 125 114 105 97 92 84 80 77 73 69 68 64 61 59 56 54 51 48 47 44 41 38 34 32 30 29 28 27 27 28 27 28 28 28 27 28 30 32 34 36 39 42
126 113 105 98 92 84 80 76 72 69 66 64 62 59 56 54 51 48 46 44 41 37 33 30 28 26 25 24 24 23 23 24 25 26 26 26 27 27 29 30 32 34 37
115 105 98 93 85 79 75 71 68 66 63 60 59 57 54 53 50 47 44 40 37 34 32 29 26 23 22 21 20 20 21 22 23 25 24 24 24 25 26 27 28 30 32
108 99 94 87 81 76 72 68 65 62 59 56 55 54 52 51 48 44 41 38 35 32 30 27 24 22 20 19 18 18 19 20 21 22 22 22 23 23 24 26 27 29 31
102 95 89 81 77 72 69 66 63 59 56 54 53 51 49 46 45 44 41 37 33 29 27 25 22 20 20 18 17 17 18 19 20 21 22 22 23 24 24 26 27 29 31
96 89 82 77 73 69 66 63 59 56 54 52 49 46 43 43 42 41 38 34 31 28 25 23 20 19 18 18 17 17 18 19 20 21 21 23 24 24 25 26 27 27 29
89 82 77 72 68 66 63 60 57 55 54 50 48 46 44 41 40 38 35 32 30 27 24 21 18 17 16 17 17 18 18 19 20 21 22 24 25 25 25 26 26 27 29
82 77 73 68 65 63 59 57 56 55 51 49 48 45 44 42 39 37 35 32 29 27 24 21 19 16 16 17 18 19 20 21 22 23 24 25 25 25 26 26 27 27 28
76 72 67 64 62 59 57 55 52 50 49 48 45 45 42 40 39 36 33 31 29 27 25 22 20 18 17 18 19 21 23 24 24 25 25 25 26 27 27 28 27 27 28
72 68 64 62 59 57 55 52 50 49 49 47 44 41 39 38 36 34 32 30 29 27 25 24 22 20 19 19 20 21 23 25 26 27 27 28 29 29 29 29 28 28 28
67 64 61 58 57 54 51 50 49 49 47 46 43 39 38 36 36 34 33 31 29 27 25 24 23 22 21 21 21 22 23 25 27 28 29 29 30 30 30 30 29 29 29
64 60 58 57 55 52 50 50 50 48 45 43 42 40 38 37 35 35 33 32 29 27 25 24 24 23 23 23 23 23 24 25 27 28 30 31 31 31 31 31 31 30 30
60 57 56 55 53 51 51 51 49 46 42 40 39 39 39 38 36 34 33 32 30 26 25 25 24 23 23 24 25 26 25 26 27 28 30 31 32 32 32 31 31 31 31
57 56 55 53 51 51 51 50 46 43 40 38 37 37 38 37 35 34 33 32 31 28 26 25 24 23 23 23 24 25 27 27 27 28 29 30 32 32 32 31 30 31 32
54 54 53 51 51 51 49 46 43 41 39 38 38 37 36 37 36 35 33 32 31 29 27 26 25 24 23 23 24 24 25 27 28 28 28 29 30 31 32 32 32 32 33
54 54 51 51 50 49 46 43 41 40 39 39 38 38 37 36 35 34 33 33 32 31 29 28 27 26 24 24 24 24 24 25 27 28 29 29 29 29 30 31 32 32 32

GFSGL_250_spd_027.txt.gz
Wind_Speed
72 76 80 84 90 95 102 109 113 119 124 127 130 133 128 120 118 117 111 105 100 95 90 86 83 79 76 73 70 68 66 63 60 64 73 76 74 73 76 81 85 91 98
75 79 85 90 96 104 109 115 121 127 128 127 126 121 115 114 113 109 102 95 89 84 79 76 74 72 71 68 65 64 63 61 57 59 66 71 69 67 68 73 78 81 88
79 87 92 100 106 112 118 123 129 127 123 120 115 111 107 105 100 96 92 85 80 76 72 69 67 66 65 63 60 58 58 57 55 54 61 64 64 64 62 67 72 75 78
88 95 102 108 113 117 123 128 125 121 117 111 108 103 99 95 91 86 82 78 74 70 67 65 63 62 61 59 57 55 53 52 52 49 54 57 59 60 58 58 66 70 73
96 102 108 113 118 124 128 127 123 117 110 105 101 97 92 87 83 79 76 74 71 68 65 63 61 59 56 54 52 51 50 49 47 44 48 53 56 55 52 51 58 63 68
102 108 114 118 125 129 130 127 121 115 109 103 95 89 85 80 77 74 72 70 68 65 61 59 56 53 50 48 46 45 46 48 46 41 43 48 51 50 49 49 55 60 63
108 114 119 124 129 133 127 124 121 111 107 97 89 83 78 74 71 71 68 64 61 60 58 57 56 53 48 46 43 40 40 42 45 40 41 43 45 43 43 48 52 56 60
115 119 124 130 132 127 126 122 115 109 101 91 85 79 74 70 68 67 64 61 58 56 55 53 52 50 46 43 40 37 36 37 39 38 37 40 42 39 42 44 47 52 53
122 127 131 130 124 125 124 118 112 102 93 85 80 75 69 67 65 62 61 59 55 52 49 46 46 44 40 38 36 34 32 31 31 31 31 34 39 40 41 41 42 45 47
130 130 128 126 125 124 120 113 102 94 87 80 75 70 66 63 61 60 59 56 53 50 47 45 43 41 38 35 32 30 28 26 26 26 27 31 34 36 37 37 40 40 40
130 127 125 127 125 121 114 105 95 88 81 76 71 66 63 61 60 56 53 51 51 48 46 43 39 36 32 30 28 26 24 23 22 22 23 25 28 31 33 33 34 36 37
130 127 128 127 122 116 107 98 90 82 76 71 66 62 60 58 55 52 50 49 48 47 44 39 36 33 29 25 24 21 20 19 18 18 19 22 24 25 28 29 31 33 36
130 129 129 123 116 106 98 91 83 76 71 66 63 59 57 55 52 49 47 46 45 45 41 36 33 29 26 23 21 19 17 16 15 16 17 19 21 24 26 27 29 30 32
129 128 122 116 108 99 92 84 77 71 66 62 60 57 55 52 52 49 46 43 41 39 38 34 30 27 24 21 20 17 16 15 14 13 15 17 18 20 22 25 26 29 30
127 121 116 109 100 93 85 77 72 66 62 59 57 55 52 51 51 48 45 42 39 38 35 32 29 26 23 20 19 17 15 15 14 13 13 15 16 18 19 22 23 25 26
118 114 108 100 92 84 78 72 67 63 59 57 55 53 52 51 48 44 41 38 37 36 34 30 27 25 22 20 18 17 15 15 15 14 14 15 16 17 18 20 21 22 24
111 105 98 91 84 78 73 67 62 59 57 55 53 52 52 49 45 41 38 36 35 34 32 30 26 24 22 20 18 17 17 16 16 16 16 15 16 17 18 19 22 24 26
101 96 89 83 78 73 68 64 60 55 52 51 51 51 50 46 42 39 37 34 34 34 31 28 27 24 23 21 19 18 18 18 17 18 18 18 18 19 20 22 24 26 27
94 87 81 77 73 68 64 61 57 54 51 48 49 49 46 43 41 38 36 35 33 32 30 28 27 25 23 22 20 19 20 20 20 20 20 21 22 22 22 23 25 26 26
86 81 77 72 69 65 62 58 54 51 49 49 49 46 42 40 39 38 37 36 33 31 29 27 26 25 23 22 22 21 21 22 22 22 22 23 24 25 26 26 26 27 27
79 76 72 68 65 62 59 55 51 49 48 48 46 43 40 39 38 37 36 36 33 31 29 27 26 25 24 23 22 22 22 23 24 24 24 25 26 26 27 29 29 30 29
75 71 69 66 63 59 55 51 49 47 47 46 43 40 39 38 38 36 34 33 33 32 30 27 25 24 25 25 24 23 23 23 24 25 26 26 27 28 29 30 30 31 32
70 68 67 63 60 56 52 50 47 46 45 44 40 39 38 38 37 34 32 31 31 33 31 28 26 23 23 25 24 24 23 24 24 26 26 28 28 29 30 31 31 31 31
67 66 64 61 57 53 49 47 46 45 44 42 38 38 38 37 35 34 33 31 30 31 32 30 27 24 22 22 24 24 24 24 25 25 26 27 28 30 31 31 31 32 33
65 63 60 57 54 50 47 47 46 44 43 40 38 38 37 36 36 35 34 32 31 30 31 30 28 25 21 22 22 23 24 25 25 25 26 27 28 28 30 32 32 32 32
62 59 56 54 52 49 48 46 45 44 42 40 38 37 36 36 37 37 36 34 31 29 29 29 28 26 23 21 21 22 23 24 25 25 26 26 27 28 29 29 32 33 32

GFSGL_250_spd_030.txt.gz
Wind_Speed
67 69 71 74 80 85 91 97 101 105 109 113 115 115 117 116 115 111 107 105 103 98 93 90 85 81 79 76 73 70 68 64 61 67 68 69 68 68 68 72 75 79 84
66 68 73 79 86 92 98 103 109 112 116 117 116 117 117 113 108 102 99 94 91 89 86 82 79 76 73 70 67 67 65 62 57 58 66 67 63 64 66 65 68 71 75
71 76 83 89 96 102 107 113 118 119 120 119 119 118 114 107 99 93 90 87 84 81 78 75 72 69 67 64 62 60 58 56 53 51 59 62 61 60 61 63 61 67 69
80 86 91 98 105 108 116 121 122 125 123 123 120 113 105 100 92 88 84 81 78 74 71 69 66 63 61 59 58 57 55 53 51 49 52 57 57 56 56 59 56 60 66
90 95 101 107 112 117 123 124 128 127 125 122 116 108 99 93 89 86 81 78 74 70 68 65 62 59 57 56 54 54 53 51 50 49 49 50 54 54 51 52 55 56 62
97 103 109 113 118 125 125 129 128 127 123 119 108 102 94 88 83 80 77 73 69 65 64 63 60 57 54 51 48 46 47 48 48 46 45 46 47 48 47 48 51 56 59
103 108 112 117 124 126 129 126 127 125 120 110 103 96 91 85 79 76 73 70 64 62 61 60 58 54 51 48 45 41 40 38 39 41 42 40 40 40 44 45 48 51 56
110 113 118 122 127 128 128 126 125 120 113 107 97 92 86 80 75 72 70 66 62 57 55 54 52 50 47 45 42 39 37 35 32 32 33 36 36 37 42 42 42 47 52
114 119 123 124 127 128 127 125 121 114 108 100 93 86 80 75 71 67 65 63 59 54 53 51 48 46 44 42 39 37 34 32 31 28 27 29 32 34 36 36 38 44 44
121 122 124 123 124 126 124 120 116 109 101 94 87 81 76 71 67 63 61 59 57 54 52 48 44 42 40 38 36 34 30 29 28 27 26 26 26 29 32 34 37 37 36
123 124 123 124 124 124 121 116 110 102 95 88 81 76 71 67 62 59 57 55 56 55 52 47 41 38 36 34 32 30 27 25 24 23 23 24 23 24 26 29 31 33 34
123 121 121 124 123 120 116 111 103 97 90 83 76 70 66 62 59 57 54 53 54 53 49 44 38 36 34 31 29 26 24 22 21 19 18 20 21 21 24 26 29 31 34
122 121 123 122 119 116 112 104 98 91 84 76 70 66 62 58 56 55 53 52 51 48 44 41 38 34 31 29 26 23 21 20 18 16 16 17 19 21 23 24 26 28 30
123 121 119 117 115 111 105 99 91 84 76 70 66 64 59 56 54 53 53 50 46 43 40 38 36 33 31 28 24 21 19 18 17 15 15 16 17 19 20 22 24 26 27
121 118 115 113 110 104 99 92 85 77 72 67 64 60 57 54 52 51 50 47 43 40 37 36 35 32 29 27 24 20 18 16 16 15 15 15 15 17 19 21 22 23 24
120 116 112 108 103 98 92 86 77 72 69 65 61 58 54 52 51 50 47 43 40 38 36 35 34 31 28 26 24 21 18 16 14 15 15 15 15 16 18 20 21 21 22
116 111 108 102 97 92 86 79 72 68 66 63 59 55 52 51 50 47 43 40 38 36 35 35 33 30 27 25 23 21 19 17 15 15 15 15 16 16 17 18 20 21 23
111 107 102 97 91 86 80 72 69 65 61 58 57 53 51 50 47 43 40 38 37 36 35 34 32 30 27 24 23 21 20 18 17 17 16 16 17 17 18 19 20 20 21
106 100 95 90 84 81 74 70 67 63 59 55 53 50 49 48 44 40 38 38 37 36 35 33 31 30 28 25 23 21 20 20 19 19 19 19 19 19 20 21 21 21 22
100 94 89 84 79 74 70 67 65 60 57 53 50 48 47 44 42 39 37 37 36 36 35 33 30 29 29 27 24 22 21 20 20 20 21 21 21 21 22 23 23 24 25
92 86 83 79 73 69 68 65 61 58 55 51 49 47 45 42 40 38 37 36 34 32 33 34 32 30 29 27 26 23 21 21 21 21 21 23 24 24 25 25 26 27 28
85 80 78 74 69 66 64 61 59 55 53 51 48 46 43 41 39 38 37 35 34 32 30 31 32 30 29 28 27 26 24 22 22 23 22 23 25 26 27 27 27 29 30
80 76 73 69 66 64 61 59 56 54 53 51 47 44 42 40 39 38 36 35 34 33 31 30 31 31 28 27 27 27 26 24 23 23 24 24 24 26 28 29 29 30 30
75 72 69 65 63 61 58 56 54 53 52 50 46 43 41 38 37 37 36 35 35 33 32 30 29 30 29 27 25 26 27 27 24 24 25 25 26 26 27 29 31 32 32
71 67 65 63 60 58 56 54 53 51 51 49 46 43 40 38 36 36 36 36 35 34 32 30 28 28 29 28 26 24 25 27 26 25 25 26 27 27 27 28 29 31 33
67 65 62 60 58 54 53 53 52 51 50 49 46 42 40 38 37 36 35 35 35 34 32 30 28 27 28 28 27 25 24 25 27 26 26 26 26 27 28 28 29 30 31

GFSGL_250_spd_033.txt.gz
Wind_Speed
57 60 64 68 73 77 81 89 96 100 104 105 106 109 111 115 118 115 107 101 97 93 89 86 84 80 77 75 72 69 66 64 58 70 70 68 64 60 60 63 68 70 73
59 64 70 76 80 86 92 98 102 105 107 108 112 115 118 120 117 108 102 94 88 85 83 80 78 75 72 69 68 66 63 61 54 58 65 65 63 60 57 58 63 66 67
66 72 79 83 88 94 100 105 108 107 112 116 116 118 121 116 111 104 95 88 84 81 78 75 73 70 68 66 64 62 60 57 53 51 59 59 59 59 56 55 58 61 64
73 79 84 89 96 101 107 109 111 115 117 118 119 120 116 110 102 94 89 85 80 77 75 72 69 67 66 65 62 60 57 56 54 50 53 54 54 54 52 53 53 56 59
80 86 90 96 102 109 110 111 115 117 120 121 120 117 112 104 95 90 84 80 77 75 72 68 66 64 61 57 54 52 50 50 49 46 47 49 50 50 47 48 49 51 56
87 92 98 103 110 112 113 114 116 118 121 119 116 112 105 96 91 85 81 77 74 70 68 66 64 60 57 54 51 48 46 46 45 43 42 43 45 47 44 43 45 46 53
93 98 104 109 114 116 115 115 116 119 119 115 111 106 97 92 86 82 78 74 70 67 62 62 60 56 55 53 50 47 44 42 40 39 39 37 40 41 40 38 41 44 48
97 103 109 113 118 117 115 115 118 117 113 110 107 99 93 87 82 78 74 71 67 63 60 58 56 55 51 50 47 44 40 37 36 34 35 32 34 35 36 35 38 41 43
103 109 113 117 118 117 115 117 116 113 110 107 102 95 89 83 78 75 71 67 64 61 58 55 54 51 47 45 42 40 37 35 33 31 29 29 29 29 29 31 34 36 38
109 113 118 119 117 116 114 115 112 110 108 104 97 91 85 79 75 72 68 64 61 60 57 54 50 45 42 40 38 36 33 32 30 29 26 25 25 24 25 27 29 30 34
114 118 120 118 114 112 114 111 110 107 105 98 92 86 81 75 72 68 64 61 59 57 56 53 47 41 36 36 35 33 32 30 27 25 24 24 22 21 22 23 26 29 34
118 121 118 114 113 113 112 110 107 105 100 93 88 82 76 73 70 65 61 58 57 55 54 48 44 40 35 34 33 31 30 28 25 23 22 22 20 19 20 21 24 27 30
121 117 111 111 112 112 110 107 105 100 94 88 83 76 72 70 66 61 58 56 54 52 49 44 41 38 35 34 31 29 27 26 23 21 19 19 18 16 17 19 21 24 27
116 112 111 111 112 111 108 105 102 96 90 84 78 72 69 66 62 59 57 54 52 48 43 40 37 36 33 30 30 27 25 24 22 20 18 17 17 16 16 17 20 22 24
112 111 110 112 113 109 106 102 96 91 85 79 73 69 66 62 59 56 55 52 49 44 40 37 34 33 33 31 28 27 24 23 21 19 18 17 17 17 16 17 19 21 23
112 112 112 112 110 107 102 96 90 85 79 74 69 65 61 58 56 55 52 49 45 41 39 36 33 32 30 28 27 26 24 22 20 19 18 17 17 17 17 17 18 21 23
114 116 111 107 105 101 96 90 84 78 73 70 66 62 58 55 54 53 50 47 42 40 38 37 33 32 30 28 25 25 24 22 20 18 18 18 17 17 18 18 19 19 21
114 109 106 104 100 95 89 84 78 74 69 64 63 59 55 53 52 51 48 44 40 38 37 36 35 32 30 28 27 24 23 22 20 19 18 19 19 18 18 19 19 20 20
107 105 103 99 94 88 83 78 73 69 65 61 58 56 53 51 51 50 46 42 39 38 36 35 35 34 30 28 26 24 23 21 21 19 19 19 20 20 20 20 20 21 22
106 102 99 93 88 82 77 74 70 65 61 57 55 53 51 50 50 48 44 40 37 37 35 33 32 33 32 28 26 24 22 21 21 20 20 20 21 22 22 22 22 23 24
98 95 91 85 81 77 73 70 66 61 58 55 52 51 49 49 49 47 43 39 36 35 33 33 32 31 31 31 27 24 22 21 21 21 21 21 22 23 24 24 25 26 26
93 87 83 79 75 72 70 65 61 59 55 53 49 48 48 47 47 45 43 39 36 34 33 32 31 30 30 30 29 26 23 22 22 22 22 23 23 24 25 27 27 28 28
83 79 77 73 70 68 66 62 58 55 53 50 47 46 46 46 45 43 41 38 36 36 34 33 31 30 29 28 28 27 25 23 22 22 23 24 25 25 26 27 28 30 31
75 73 71 70 67 64 61 60 55 52 52 50 46 45 44 44 43 41 40 38 36 35 35 34 32 30 28 27 27 27 26 25 23 23 23 23 25 26 27 27 29 30 31
71 69 67 65 62 60 57 56 54 52 51 49 47 45 43 42 41 39 38 36 35 34 34 34 33 31 29 28 28 28 26 25 24 24 25 24 24 25 27 28 29 29 31
68 65 63 61 58 56 54 52 52 52 50 47 45 44 42 41 40 38 37 36 35 34 33 33 33 31 30 29 29 28 27 25 24 24 25 25 25 24 25 27 28 29 30

GFSGL_250_spd_036.txt.gz
Wind_Speed
63 64 64 65 67 71 75 80 84 90 95 100 103 105 104 104 107 112 113 111 109 105 98 94 91 86 83 79 75 70 68 65 57 71 66 65 64 59 56 57 61 66 71
68 69 69 70 70 74 80 86 92 96 102 107 108 107 106 107 111 113 113 110 105 97 91 86 83 80 76 72 69 65 63 61 55 59 64 61 62 61 56 54 55 60 66
72 71 73 73 75 79 87 92 98 103 108 110 109 107 108 111 113 112 109 104 95 89 84 80 76 72 70 67 63 61 59 58 55 53 60 57 56 57 57 56 54 54 60
77 77 79 79 81 85 93 99 104 109 111 112 108 110 111 113 111 108 103 94 87 83 78 74 71 68 66 64 61 59 57 55 53 51 55 52 51 51 53 53 53 52 54
82 83 86 85 87 92 98 104 110 113 114 111 111 111 112 111 107 104 94 89 83 78 73 70 68 65 63 60 57 56 55 55 53 51 49 46 45 45 47 48 49 49 51
87 88 88 88 92 98 104 110 115 115 113 110 112 111 110 106 103 97 89 83 78 73 71 68 64 62 60 59 55 54 53 52 50 47 44 44 42 41 41 42 42 42 45
90 90 88 92 98 104 110 114 119 115 112 114 113 111 105 101 97 91 84 79 73 71 69 66 62 59 58 57 56 53 48 45 43 42 41 39 38 36 37 37 37 37 40
92 90 93 98 104 110 115 119 116 112 112 112 111 107 103 99 91 86 80 74 70 68 66 62 59 56 55 55 53 49 44 41 40 38 36 35 34 32 32 33 34 32 37
92 95 99 104 109 115 118 118 115 114 112 110 108 104 101 94 87 82 76 72 69 66 62 59 56 54 53 51 47 44 39 38 37 35 33 31 29 27 27 28 29 29 33
97 101 105 110 114 118 118 116 114 111 110 107 103 100 96 89 83 78 73 71 67 62 58 56 54 52 49 44 42 40 37 36 34 32 31 28 25 24 24 25 26 28 30
102 106 111 115 119 118 115 112 111 112 107 103 101 98 91 84 79 73 70 68 63 59 56 54 52 49 43 40 38 37 36 33 31 29 27 24 22 21 21 22 22 24 26
109 112 116 120 117 113 111 111 110 107 104 102 100 94 86 80 75 70 67 63 59 56 54 53 51 45 41 38 35 34 33 31 29 27 25 22 20 19 19 19 19 20 21
114 117 119 117 115 113 110 111 109 105 104 99 95 89 81 75 71 67 63 59 55 52 51 51 47 42 39 37 35 33 31 28 27 25 24 21 19 18 17 17 17 19 20
117 119 117 114 111 111 111 108 107 104 100 95 89 82 76 72 67 64 59 55 51 50 50 48 43 41 38 34 31 30 29 27 24 23 22 20 19 18 16 16 16 18 20
120 117 112 110 111 112 108 106 103 100 95 88 83 77 72 67 64 59 55 51 49 48 48 44 40 38 37 35 33 29 28 25 23 22 21 20 18 18 16 15 16 17 19
116 113 114 114 111 107 103 101 99 95 88 82 78 72 68 64 61 55 52 49 48 47 46 41 38 36 33 32 32 29 27 26 22 21 20 19 18 18 16 16 16 17 19
110 112 112 110 105 102 102 99 93 85 80 76 73 69 65 62 56 52 50 47 46 45 43 39 36 35 33 31 29 28 27 26 23 21 19 18 17 18 17 17 17 18 19
115 111 109 107 104 101 96 90 84 78 73 70 68 66 62 58 53 50 47 45 44 43 41 38 35 33 32 32 30 27 26 25 24 21 19 18 17 18 18 18 18 19 20
111 109 107 105 100 93 90 85 78 73 69 67 64 62 59 54 51 48 45 43 42 42 40 37 34 32 31 31 31 27 24 24 23 22 19 18 17 18 19 19 20 20 21
109 107 102 97 90 86 82 77 73 69 66 64 61 58 54 51 49 47 44 42 41 40 38 36 34 33 32 30 30 29 25 23 22 22 21 18 18 18 19 20 21 22 22
102 96 93 88 81 79 76 72 69 66 63 61 58 55 51 48 48 46 43 41 40 38 36 34 33 33 32 31 29 28 28 23 22 22 22 20 19 19 19 21 23 24 24
90 87 84 80 76 74 71 68 66 63 60 57 55 50 49 48 47 45 43 40 38 37 35 33 32 32 31 31 30 28 27 25 22 22 22 21 20 20 21 21 23 25 27
84 80 77 74 71 69 67 65 63 61 58 54 50 49 47 46 45 43 41 39 37 35 34 33 32 31 30 30 29 28 27 26 24 22 23 23 21 21 21 23 24 25 27
78 75 72 69 67 65 63 61 60 57 54 51 49 47 46 44 43 41 40 38 36 35 33 32 32 31 31 30 29 28 27 27 26 24 23 23 23 22 22 22 24 26 27
73 69 68 65 63 61 59 57 55 53 51 49 48 47 44 43 42 40 40 38 35 34 33 32 31 31 31 30 29 29 28 27 26 25 24 24 24 23 21 22 24 26 28
68 65 64 61 59 57 55 53 51 50 49 48 47 46 44 42 41 40 38 37 35 33 32 32 31 30 30 30 30 29 30 29 27 26 25 24 24 24 23 23 23 25 27

GFSGL_250_spd_039.txt.gz
Wind_Speed
68 71 74 76 78 76 77 78 80 82 83 86 91 97 102 106 111 112 112 112 112 114 112 106 105 100 94 89 85 80 76 71 62 69 68 64 62 61 59 58 59 64 68
76 77 79 82 82 80 81 82 83 85 88 93 97 102 107 111 114 113 113 114 115 113 107 103 98 91 86 80 76 73 70 67 60 58 66 60 59 57 56 56 56 58 63
79 82 83 85 83 83 84 84 85 90 94 97 102 107 111 114 113 113 112 113 109 104 100 95 89 84 79 74 71 69 65 61 59 54 61 58 55 53 53 52 51 52 56
83 86 88 86 84 87 87 87 92 96 99 103 109 113 115 111 112 112 111 106 102 98 93 87 81 77 72 69 68 64 61 59 56 52 54 55 52 51 50 49 49 49 49
87 90 89 86 88 89 90 93 98 102 105 109 115 115 111 109 113 112 107 101 98 92 85 80 75 71 69 66 63 59 58 56 54 53 53 49 47 43 44 46 46 47 45
90 91 89 89 90 91 94 99 104 107 112 115 116 113 111 110 112 104 101 98 92 85 79 76 71 67 65 62 61 57 53 54 53 49 48 44 42 38 40 41 42 42 41
93 91 90 92 94 96 100 106 109 113 116 118 115 112 113 110 106 101 99 94 86 79 74 71 68 64 62 58 56 53 52 49 46 45 42 39 38 37 35 36 38 39 38
92 92 93 93 97 102 105 109 113 116 119 114 111 113 112 106 103 98 95 88 80 74 71 68 64 61 58 55 52 51 48 45 42 41 39 38 35 34 32 32 33 34 35
92 93 94 98 102 105 110 112 115 118 113 112 113 112 107 103 101 96 88 82 76 70 66 64 61 57 55 51 49 46 44 41 39 37 36 34 32 32 30 30 29 30 30
94 97 101 105 107 111 114 116 117 111 112 114 112 109 106 102 96 89 82 77 72 66 63 60 59 55 52 48 45 42 41 39 37 35 34 33 30 27 26 26 25 25 26
98 103 108 110 112 115 117 117 112 112 112 113 111 108 102 96 88 83 77 72 67 63 60 57 55 53 50 46 42 40 39 37 35 33 32 29 26 23 22 22 20 20 22
105 109 112 114 116 117 116 113 114 112 108 106 106 103 97 88 84 77 72 68 64 61 57 55 52 50 47 43 39 38 36 35 32 31 29 26 24 21 19 18 17 17 20
110 112 115 118 116 113 113 112 111 108 106 105 100 94 88 85 79 73 67 65 61 58 54 52 50 47 45 42 38 35 33 32 29 28 27 25 23 19 17 16 15 15 17
113 115 118 118 116 115 116 113 113 110 107 101 95 89 84 78 72 68 66 62 59 56 52 49 47 45 43 40 37 33 30 29 27 26 25 23 22 19 16 14 14 13 15
117 115 116 112 112 111 114 115 111 105 99 93 88 84 78 74 68 65 62 59 56 52 48 47 45 43 42 39 37 33 30 28 27 24 24 22 20 18 16 14 14 14 15
118 119 116 117 115 116 114 109 104 98 93 88 83 78 73 69 66 62 59 56 53 50 46 44 43 41 40 37 35 32 29 28 26 24 23 22 20 18 16 14 14 14 14
115 115 115 115 113 109 104 100 97 94 89 85 78 74 71 67 63 59 56 54 50 47 44 42 40 39 37 35 35 32 30 27 26 25 22 21 20 18 17 15 14 14 15
114 112 110 108 106 104 100 94 88 84 79 77 73 70 67 64 61 57 54 51 48 45 44 41 39 37 35 33 32 31 30 28 25 24 22 20 19 19 17 17 15 15 15
112 112 112 108 102 96 91 88 83 79 76 73 69 66 64 61 58 56 51 48 47 44 42 40 38 36 34 32 30 29 28 28 25 24 22 20 19 19 18 18 17 17 17
106 106 103 100 96 91 86 80 77 75 72 69 66 63 60 59 56 53 49 47 45 43 41 39 37 35 33 32 30 28 26 26 25 23 22 21 19 18 19 19 18 19 19
105 101 96 91 86 81 79 77 73 69 68 66 63 60 57 55 53 51 48 46 42 40 39 38 36 34 33 32 30 29 27 25 24 23 22 21 20 19 20 20 20 20 22
97 91 86 84 81 77 73 70 69 67 64 62 60 57 55 52 50 48 47 45 43 39 38 37 35 35 33 32 30 29 27 25 23 23 22 21 21 20 20 21 21 22 23
86 84 81 78 74 71 69 67 65 64 60 58 56 54 51 49 47 46 45 44 42 40 37 36 35 34 33 32 31 30 28 26 24 23 23 22 22 21 21 21 23 23 24
80 75 72 70 68 67 65 63 61 59 57 55 53 52 49 48 47 46 45 43 41 39 37 35 34 33 33 32 31 30 28 27 25 24 24 22 23 22 22 22 23 24 26
73 72 70 67 64 62 60 58 57 56 55 54 53 51 49 48 46 44 42 41 40 39 37 35 34 33 32 31 30 30 28 27 26 24 23 23 23 22 23 23 23 24 26
70 67 66 64 61 59 58 57 56 55 53 52 50 49 47 46 44 42 41 40 40 38 37 36 34 33 32 31 30 30 28 27 26 25 24 23 23 23 23 24 24 24 25

GFSGL_250_spd_042.txt.gz
Wind_Speed
62 66 69 73 78 82 85 88 89 87 84 84 86 90 95 100 106 108 110 112 115 112 112 112 111 108 104 101 96 92 87 81 74 71 74 71 65 63 62 61 61 61 63
68 72 76 80 84 86 89 91 91 87 87 88 92 96 101 105 110 112 113 114 113 113 112 110 108 105 98 93 88 83 79 75 70 65 70 66 62 59 57 58 58 57 59
74 77 81 84 88 91 93 94 90 88 90 94 98 104 107 110 110 114 113 112 111 111 107 104 101 95 91 87 81 76 72 70 67 62 61 62 59 57 54 55 55 54 54
80 83 85 87 90 93 96 93 90 91 94 99 105 109 111 112 115 115 111 112 111 106 103 99 94 90 85 80 74 71 67 66 62 58 57 57 56 53 52 53 52 50 54
84 87 87 90 92 96 95 93 93 96 100 107 110 111 114 116 115 111 109 109 108 105 102 96 90 82 78 74 70 66 62 61 58 57 54 53 51 48 46 45 44 45 46
84 85 90 93 98 98 96 96 99 101 107 111 112 114 117 114 115 113 113 109 105 101 95 89 82 75 72 68 66 64 58 56 56 54 52 47 44 42 40 40 39 39 44
86 90 93 98 99 98 97 100 103 107 112 114 114 116 115 114 112 109 108 104 100 94 89 83 76 70 68 64 60 58 56 54 53 51 46 41 39 37 36 35 36 36 38
89 92 99 99 99 100 101 105 109 114 116 116 117 112 111 111 111 107 102 100 96 90 82 76 71 66 64 61 57 55 54 52 51 45 42 39 38 36 34 33 33 33 35
91 99 101 101 100 102 107 113 116 116 115 115 115 112 111 108 107 105 98 95 91 82 75 71 68 63 60 57 55 54 52 50 46 43 39 37 34 33 32 31 32 31 31
99 104 103 102 104 109 114 117 117 117 117 113 110 110 106 101 102 102 96 88 84 77 72 68 66 60 57 54 52 51 49 45 43 39 36 35 33 30 28 28 27 28 28
106 105 104 108 112 116 120 121 122 123 117 115 113 110 107 106 103 98 89 83 79 74 69 64 61 59 55 52 50 49 46 41 38 36 35 33 30 27 25 25 24 24 25
104 104 107 112 118 122 121 122 122 116 115 113 110 106 106 99 96 91 82 76 73 69 66 61 58 55 52 50 48 47 44 39 36 34 33 31 28 24 22 22 22 22 22
105 107 113 119 122 121 122 120 114 115 116 112 108 101 95 91 87 83 78 72 69 65 62 58 55 52 50 47 46 44 41 36 34 33 31 29 27 23 20 19 19 19 19
109 115 120 123 122 121 115 112 113 110 107 106 101 96 90 85 79 73 73 70 65 62 59 55 52 49 48 45 44 42 38 33 30 29 29 27 25 22 19 17 17 17 17
117 121 124 122 119 113 113 112 112 111 104 99 94 88 83 79 75 71 66 64 63 60 56 53 50 48 46 44 42 41 36 31 29 28 27 26 24 22 19 16 16 16 16
123 123 120 118 113 112 111 109 107 105 100 93 88 82 79 75 71 67 63 62 59 57 54 51 47 47 45 42 41 39 35 31 28 28 26 25 23 21 18 16 14 15 16
118 115 113 112 111 109 104 102 98 96 92 87 84 81 75 71 66 63 61 59 56 54 51 49 47 46 44 40 39 37 34 31 29 27 26 24 23 21 19 16 14 14 16
116 113 110 110 110 104 101 99 92 88 85 83 79 75 71 67 63 59 58 56 53 51 48 46 46 45 42 39 37 35 32 30 29 27 25 23 22 20 19 16 15 14 15
113 111 110 108 107 101 95 91 88 85 80 76 73 70 67 65 62 57 55 53 51 48 47 44 44 42 39 37 35 33 31 30 28 27 25 23 21 20 18 17 16 15 16
108 106 102 97 93 88 87 85 82 81 78 72 70 68 65 62 59 55 53 51 49 46 45 44 43 41 39 36 34 33 30 29 27 26 25 23 21 19 18 18 17 16 16
102 99 95 90 87 84 82 79 75 73 71 71 66 64 61 58 56 54 52 50 48 45 43 43 41 39 37 35 34 32 30 28 26 24 24 23 20 19 19 19 18 18 17
97 93 90 87 85 81 77 75 71 69 67 65 63 60 57 56 55 54 52 50 48 46 43 41 40 39 36 34 32 32 30 28 26 24 23 24 21 20 20 20 19 19 19
92 89 86 82 79 77 73 71 68 66 63 61 59 59 58 57 56 53 50 47 45 43 41 40 38 37 35 33 31 31 29 27 26 25 23 23 23 22 21 20 20 20 21
89 84 81 77 75 71 70 66 64 63 61 60 59 58 55 54 52 50 48 45 42 40 39 38 37 35 35 34 31 30 29 28 26 25 24 23 23 24 23 22 21 21 22
82 79 77 75 72 69 66 64 62 61 60 58 56 54 53 50 50 48 46 44 42 39 38 37 37 35 33 33 32 30 29 28 27 25 25 23 22 22 24 24 23 22 23
75 74 73 71 69 67 65 63 61 60 57 56 54 53 52 50 46 45 43 41 40 38 38 36 36 35 33 32 31 30 28 26 26 24 24 23 22 21 22 24 24 24 24

GFSGL_250_spd_045.txt.gz
Wind_Speed
58 61 63 66 70 74 80 83 85 85 87 91 97 99 96 96 97 102 107 111 114 114 114 111 111 113 112 111 109 104 97 89 81 77 75 70 68 65 64 63 62 61 60
59 64 66 70 73 76 80 81 83 88 90 98 101 99 97 98 102 109 114 114 114 113 110 110 111 111 108 105 101 95 89 81 76 71 71 67 64 62 59 58 58 57 57
61 64 67 71 76 77 79 85 86 88 96 102 101 99 99 104 109 115 112 112 112 109 109 110 108 106 104 97 90 84 79 75 71 66 65 63 61 59 57 54 54 54 55
69 72 73 75 77 82 85 90 90 95 103 104 101 100 105 110 114 115 114 113 108 109 109 108 108 102 93 87 83 78 73 70 67 65 62 60 56 54 51 51 51 51 53
74 76 76 78 83 87 93 93 96 101 108 105 103 106 112 116 116 116 113 108 108 108 105 103 99 91 83 83 79 74 70 67 64 61 59 56 53 52 50 46 47 49 46
78 79 80 85 91 94 96 98 101 109 108 106 108 113 118 118 116 114 112 110 107 104 101 99 94 89 84 81 75 70 67 64 62 57 55 53 51 49 45 43 44 45 45
79 83 89 94 97 98 99 103 109 110 108 109 113 119 120 118 113 110 112 109 105 105 100 95 92 87 79 75 68 65 63 60 56 55 54 52 49 45 42 39 40 41 42
84 89 94 99 99 99 104 110 111 109 112 116 121 123 120 116 115 114 112 108 104 100 96 89 84 79 73 70 66 62 59 56 52 50 50 49 46 43 40 38 38 37 38
90 94 96 97 101 107 110 109 110 114 120 123 122 121 119 115 113 112 109 103 98 94 86 80 78 73 69 65 63 61 56 52 49 48 48 46 43 40 38 36 37 37 33
96 99 99 104 109 111 109 111 116 121 122 123 120 116 115 113 111 109 105 98 89 86 79 74 73 68 64 62 59 57 53 50 47 46 45 42 40 38 36 35 35 34 33
99 101 106 110 109 109 113 120 123 123 121 118 116 113 111 109 105 102 99 90 82 79 76 72 68 65 61 58 56 53 49 47 45 45 44 40 36 33 32 33 33 32 31
103 109 109 107 110 115 120 123 125 122 116 114 114 112 107 103 97 92 88 85 79 75 72 67 63 61 58 55 53 49 47 45 43 43 42 38 34 31 31 30 31 31 28
108 105 107 113 118 122 123 122 119 116 113 111 108 106 102 98 91 84 81 80 76 70 66 63 60 58 54 51 50 46 44 43 41 41 39 36 33 30 29 28 27 28 26
105 109 116 120 122 121 120 117 113 113 111 107 101 96 94 88 83 79 76 73 70 66 61 60 57 54 50 48 46 44 43 40 38 38 36 34 31 29 27 26 25 25 24
111 118 123 121 119 118 115 113 113 108 105 101 96 89 86 83 79 75 71 67 65 63 59 55 52 50 47 45 43 42 41 39 36 36 33 31 29 28 26 25 23 23 22
120 124 121 118 118 114 112 110 111 105 100 94 88 82 81 76 72 70 67 63 61 59 56 53 49 47 44 42 41 39 38 37 35 33 31 30 28 26 25 23 22 21 21
126 121 117 114 112 110 109 105 100 97 96 92 86 81 76 72 69 65 63 62 56 54 52 50 48 44 42 40 39 37 36 35 33 32 30 28 26 26 23 22 21 20 20
121 118 114 112 108 105 103 97 92 89 86 87 85 77 72 70 66 62 59 57 54 51 50 48 46 44 41 40 39 37 35 34 31 29 28 27 26 25 23 22 20 19 20
117 111 109 104 101 101 94 89 86 83 80 77 77 75 69 67 64 59 56 54 52 51 51 49 46 43 41 39 38 36 35 33 31 29 27 26 25 24 23 22 20 19 19
112 109 104 99 96 91 89 83 79 77 74 71 71 70 66 64 62 57 55 53 52 51 50 48 45 41 39 38 37 35 32 31 29 28 26 25 25 23 22 21 20 19 19
106 101 99 96 93 89 85 80 76 75 71 67 66 65 63 60 58 57 55 53 51 48 47 45 43 41 38 36 35 34 31 30 28 27 25 24 24 23 22 21 20 20 19
101 97 92 89 86 84 80 78 73 72 72 65 63 61 59 58 55 54 53 51 49 47 45 42 39 38 37 35 33 33 31 29 28 26 24 24 24 24 23 22 21 20 21
97 91 89 87 83 80 78 76 71 68 68 65 61 59 57 56 54 52 50 49 47 45 43 42 40 37 35 35 32 31 31 29 27 26 25 23 24 24 23 23 22 21 21
91 88 84 80 78 77 75 74 70 66 66 64 61 59 57 54 53 51 49 46 44 42 39 38 37 37 35 33 33 30 29 28 26 25 25 23 23 23 24 24 24 23 22
88 84 80 77 75 73 70 69 69 66 62 61 60 58 56 54 51 48 46 44 42 40 38 36 35 34 34 33 32 29 28 29 27 25 24 24 23 23 23 24 25 25 24
82 80 77 74 70 68 67 66 64 64 62 59 57 56 54 51 48 46 43 41 39 38 36 35 33 32 32 32 32 30 28 26 27 25 24 25 24 23 23 24 26 26 27

GFSGL_250_spd_048.txt.gz
Wind_Speed
51 54 57 60 64 67 71 75 76 75 77 81 87 90 95 97 101 105 108 107 106 109 114 116 113 109 109 109 110 110 108 101 92 88 84 79 73 68 65 62 59 58 55
56 58 61 65 68 70 75 77 76 78 83 89 93 96 97 100 107 110 107 107 112 116 113 113 109 108 109 109 108 106 103 94 87 82 78 73 68 66 62 60 59 55 54
63 64 65 67 71 74 76 76 80 84 89 93 97 99 103 108 110 107 110 114 114 112 109 108 110 110 110 108 105 102 98 90 81 75 71 67 65 60 59 57 56 54 52
64 67 71 72 71 75 77 81 87 90 93 96 99 105 109 107 108 112 117 115 112 110 110 112 111 110 110 106 99 94 88 82 76 71 68 65 62 57 55 56 54 51 48
66 69 70 72 76 80 84 88 93 95 96 101 106 108 106 110 115 115 115 114 113 111 111 111 110 109 105 100 93 86 79 76 73 69 66 62 58 55 54 51 50 51 44
67 71 75 79 83 86 90 94 97 98 104 107 102 107 113 115 115 115 115 113 111 111 112 111 108 103 101 93 86 80 74 72 69 66 62 59 56 53 50 47 46 43 42
72 77 82 87 89 93 96 97 101 107 105 104 111 117 116 115 116 116 113 113 115 114 111 109 103 97 91 85 81 77 71 66 65 64 61 56 54 50 50 45 41 39 39
79 83 88 91 94 95 98 104 107 103 106 112 119 118 117 117 115 115 116 116 114 112 106 99 93 87 83 80 75 71 66 62 60 57 56 53 50 48 46 44 41 37 36
85 89 92 96 96 98 105 106 105 108 113 120 121 119 117 115 115 115 114 113 109 104 97 89 85 80 76 73 69 65 62 60 57 54 52 49 46 44 43 41 38 38 35
92 94 97 98 99 105 108 107 110 114 119 125 120 116 114 115 115 113 109 106 98 93 88 83 78 74 71 68 65 62 61 57 52 50 48 45 43 41 40 39 38 38 35
94 96 97 100 106 109 108 111 115 121 124 120 115 114 115 114 111 108 103 96 90 86 81 76 71 68 65 62 60 59 57 53 49 47 44 42 39 38 36 35 35 35 33
97 98 100 104 110 109 112 116 122 123 118 116 113 113 114 112 109 101 95 92 87 82 76 70 66 64 62 58 57 55 52 49 46 44 43 40 37 35 34 32 32 34 32
98 101 104 109 110 113 117 123 123 119 115 113 113 112 110 107 101 93 89 85 80 75 71 66 63 59 57 55 53 50 48 46 43 42 40 39 37 35 31 30 31 31 31
101 104 109 109 114 119 123 123 118 115 114 113 110 108 105 98 93 88 82 78 74 70 67 61 58 56 53 50 48 46 44 42 40 39 37 36 35 34 30 29 29 29 29
105 108 109 114 119 123 122 118 113 114 112 108 106 102 97 91 84 78 74 72 69 64 62 57 54 51 49 48 46 43 41 40 39 38 35 34 33 32 29 27 28 27 26
109 110 115 119 122 122 118 113 114 111 109 107 102 96 89 82 74 73 70 67 65 61 60 55 52 50 47 46 44 42 40 39 37 37 34 33 31 30 27 27 26 26 24
109 114 120 122 123 121 116 113 108 104 104 102 97 93 88 77 73 70 65 64 62 59 58 53 51 51 48 45 43 41 39 39 37 35 33 32 30 28 27 25 24 25 22
114 118 119 121 118 114 111 108 104 97 89 89 90 88 82 74 72 68 62 61 60 56 55 54 51 50 47 44 42 39 37 36 35 34 32 30 29 27 26 24 23 23 22
117 120 120 119 116 111 107 102 97 91 87 82 79 81 77 71 69 65 60 57 56 55 53 52 50 48 46 43 40 39 36 35 33 32 30 29 28 27 25 24 22 22 21
119 120 120 115 110 106 102 95 91 87 82 77 75 74 72 67 66 63 58 55 54 53 52 51 49 47 44 42 39 38 36 34 33 30 29 27 27 26 25 23 22 21 21
118 117 112 109 106 100 95 90 86 82 78 72 70 69 68 64 63 62 59 55 52 50 50 49 48 45 43 40 38 36 35 34 33 31 29 27 26 26 25 23 22 21 20
115 112 109 104 98 94 89 84 80 77 72 68 68 68 66 63 59 58 57 55 51 48 46 46 44 42 40 39 37 35 33 32 31 30 29 27 26 26 25 24 22 22 21
110 108 103 98 92 87 82 79 76 73 70 67 65 65 64 60 57 54 53 50 48 46 43 42 42 40 37 36 36 35 33 31 30 29 29 26 26 25 25 25 23 22 22
105 101 96 91 86 82 78 74 74 72 69 65 62 61 60 58 54 51 47 46 44 42 40 38 38 38 36 34 33 33 33 31 29 28 28 27 26 26 25 25 25 23 22
100 95 90 84 81 78 74 72 71 69 66 63 59 58 56 55 52 50 47 44 42 39 37 35 34 34 36 35 32 31 32 31 29 28 28 27 25 25 25 25 25 25 23
93 89 83 79 77 74 71 69 67 65 63 62 60 56 53 50 49 47 43 42 40 37 36 34 32 32 32 33 32 31 30 29 29 28 27 25 25 24 25 25 25 25 25

GFSGL_250_spd_051.txt.gz
Wind_Speed
49 50 51 54 58 60 62 65 69 72 70 76 81 83 87 90 94 98 104 104 101 104 112 113 112 111 112 112 112 112 111 107 101 100 94 88 82 76 74 70 65 63 59
44 49 55 57 60 62 66 66 67 73 79 83 85 88 90 94 101 105 103 103 106 112 114 113 112 111 110 112 113 111 107 102 96 94 89 81 76 72 71 67 62 56 55
51 55 59 63 65 66 65 68 71 78 84 87 91 93 95 102 106 104 105 108 112 114 111 111 111 111 113 112 109 108 103 98 92 87 81 78 74 70 68 63 59 55 51
59 63 64 66 68 67 70 75 80 85 88 92 94 95 101 106 105 106 110 115 115 113 112 111 112 113 113 111 107 102 95 90 85 81 77 74 69 64 61 60 56 53 49
63 66 66 69 69 72 77 83 88 91 93 94 96 100 106 106 109 112 116 114 113 113 112 114 114 113 111 107 99 92 88 84 81 76 72 68 63 61 57 54 53 53 47
65 67 70 71 74 78 83 87 91 93 95 97 100 107 108 111 115 117 116 114 112 113 115 115 112 110 105 97 92 87 82 78 75 71 68 64 60 58 54 52 51 48 47
66 70 73 76 79 83 89 91 93 95 97 100 106 108 111 115 119 118 116 114 115 117 115 112 108 103 97 91 86 81 77 73 70 66 64 61 59 54 51 50 46 45 44
70 72 76 80 84 89 92 95 95 96 99 105 107 110 116 119 119 119 116 115 116 116 111 108 102 96 91 84 80 75 71 67 64 62 61 59 55 52 50 48 44 42 41
74 77 81 85 90 92 95 96 97 100 107 107 110 116 118 120 121 119 117 116 115 113 107 100 94 90 83 77 73 71 68 63 61 59 57 54 51 49 48 46 43 42 39
78 82 86 90 92 95 96 98 99 105 107 108 115 118 121 122 121 118 116 115 113 108 101 93 88 83 77 73 69 66 63 59 56 54 51 49 48 46 45 44 42 39 38
82 87 91 92 95 97 98 100 104 107 108 113 117 120 122 122 120 118 116 113 109 101 95 89 83 77 73 68 64 63 59 56 52 50 48 46 44 43 43 41 40 39 36
87 91 92 95 96 99 100 104 108 107 112 116 118 120 123 121 119 118 114 108 102 95 90 83 77 71 68 64 61 58 54 51 49 47 46 43 41 40 39 38 37 36 34
91 93 95 96 99 100 104 107 108 111 115 117 119 121 119 118 118 113 106 101 95 87 84 78 72 68 64 61 57 53 51 49 47 46 44 41 39 38 35 34 34 33 31
94 94 96 99 100 104 107 107 110 114 116 119 121 120 117 115 111 104 98 94 87 81 77 75 68 64 61 57 54 52 51 48 47 45 42 40 39 37 34 32 31 30 29
94 97 98 100 104 107 108 111 114 116 119 120 120 118 115 107 102 98 90 88 81 77 73 70 63 60 57 53 52 51 49 47 45 42 41 39 38 35 33 31 29 28 27
96 98 101 105 107 108 110 110 114 118 121 122 120 116 107 101 95 90 85 79 78 72 68 65 60 57 55 52 49 48 47 45 43 41 39 37 36 33 31 29 28 27 25
99 102 107 107 109 111 113 114 114 113 120 119 117 109 103 95 89 84 80 72 72 67 64 63 59 55 54 52 49 46 44 43 41 39 37 35 34 32 29 27 26 26 24
105 108 106 108 110 110 111 113 115 113 109 106 105 102 98 93 85 80 76 69 67 68 61 61 58 54 52 51 48 46 43 41 40 37 35 33 33 31 29 27 25 24 23
106 105 109 112 112 111 113 114 113 112 109 101 94 92 90 86 81 78 75 68 65 65 60 57 56 53 51 50 47 44 42 40 38 36 34 32 31 30 28 27 25 24 22
106 110 113 112 112 112 113 112 111 108 102 96 91 86 82 80 77 74 70 63 61 59 57 55 52 51 49 46 45 42 40 38 36 34 32 31 30 29 28 27 25 23 22
111 113 113 111 111 112 110 109 105 100 94 91 85 80 77 75 73 69 65 59 55 54 52 50 48 47 46 44 42 40 38 36 34 33 30 29 29 28 27 27 25 23 22
113 111 111 110 109 108 108 103 97 93 89 84 79 76 73 71 68 65 62 59 55 51 48 46 45 44 43 41 40 38 36 34 33 32 30 29 28 27 25 25 25 22 22
111 111 110 108 107 106 101 96 91 88 83 78 75 72 70 68 65 64 59 56 53 50 47 44 42 41 39 38 37 36 34 32 32 31 30 28 27 27 26 25 24 23 22
111 109 107 105 104 99 94 90 87 82 78 76 71 66 65 63 62 59 59 53 49 47 44 41 39 38 37 36 35 34 34 32 30 29 29 28 26 26 26 25 24 23 22
108 106 105 101 97 92 89 85 81 78 75 72 69 64 60 59 56 55 53 52 48 43 40 38 37 36 35 34 33 32 31 31 30 29 28 28 26 25 25 24 23 22 22
105 103 100 94 90 86 82 79 76 73 71 68 65 62 58 55 52 49 48 46 44 42 40 38 36 35 33 33 32 31 30 29 28 28 27 26 26 25 24 23 23 22 23

GFSGL_250_spd_054.txt.gz
Wind_Speed
34 41 48 55 59 57 58 62 64 66 69 70 71 78 84 88 90 91 94 96 100 105 108 110 115 116 116 114 113 111 111 110 104 100 96 89 84 80 77 75 73 70 65
39 43 49 56 58 60 66 67 69 72 74 75 78 83 87 90 92 95 97 101 106 109 111 117 118 118 118 115 113 111 109 106 99 94 90 85 82 76 73 70 68 61 58
41 44 55 57 60 65 69 72 74 76 77 79 81 86 89 94 96 98 100 104 110 110 116 119 119 119 119 115 112 111 107 101 94 89 85 81 78 72 69 65 62 58 53
44 51 52 62 64 67 72 74 76 79 82 81 88 90 93 96 98 101 103 109 111 115 119 120 121 120 117 115 113 108 101 94 89 84 80 76 71 68 64 61 59 54 52
49 55 60 64 67 71 73 75 78 81 84 88 91 93 97 99 101 102 107 111 114 118 121 122 121 119 118 116 110 101 93 88 83 79 74 71 68 65 61 57 56 52 49
55 59 64 68 72 74 76 79 81 83 86 89 93 96 99 102 103 107 112 113 117 119 121 121 122 120 117 111 101 94 88 82 78 74 71 68 65 61 57 55 52 49 47
60 65 68 72 74 77 79 81 83 86 89 93 96 99 102 104 108 112 113 116 119 120 121 123 122 117 110 102 96 90 82 76 73 69 67 63 61 58 54 50 48 46 45
64 67 70 74 76 77 79 82 86 89 94 97 99 102 103 108 112 113 116 118 119 121 123 122 118 110 103 97 90 83 77 72 70 66 64 61 58 54 51 49 46 43 42
66 70 73 75 77 79 82 87 91 95 95 98 101 102 107 113 113 116 118 120 121 123 122 119 111 103 98 90 83 79 74 69 66 62 60 57 54 52 50 48 44 41 39
70 72 74 77 80 84 88 92 94 95 99 101 103 108 111 111 116 118 121 121 121 119 118 112 105 96 91 84 79 76 70 65 61 58 55 53 52 50 48 46 43 39 38
72 74 77 80 84 89 93 95 96 99 101 104 107 110 111 117 118 120 122 122 120 115 111 105 99 91 85 80 76 72 66 63 59 55 52 51 51 49 47 45 43 40 36
75 78 81 85 89 92 93 95 98 100 104 109 111 108 114 120 121 121 122 120 116 110 105 99 94 86 81 76 72 67 63 59 57 52 51 50 49 47 44 42 41 39 38
78 81 85 89 92 93 95 97 100 106 110 111 109 112 116 117 119 123 120 117 113 104 98 93 90 82 77 72 70 64 60 58 56 52 50 48 47 45 42 39 40 38 36
82 86 89 92 94 96 97 101 106 111 112 110 113 117 117 113 116 119 118 114 107 98 91 87 86 79 75 70 68 63 59 57 54 51 49 46 44 42 40 37 36 35 34
86 89 91 94 96 99 103 108 111 113 112 114 118 118 115 112 113 114 111 107 100 93 83 81 81 77 74 68 65 61 57 55 53 49 47 45 42 40 38 36 34 33 32
89 92 95 98 100 104 108 109 111 113 116 122 122 121 116 116 112 108 103 98 92 87 80 76 75 71 68 63 60 57 53 52 51 48 46 43 41 39 36 34 32 31 30
94 96 99 102 106 108 108 108 109 112 119 119 119 118 118 112 110 104 97 90 87 82 80 74 72 67 63 59 56 54 51 50 49 47 44 41 38 37 34 32 30 29 28
96 99 104 107 107 108 110 113 114 115 111 111 115 115 113 110 104 97 91 86 82 80 75 71 67 63 59 56 54 51 48 46 46 43 41 38 36 34 33 31 28 27 26
102 106 108 108 109 113 115 116 117 115 111 108 106 108 106 101 96 90 86 82 79 75 71 67 63 60 57 53 51 49 46 44 42 41 38 35 33 32 31 29 27 25 25
107 106 108 111 115 116 118 116 114 110 109 108 105 99 95 91 88 86 83 80 76 71 67 64 60 57 53 50 47 46 43 41 39 38 36 33 31 30 29 28 26 25 23
106 110 114 116 117 118 115 113 110 108 106 104 99 94 88 84 82 81 79 77 73 67 63 60 57 53 50 48 46 43 41 38 37 35 33 31 29 28 27 27 25 24 22
112 115 116 117 116 114 113 110 108 104 101 96 92 88 84 81 78 74 73 71 69 65 59 57 54 51 47 45 43 40 39 36 34 33 32 30 28 26 26 25 24 22 21
115 116 117 116 114 112 110 107 104 100 95 90 86 83 82 79 75 71 67 65 64 61 55 52 50 46 44 41 39 38 36 33 32 32 31 29 27 25 25 23 23 22 22
116 117 117 114 112 109 106 104 100 94 89 85 82 80 76 74 72 67 63 60 59 57 52 48 45 42 41 39 37 36 34 32 30 30 29 28 26 24 24 22 22 22 21
116 115 113 110 108 105 104 99 93 88 84 82 79 75 73 70 66 63 60 57 55 52 50 45 42 40 39 37 36 35 32 31 30 29 27 26 24 23 23 22 21 21 20
112 110 108 107 105 102 97 92 87 84 81 78 74 71 68 65 62 59 56 53 51 49 46 43 40 38 36 36 34 33 31 29 29 28 26 25 24 23 22 21 21 20 20

GFSGL_250_spd_057.txt.gz
Wind_Speed
34 32 33 36 39 45 53 60 66 65 68 73 78 79 82 83 83 84 86 90 93 96 99 102 105 108 112 117 120 123 124 122 118 113 105 100 91 85 81 78 74 69 67
33 32 35 35 43 48 56 64 63 66 73 79 79 83 86 87 90 91 91 93 97 100 103 105 107 112 118 119 123 125 124 121 112 104 102 94 89 83 76 72 69 64 62
37 38 38 43 50 55 59 61 65 73 77 80 83 87 89 91 91 93 94 99 101 103 106 107 113 118 119 122 125 125 123 117 109 102 98 90 84 77 72 68 65 61 57
39 40 44 47 54 56 59 64 71 74 78 81 86 89 90 93 96 98 99 100 103 106 108 113 118 120 121 126 126 123 120 112 105 100 93 85 79 74 69 66 63 57 55
42 45 49 52 55 60 65 68 71 75 80 85 87 89 90 94 98 100 102 105 106 109 114 118 120 119 125 127 122 121 115 107 101 93 87 80 76 71 67 63 61 56 52
47 49 53 56 60 64 66 69 74 78 82 85 88 90 92 94 97 99 102 104 108 114 117 118 119 124 127 123 120 117 110 100 94 87 81 76 72 66 63 59 57 54 49
49 52 55 59 63 66 70 74 76 80 84 85 88 91 96 98 100 104 106 108 114 118 118 119 122 127 123 119 116 111 101 94 88 82 75 72 67 63 60 56 53 50 47
51 55 59 63 66 70 73 76 79 82 84 86 90 94 96 101 104 106 110 114 117 119 119 122 126 124 120 115 109 103 95 89 83 76 71 68 65 61 57 54 51 48 43
57 61 63 66 69 72 76 79 81 83 85 90 94 97 100 105 108 110 116 117 118 118 122 126 124 120 115 108 101 96 89 83 78 72 69 67 63 59 55 53 51 48 44
60 63 66 70 73 76 77 79 82 85 90 93 96 101 105 107 111 115 117 117 118 121 123 124 122 115 107 102 96 90 84 79 76 70 66 64 61 57 53 51 51 47 42
64 67 70 73 74 77 79 82 86 89 93 96 99 104 107 111 113 115 118 121 123 122 120 119 114 109 101 96 90 85 78 78 75 68 63 60 58 54 52 49 48 46 42
66 69 71 73 76 79 83 87 90 93 96 100 102 105 110 113 115 117 122 124 123 119 115 110 107 103 96 91 85 80 76 74 71 65 60 58 55 51 50 48 46 45 43
69 71 73 75 78 82 87 90 94 98 100 103 104 107 110 113 115 120 122 123 120 116 111 104 100 97 91 85 81 77 73 71 67 63 57 55 52 49 47 45 44 42 40
71 73 76 79 83 87 91 95 98 100 103 105 108 110 109 114 118 117 117 115 113 111 107 101 94 90 86 81 78 74 70 67 63 59 55 53 49 47 46 44 41 40 37
75 78 80 84 89 93 94 96 99 104 106 107 109 113 115 115 114 112 110 106 103 100 97 96 90 84 80 77 74 71 67 64 60 56 53 50 47 45 44 43 40 37 34
80 81 84 91 92 92 96 101 104 106 108 112 115 117 116 115 111 106 101 100 98 94 90 86 84 80 76 71 69 66 63 60 56 53 50 47 44 43 41 40 37 34 32
84 88 93 94 92 99 101 101 104 107 113 117 119 117 116 115 110 104 98 95 93 89 85 82 80 76 73 68 64 61 59 55 51 49 46 44 42 40 38 37 35 32 30
89 90 92 94 99 100 102 104 105 110 114 117 117 117 114 109 105 100 93 89 87 84 81 79 75 72 70 64 59 57 54 51 47 46 43 41 39 37 36 34 32 30 29
90 92 95 98 99 102 106 107 111 114 114 112 111 109 107 106 103 98 92 85 83 81 77 74 71 68 65 59 55 53 50 48 45 43 41 39 37 35 34 32 30 28 27
92 97 99 101 106 109 110 113 115 115 113 110 106 100 99 98 97 95 90 85 80 76 73 71 68 63 60 55 50 49 47 44 41 40 38 36 34 32 31 30 28 27 26
101 102 106 109 111 112 113 115 115 113 110 105 101 97 93 89 87 84 83 81 76 72 70 67 65 59 55 51 46 45 43 40 38 36 35 33 31 30 29 29 27 26 25
106 108 109 111 113 114 115 114 112 110 105 101 98 94 90 85 81 79 77 74 72 68 65 63 61 56 50 48 43 42 40 38 36 34 33 31 29 28 27 27 26 25 24
107 109 111 113 114 115 113 111 108 104 101 97 92 89 85 81 78 75 74 71 68 64 59 57 55 52 48 45 41 39 38 36 34 33 32 29 27 26 26 26 25 24 23
110 112 113 115 114 112 111 107 105 101 97 92 88 84 81 77 74 73 70 67 64 59 56 53 51 47 43 41 39 37 35 34 32 31 31 28 26 25 24 24 23 23 22
112 114 115 112 111 109 106 104 100 97 92 87 84 80 77 73 71 68 65 62 59 56 52 49 47 43 40 39 38 36 34 32 31 30 29 28 25 24 23 22 22 23 22
114 112 110 108 106 105 103 100 95 90 86 83 80 77 73 70 67 64 61 57 55 52 49 46 44 41 38 37 35 34 32 30 29 28 27 26 23 23 23 22 21 22 22

GFSGL_250_spd_060.txt.gz
Wind_Speed
37 37 39 40 42 43 46 44 47 53 59 65 69 73 76 80 80 84 90 91 93 95 98 100 103 103 105 108 111 113 118 120 119 120 122 123 115 110 104 96 88 81 77
38 39 42 43 44 46 46 47 49 57 62 64 75 72 74 78 85 92 94 94 95 98 101 103 106 107 110 113 115 119 122 121 121 120 123 120 112 104 97 91 84 77 72
39 42 43 46 47 47 48 50 55 60 64 69 67 78 82 85 88 91 95 96 98 100 104 106 108 111 115 116 120 122 121 122 123 121 116 113 107 100 93 86 81 73 67
44 46 47 48 50 51 53 56 59 63 68 73 75 80 85 88 91 93 96 98 100 102 105 107 110 114 116 120 122 121 122 125 124 118 112 108 103 95 88 80 75 69 64
44 44 44 50 52 53 58 60 62 67 71 76 79 81 85 89 93 95 97 100 102 105 108 110 113 115 120 121 122 123 125 124 119 114 109 105 98 89 81 76 71 68 62
47 49 50 52 54 57 60 63 67 71 74 77 79 83 88 92 96 98 100 102 105 107 111 115 115 118 121 122 123 125 124 123 117 112 106 100 91 84 77 73 69 65 61
44 44 48 52 56 60 63 66 70 73 75 78 82 86 89 93 96 98 102 105 107 110 114 116 119 122 121 125 125 121 121 119 115 107 100 94 86 79 73 70 65 62 59
48 50 51 54 57 61 65 68 71 74 78 82 86 88 91 94 97 100 104 106 109 112 115 118 120 121 126 125 122 120 118 113 106 97 94 87 81 75 71 67 62 60 56
53 55 57 60 62 64 67 70 74 78 81 83 86 89 91 96 100 104 107 107 109 113 117 116 120 124 127 123 122 117 112 109 98 92 87 80 78 72 69 64 60 57 54
55 57 60 62 65 67 70 73 75 79 81 84 87 90 93 97 101 105 107 109 112 112 113 119 124 124 123 122 115 110 104 100 92 85 80 78 72 68 67 60 57 54 51
57 59 60 62 65 68 72 75 78 81 84 86 89 91 96 100 101 106 111 112 112 113 119 121 122 121 117 113 109 103 98 92 85 81 76 72 67 65 63 57 54 51 49
59 61 63 66 69 72 75 79 83 85 87 89 91 97 101 101 105 110 111 114 118 121 121 120 118 117 110 105 102 97 91 85 81 76 73 68 63 61 58 54 52 49 47
63 64 67 69 70 72 76 81 84 87 89 92 96 99 100 104 106 108 111 115 120 124 125 121 115 108 103 98 94 90 86 82 77 73 70 65 60 57 55 51 49 46 44
66 67 68 70 75 79 81 85 89 92 94 95 97 100 102 103 107 110 113 117 120 120 117 113 109 103 97 91 88 84 81 77 72 69 65 61 56 53 51 48 45 42 41
68 71 71 75 79 85 88 91 92 92 94 96 98 101 102 109 109 113 115 115 114 110 105 102 99 95 90 87 83 79 75 73 68 65 61 57 53 49 47 44 41 39 38
69 73 76 82 87 92 95 93 94 93 93 98 101 104 108 108 112 113 112 112 108 104 100 95 91 87 85 81 79 75 71 68 64 61 57 53 49 46 43 41 39 37 35
78 82 84 90 94 96 96 97 97 95 100 106 108 108 110 112 112 111 109 106 103 97 93 89 85 82 80 76 74 71 66 61 60 57 53 49 46 43 39 38 37 34 32
83 86 89 92 93 95 96 97 98 102 106 106 107 111 113 112 110 107 101 97 95 92 87 84 80 77 75 72 69 66 62 56 55 52 48 45 42 39 37 36 34 32 31
91 94 96 93 94 95 97 100 104 105 106 107 110 111 111 110 108 102 97 92 88 86 84 81 77 74 71 67 63 61 58 53 50 48 44 41 38 35 34 33 32 30 30
93 88 90 93 96 99 103 104 104 106 108 109 110 110 109 107 103 98 94 91 88 85 81 79 76 71 66 62 59 56 54 50 47 45 41 39 36 33 32 32 30 29 29
89 93 95 99 103 104 104 106 107 108 110 111 110 108 105 100 96 92 89 85 82 79 78 75 71 66 61 58 55 52 51 47 44 41 38 37 34 32 31 30 29 28 28
97 100 103 104 104 106 107 107 109 110 111 109 108 105 99 94 90 86 82 80 77 74 71 69 65 61 58 54 51 47 48 43 41 39 37 34 32 30 29 29 28 27 27
104 106 105 106 107 107 109 111 112 111 109 107 103 98 94 90 85 81 79 76 73 69 67 63 60 57 54 51 48 44 45 41 39 38 36 33 31 29 28 28 27 26 25
106 106 107 108 110 111 112 111 110 109 106 100 95 91 88 84 80 77 74 71 67 64 61 59 56 53 50 47 45 43 41 38 36 35 34 32 29 28 27 27 26 25 24
108 109 110 111 111 112 111 110 108 103 98 94 90 85 81 78 75 72 69 65 62 59 57 55 52 49 46 44 42 41 39 36 33 32 32 30 28 25 25 26 26 25 23
110 111 110 111 112 110 107 104 100 96 92 88 83 80 77 74 70 67 64 61 58 56 54 51 48 46 44 42 40 38 36 34 32 31 30 29 26 24 24 25 25 24 22

GFSGL_250_spd_063.txt.gz
Wind_Speed
45 46 50 44 43 43 46 48 51 56 60 61 63 63 66 70 75 77 81 86 88 90 93 97 102 105 107 109 111 114 117 118 118 119 123 125 123 126 121 112 112 106 99
45 43 44 46 48 47 48 50 55 59 63 65 65 67 67 70 76 80 83 87 91 94 97 100 103 107 109 112 114 117 118 121 121 122 123 124 127 126 121 115 109 103 97
40 42 43 47 47 48 49 51 56 60 64 67 68 70 73 74 78 83 89 91 94 97 99 102 105 108 111 114 117 119 121 121 124 124 122 125 126 124 119 111 104 98 93
41 43 45 47 49 50 52 54 57 59 62 66 68 72 76 80 83 85 89 93 95 98 102 104 106 109 112 116 118 120 123 125 124 125 127 126 123 119 115 106 98 95 86
44 44 44 45 47 50 53 55 58 58 61 64 68 72 76 80 84 87 89 92 96 100 102 104 106 109 113 116 118 123 126 126 126 130 128 124 120 117 112 105 97 89 84
46 46 47 50 50 50 52 55 58 62 64 66 69 74 77 80 83 86 91 93 96 99 102 104 106 110 115 115 117 122 125 127 129 130 127 122 117 113 109 101 93 85 78
48 48 48 49 52 52 54 56 58 61 64 67 71 74 77 82 86 88 90 94 98 101 105 107 109 115 117 119 121 121 121 123 127 127 122 120 115 111 102 93 86 80 75
50 49 49 50 52 54 56 59 62 65 67 70 73 76 79 82 87 90 94 97 100 102 105 107 112 115 118 119 122 124 127 127 125 119 113 111 109 102 95 86 81 76 72
48 48 50 52 54 57 59 61 63 66 68 71 74 78 80 81 84 92 98 101 103 104 106 110 112 116 118 122 126 126 128 126 125 119 111 106 100 92 86 81 77 71 68
50 52 54 56 58 60 63 65 67 69 71 75 75 78 82 87 91 97 101 104 105 106 106 109 115 117 119 121 123 125 125 122 118 115 108 100 93 86 80 76 71 68 62
56 57 59 60 62 66 70 71 71 71 71 74 79 83 89 94 99 101 105 109 108 105 108 111 113 115 118 122 124 122 120 115 112 108 101 93 85 80 76 73 70 60 58
58 60 61 64 66 68 69 72 74 73 77 79 82 86 92 100 104 105 109 110 109 109 110 111 114 117 119 119 118 118 114 109 104 99 93 86 80 75 70 67 63 62 55
58 60 62 62 68 73 75 76 78 80 83 86 91 96 101 107 109 108 108 109 110 109 111 114 115 117 117 116 116 111 107 101 95 91 85 80 75 71 66 62 58 54 53
63 65 68 70 72 74 73 77 81 84 89 93 97 101 105 107 106 108 108 108 108 110 111 113 114 114 113 112 108 104 98 93 88 85 81 75 71 66 62 58 55 51 48
65 69 71 74 76 78 81 87 89 92 93 98 101 104 105 104 107 108 105 106 108 109 110 110 110 108 105 102 99 95 90 86 82 80 76 70 65 61 58 54 51 48 46
73 74 75 79 82 85 88 90 93 96 99 103 104 102 104 107 104 104 106 108 110 109 108 108 106 102 98 95 92 88 83 81 78 75 71 66 59 57 54 50 47 45 43
75 77 82 86 87 87 89 93 96 100 101 98 102 104 103 102 103 105 107 108 108 108 108 104 99 95 93 90 85 83 79 75 74 69 64 61 55 53 50 46 44 42 40
72 77 82 86 88 92 95 96 97 98 99 98 97 100 104 105 106 107 108 109 109 108 103 97 94 91 88 85 81 77 74 69 66 64 60 55 52 51 47 44 41 39 37
78 80 83 86 88 88 89 91 95 96 102 105 104 104 105 107 108 110 111 109 105 100 96 92 89 86 85 81 77 72 68 64 62 60 55 51 48 47 43 41 38 36 35
73 75 78 80 82 87 93 99 105 109 111 109 109 109 111 110 112 111 108 105 98 94 89 87 85 83 81 77 72 67 63 59 56 55 52 48 46 43 40 38 36 34 33
83 88 92 96 96 100 105 111 115 116 115 113 113 112 114 113 111 109 104 97 92 88 85 83 81 79 75 70 67 62 59 56 53 52 48 45 44 41 38 36 34 32 31
97 103 105 105 108 110 114 119 119 118 117 115 115 115 114 111 108 103 96 92 88 85 82 79 78 74 69 65 63 59 55 51 49 49 46 42 41 39 36 34 33 31 30
104 106 108 111 114 118 122 120 119 116 116 116 116 115 112 107 101 95 91 86 83 81 78 74 71 69 64 61 59 55 52 48 46 45 42 40 38 36 34 32 31 30 28
108 111 115 119 123 123 121 118 116 116 117 116 114 111 106 101 94 89 85 82 79 76 72 69 67 64 62 57 54 50 48 45 44 42 39 38 36 34 32 31 30 29 27
115 119 121 123 121 119 117 117 117 117 116 113 110 104 98 92 88 84 80 77 74 71 68 65 63 60 56 52 50 46 45 44 42 39 36 35 34 32 30 29 28 28 26
120 120 120 119 118 118 117 118 117 114 110 104 99 94 90 86 82 78 75 73 70 67 64 61 58 55 51 48 47 44 43 42 39 36 35 34 32 30 28 27 27 26 25

GFSGL_250_spd_066.txt.gz
Wind_Speed
40 41 43 47 43 43 42 42 49 55 56 60 62 63 65 68 70 72 74 78 81 86 89 89 94 96 101 104 107 109 111 114 113 112 115 119 122 128 128 127 126 127 123
42 41 40 45 34 42 56 57 58 58 60 62 63 64 65 67 73 77 79 81 86 90 93 96 97 99 102 105 106 110 113 115 116 115 117 121 125 129 128 129 129 129 121
35 39 39 43 46 51 53 55 58 59 60 63 65 66 66 68 71 76 80 82 85 88 90 92 96 98 100 104 107 110 113 115 119 121 121 122 124 126 130 129 128 123 115
38 40 39 42 50 52 54 54 53 52 53 56 57 61 63 65 66 68 72 75 79 83 87 90 93 97 100 104 108 111 114 117 121 125 125 125 125 127 128 127 124 116 108
40 40 42 43 47 51 49 50 50 51 52 54 55 57 60 62 65 69 72 75 80 84 87 90 93 98 101 105 109 113 117 121 123 126 127 129 129 129 128 125 122 112 105
44 45 48 47 47 50 49 50 51 52 53 55 57 59 62 65 68 72 75 79 81 85 87 91 96 100 104 110 112 116 118 121 121 124 123 125 127 128 127 121 115 109 101
50 49 47 48 50 52 52 53 54 55 57 59 61 63 65 68 71 74 77 79 83 86 89 91 99 105 110 114 119 120 120 122 124 126 125 125 125 125 122 116 110 102 94
53 53 52 50 52 53 53 53 56 59 61 63 65 67 70 72 74 76 80 83 85 88 93 99 104 109 115 120 119 118 119 120 121 124 127 126 124 121 117 110 100 94 89
53 53 53 53 54 55 57 59 61 62 64 65 67 69 71 72 78 82 84 88 92 96 101 105 110 113 118 119 117 119 117 117 121 125 127 126 121 117 111 103 96 89 82
56 55 54 55 56 58 60 62 63 63 64 66 70 74 76 77 79 86 90 94 97 101 105 109 113 116 114 117 120 118 116 118 120 121 123 121 116 110 104 98 91 84 76
49 49 53 56 58 59 59 58 60 65 69 73 76 78 80 81 85 92 97 99 100 103 108 111 110 111 116 115 114 116 118 118 118 119 117 114 108 102 96 91 85 81 74
52 53 55 56 56 59 61 66 67 70 73 77 81 82 84 88 92 97 101 102 105 108 109 110 114 111 107 109 113 116 117 117 115 112 109 106 102 96 88 82 79 77 71
55 56 57 59 61 63 65 68 71 75 79 83 86 89 94 97 98 98 100 105 106 107 109 109 105 106 108 110 115 118 116 113 110 106 104 100 94 89 84 77 71 67 65
57 58 59 62 65 67 69 74 77 80 84 88 91 93 96 97 99 100 100 100 102 103 104 106 107 109 111 113 115 114 111 107 103 100 97 92 86 82 77 71 67 60 57
62 64 67 68 72 73 75 77 79 81 85 87 90 93 95 96 98 99 99 100 102 108 108 108 109 110 113 113 112 110 106 101 96 91 90 86 81 77 71 65 62 58 55
63 61 62 63 65 67 73 76 79 83 83 79 81 87 89 93 96 96 100 105 109 112 111 110 111 112 112 109 106 101 99 95 90 84 84 82 75 70 65 59 56 54 51
63 61 62 66 67 66 74 80 84 82 83 89 93 94 99 102 101 103 108 110 114 114 114 114 114 112 108 104 99 95 93 91 85 79 77 75 69 65 59 56 53 51 47
68 69 71 73 75 78 78 82 87 90 93 91 95 100 103 111 111 114 120 121 119 118 116 116 111 108 103 98 94 91 90 86 83 77 68 66 64 59 55 52 50 47 43
72 74 77 82 86 90 94 93 87 86 93 100 104 105 109 116 121 124 124 121 119 120 117 113 108 102 97 94 91 88 86 82 76 71 66 63 61 55 51 48 47 44 40
76 80 83 87 91 93 92 93 98 104 109 112 116 119 124 125 125 124 122 121 119 116 111 106 101 97 93 90 87 84 80 75 70 66 63 60 57 52 47 44 43 40 37
80 81 82 83 87 94 99 102 106 112 118 122 125 127 128 126 126 124 123 120 116 110 104 99 95 93 89 86 82 78 73 70 65 62 59 54 52 47 44 43 40 37 35
87 88 91 96 99 103 105 110 115 119 122 126 128 127 126 125 124 123 121 115 110 104 98 93 89 86 83 81 76 73 69 65 60 56 53 50 47 42 42 40 37 35 34
89 92 97 101 104 108 111 114 120 125 129 130 129 127 125 125 123 119 114 108 102 97 93 89 85 82 79 75 70 67 64 58 54 51 48 46 44 40 39 37 35 34 32
96 99 103 107 111 116 117 120 125 127 128 127 124 125 125 122 115 110 105 100 95 92 88 84 80 77 74 69 64 60 56 53 50 47 45 43 40 39 37 34 33 32 30
103 106 111 115 118 120 123 125 127 127 125 125 125 123 117 112 108 103 98 95 92 88 84 79 75 71 67 63 59 56 53 50 47 45 42 40 38 37 34 32 31 30 29
108 113 116 119 120 121 123 126 126 124 124 123 119 114 109 104 99 95 92 89 85 81 77 73 69 66 63 59 55 51 48 46 43 42 40 37 36 34 31 30 29 28 27

GFSGL_250_spd_069.txt.gz
Wind_Speed
24 28 27 27 28 20 18 23 36 33 49 53 58 62 66 73 76 75 76 76 77 78 80 81 84 87 91 92 92 93 95 98 99 103 105 109 111 119 123 126 131 126 125
32 29 32 28 20 26 31 25 61 59 59 64 72 73 78 78 78 74 74 75 77 75 76 78 79 80 83 86 90 93 97 100 99 101 104 111 117 121 124 128 127 127 127
25 24 24 26 44 37 42 51 62 67 64 68 75 76 77 72 69 68 68 68 69 70 71 74 78 81 85 89 92 94 97 101 104 105 107 113 120 125 127 124 124 127 124
39 38 36 43 46 50 57 64 69 72 74 73 71 74 72 67 65 65 65 67 69 71 73 77 79 82 85 88 92 94 98 103 108 111 115 118 122 121 122 126 124 124 123
51 47 50 51 53 59 65 71 73 76 73 72 72 71 67 66 66 66 69 70 71 72 75 79 82 85 86 89 93 98 103 107 109 111 115 113 115 122 125 123 123 124 120
50 52 57 58 63 65 68 71 73 74 74 71 68 66 65 65 66 69 70 71 74 77 78 82 85 89 91 92 95 101 105 107 111 111 114 117 116 115 119 124 123 124 122
43 49 55 58 60 61 62 62 59 59 62 64 64 64 65 68 70 71 73 74 75 79 83 86 91 94 95 99 102 106 108 112 114 116 116 116 115 118 119 122 123 122 115
42 48 52 56 59 61 61 59 57 58 60 63 65 65 66 69 71 70 74 77 80 85 87 91 93 97 99 99 101 104 106 109 111 112 115 115 116 118 121 121 119 114 106
40 42 45 49 54 55 58 60 60 60 62 63 63 64 64 66 69 75 80 81 85 87 92 95 97 97 101 101 100 103 104 107 110 110 112 116 119 119 119 118 114 106 98
47 46 47 50 50 51 53 52 53 55 58 60 62 65 69 72 77 80 83 87 87 90 91 94 97 98 101 104 105 102 101 104 104 108 114 117 119 118 115 112 105 99 92
53 54 55 55 55 55 55 56 57 59 62 65 68 71 74 76 80 84 86 87 86 87 89 93 95 94 96 98 104 107 104 105 108 113 114 114 113 111 107 104 98 92 86
58 59 61 59 58 59 60 60 63 66 68 69 71 73 77 79 81 83 86 86 87 85 87 93 99 98 98 103 104 104 108 113 113 114 112 111 107 102 100 96 92 86 81
64 65 66 63 65 66 62 62 65 68 71 74 75 73 71 74 76 83 87 89 90 90 94 96 99 99 100 101 106 111 114 117 117 114 110 106 100 96 94 89 85 82 76
69 72 73 68 72 74 71 67 64 64 66 66 68 72 72 77 81 83 87 92 92 93 96 100 99 103 105 109 116 119 120 119 114 109 103 100 96 92 88 84 79 74 69
73 76 77 74 78 81 77 70 67 68 70 73 75 79 81 85 92 91 94 90 88 89 104 108 111 115 117 120 121 121 122 118 112 106 100 95 92 89 83 79 72 66 63
78 80 81 82 82 84 77 73 71 72 75 78 82 86 90 92 96 97 91 89 94 102 107 115 121 120 121 121 120 120 116 112 106 102 94 89 87 85 76 73 65 61 59
82 85 86 86 88 88 78 75 74 75 77 80 83 86 89 91 90 88 96 103 108 113 117 123 124 124 122 122 117 113 109 105 99 95 92 86 80 79 73 65 63 58 55
85 89 92 90 92 88 80 76 77 80 84 86 89 89 93 95 98 103 108 113 119 122 123 124 126 124 121 117 112 108 102 96 93 90 88 83 76 70 67 61 57 56 51
89 93 94 93 95 88 81 79 80 85 87 89 89 92 99 104 109 115 117 121 125 126 128 130 127 123 118 112 106 99 95 91 86 84 82 78 72 65 60 55 52 51 47
96 98 97 99 97 89 85 85 87 90 91 95 99 102 106 110 116 119 123 125 128 128 127 124 122 116 111 105 98 94 90 86 81 78 74 69 64 59 54 50 47 46 44
99 99 101 103 98 93 91 91 93 94 97 102 106 110 115 118 120 124 126 129 129 126 123 120 113 108 103 98 94 90 85 80 75 70 67 62 57 54 50 47 44 43 41
103 102 104 104 98 94 93 93 96 99 105 110 114 116 118 122 126 128 129 128 126 122 118 110 106 102 98 94 89 84 79 74 68 65 62 58 53 49 47 43 42 41 38
105 106 107 104 99 96 96 99 103 107 111 113 116 121 124 128 128 127 125 122 119 114 110 104 100 95 92 87 81 75 72 68 63 60 57 53 49 46 44 41 40 39 35
107 108 105 102 99 100 101 104 107 110 113 117 123 126 128 127 125 122 120 117 112 108 102 97 92 89 85 79 74 69 65 61 58 55 52 48 45 43 40 38 37 36 33
111 110 107 105 103 103 106 109 113 116 120 123 124 125 124 121 119 116 111 107 103 99 94 89 85 81 76 70 66 63 60 57 54 51 48 44 41 39 37 36 35 33 31
110 108 106 104 104 107 111 114 117 121 122 122 120 119 118 115 110 106 102 98 94 90 86 81 77 72 68 64 61 57 55 52 50 46 43 41 38 36 34 34 32 31 30

GFSGL_250_spd_072.txt.gz
Wind_Speed
22 22 15 15 16 22 25 23 31 33 33 40 42 51 65 66 67 72 77 77 80 84 88 87 84 83 81 82 82 81 82 83 83 88 92 97 100 103 105 110 114 113 114
23 23 22 20 19 13 19 34 38 44 44 48 59 60 61 69 74 74 81 82 87 87 85 82 81 79 79 79 81 82 84 87 90 90 94 98 102 106 110 110 111 111 112
25 31 34 31 29 29 39 40 45 56 57 62 68 72 71 72 74 81 85 90 90 87 85 85 83 80 80 81 83 86 90 92 95 96 96 98 103 107 107 108 111 114 116
34 41 40 34 34 39 42 56 64 65 64 66 69 76 80 81 85 92 93 92 89 90 87 84 82 83 85 86 88 91 94 96 98 98 98 99 101 103 107 110 112 116 115
40 44 41 44 45 48 51 59 65 68 70 72 75 83 88 90 94 94 92 94 92 87 83 82 87 87 87 88 90 95 98 98 96 95 94 96 100 104 109 111 113 118 117
39 47 51 51 54 59 66 69 73 77 79 82 83 87 90 91 90 87 89 84 83 84 86 86 86 87 89 90 96 95 96 94 90 91 95 99 100 103 104 104 107 106 110
23 29 35 44 53 60 65 70 74 79 84 87 89 87 89 90 88 84 81 82 83 84 86 88 88 88 91 95 94 91 91 89 89 94 98 103 106 110 112 112 111 112 113
29 29 30 33 37 42 46 51 54 58 61 65 70 74 78 80 82 84 84 86 87 87 87 87 90 92 91 87 86 89 91 97 98 102 106 106 107 107 110 111 113 114 113
33 33 35 35 35 37 39 45 49 51 55 58 62 67 71 74 76 79 80 82 85 86 89 89 88 86 84 87 91 93 92 97 101 103 104 113 116 113 118 116 117 114 109
40 41 41 43 43 44 48 52 53 54 55 57 59 62 66 72 74 76 79 80 81 81 83 78 78 83 85 91 93 94 95 100 104 106 111 120 119 118 119 119 114 108 105
45 47 48 49 50 51 54 59 61 61 63 64 63 64 65 68 71 74 76 77 77 76 80 83 85 90 94 98 99 100 94 88 93 100 105 112 116 116 116 114 109 104 99
50 54 56 56 57 59 62 65 67 70 73 72 72 71 69 67 69 72 73 74 76 81 85 89 92 95 96 96 93 91 91 93 102 110 112 113 115 116 112 108 102 98 95
58 58 60 64 64 65 68 70 72 73 78 78 78 79 74 71 71 73 75 78 82 86 89 89 91 93 97 99 97 99 99 110 112 114 116 116 112 109 105 100 96 93 92
64 64 65 69 69 71 73 75 76 79 82 82 82 84 80 75 73 71 73 75 80 84 88 91 93 95 96 94 97 99 111 112 115 118 115 112 108 103 100 95 91 88 86
68 69 71 74 75 78 78 79 81 85 87 87 87 89 87 79 75 75 77 80 84 88 92 93 94 94 96 102 107 113 117 119 121 119 115 110 104 97 96 93 87 82 80
71 74 76 76 80 83 86 85 86 90 92 92 93 92 91 85 82 82 84 87 90 91 95 94 95 101 106 112 116 120 123 125 122 119 115 108 101 94 91 88 83 77 74
76 78 79 84 85 87 89 88 92 94 96 97 97 97 97 92 89 87 88 90 92 95 96 99 105 111 114 117 119 122 124 123 117 114 106 102 97 92 83 81 78 67 68
79 82 86 89 89 91 92 93 96 100 100 102 101 101 100 96 92 91 93 95 96 99 103 108 112 115 117 120 122 122 121 117 111 104 98 94 90 85 79 73 71 66 60
83 88 90 93 93 95 96 100 101 104 106 106 104 104 103 101 99 99 98 100 103 107 111 115 118 119 121 122 121 118 114 109 101 96 92 87 82 78 75 68 65 62 56
89 92 95 96 96 98 100 103 107 108 109 109 108 108 104 102 101 100 102 105 109 112 115 119 121 121 121 120 117 113 106 100 94 89 84 80 77 72 69 65 59 56 52
94 97 98 98 99 102 106 110 110 112 112 111 110 109 107 104 103 104 107 110 113 117 119 121 121 119 118 112 106 100 96 92 87 83 79 74 69 65 62 59 54 52 48
97 99 100 102 104 108 111 112 114 115 113 114 112 111 109 107 109 111 113 116 118 119 120 118 116 113 107 101 96 92 89 85 82 77 72 68 64 60 57 54 50 47 45
100 102 104 106 110 113 115 117 117 116 116 115 113 112 111 112 114 115 117 117 119 118 116 112 108 101 97 93 89 84 80 78 75 70 66 61 58 55 52 49 47 43 42
104 106 109 112 115 118 118 119 119 117 115 114 113 113 114 116 116 116 116 116 114 111 108 101 95 92 89 85 81 77 73 70 67 63 59 55 53 51 48 45 43 41 40
108 111 113 117 119 117 121 118 116 114 113 113 114 115 115 116 116 115 113 110 105 102 97 93 88 84 81 78 74 70 67 63 60 57 55 52 50 48 45 42 40 39 37
112 115 118 118 119 120 115 114 113 113 114 115 115 116 115 112 110 106 101 98 95 91 89 84 81 78 75 71 67 63 60 57 55 53 50 48 45 43 41 39 37 35 33

GFSGL_250_spd_078.txt.gz
Wind_Speed
22 23 25 26 29 32 34 37 37 42 40 42 41 40 41 44 42 45 51 52 56 60 61 62 68 80 89 90 88 89 96 101 106 108 110 109 106 104 100 100 95 94 97
31 29 31 34 34 36 36 39 36 38 41 42 44 47 47 51 50 53 58 55 57 59 62 67 80 84 85 91 97 102 108 109 112 107 104 100 99 95 93 95 95 97 98
35 35 35 37 39 43 39 38 36 37 40 44 44 47 45 53 55 56 56 56 66 69 75 81 85 89 97 103 107 110 110 110 100 93 93 89 87 95 93 96 97 99 95
26 37 39 39 39 40 38 36 38 39 41 46 48 51 54 55 57 56 61 65 71 76 80 87 93 97 95 97 93 93 94 95 91 90 91 91 93 93 94 94 95 96 94
12 23 35 44 42 42 42 40 41 44 46 49 54 56 57 58 61 64 70 75 78 78 80 80 81 76 75 78 81 82 83 86 88 89 91 92 93 95 97 97 95 90 94
17 15 15 20 29 39 42 45 46 48 51 55 59 61 62 64 67 65 61 61 59 60 59 64 66 67 70 73 73 72 74 78 82 86 90 94 95 96 96 95 94 95 97
20 20 18 19 22 25 27 31 35 39 42 45 48 49 49 50 54 55 56 58 58 59 61 65 67 69 72 77 78 77 77 76 77 82 86 90 92 95 95 96 97 98 100
26 27 29 28 26 27 29 31 32 34 37 39 42 45 48 50 53 55 57 58 58 61 64 67 70 72 76 81 82 83 82 80 79 81 83 88 91 96 97 97 98 100 104
31 30 32 33 34 36 39 41 41 42 43 46 47 48 51 54 58 59 61 62 62 66 69 73 73 75 79 83 87 89 88 87 86 87 87 89 91 95 98 99 103 103 102
36 35 36 36 38 40 41 44 45 48 50 52 54 56 58 60 62 64 67 67 66 70 75 77 78 80 83 86 90 93 95 96 93 92 93 93 94 96 98 99 100 100 101
43 42 43 44 45 46 49 51 50 51 53 55 57 59 61 64 65 67 70 70 73 77 80 82 83 85 88 91 95 99 101 102 102 99 99 100 100 100 101 102 103 104 106
49 48 52 53 54 55 56 57 59 59 59 61 61 63 66 67 69 72 74 74 79 83 86 87 88 89 92 96 100 102 106 107 107 105 104 102 101 102 102 104 106 107 108
54 54 56 58 59 60 62 63 65 67 66 66 67 69 71 73 75 77 76 78 84 90 90 92 93 95 98 101 104 107 111 112 111 109 107 105 104 103 103 105 108 109 105
60 59 62 65 65 66 67 68 70 72 73 73 73 74 77 79 81 79 78 83 91 93 95 96 98 100 103 106 108 112 116 116 115 112 109 108 107 106 108 109 107 105 105
65 65 68 69 70 70 73 75 75 76 78 79 78 79 81 85 82 82 84 90 96 97 98 100 101 104 108 111 113 115 118 118 117 114 112 111 109 110 110 108 107 107 105
70 73 74 73 74 76 78 81 79 80 82 83 83 86 87 89 86 86 91 97 99 100 102 104 106 109 112 115 117 120 120 121 119 116 114 112 111 110 110 111 107 102 98
78 81 80 78 80 83 84 84 85 86 88 87 88 90 93 94 91 93 98 103 105 108 109 111 114 116 118 120 123 122 122 121 118 115 113 112 111 111 107 104 102 98 94
85 84 82 82 85 85 88 89 91 92 93 93 94 94 95 96 98 103 107 110 113 115 116 119 121 121 122 125 123 123 120 117 115 115 113 112 109 105 103 99 95 91 87
85 85 85 88 88 94 92 94 95 97 96 95 96 97 100 104 108 110 113 115 118 121 123 123 121 124 126 124 123 119 117 117 115 112 110 106 101 97 93 89 87 84 80
88 90 93 95 98 99 99 101 101 101 99 99 101 104 107 110 113 114 118 120 122 123 124 123 127 127 125 122 118 117 115 114 110 105 101 96 93 89 84 80 79 76 73
95 98 101 102 104 105 105 106 103 101 102 105 110 110 114 118 118 119 119 121 122 122 124 126 125 122 118 116 114 112 109 104 100 96 93 90 86 82 77 74 72 68 65
101 105 108 107 107 108 107 106 104 106 109 111 113 117 122 124 123 121 121 121 122 124 122 120 117 115 114 112 108 103 99 96 92 88 85 83 79 74 71 68 65 61 59
107 107 107 109 108 107 108 107 109 111 113 117 121 125 126 123 121 121 121 122 120 117 114 112 112 111 107 102 98 94 91 89 86 81 79 76 71 67 64 63 59 55 53
106 108 109 109 109 109 110 111 114 118 122 125 128 127 123 121 121 121 119 115 113 111 111 109 105 100 97 94 91 87 83 80 77 75 72 68 63 61 59 56 53 52 48
109 109 110 111 111 113 116 119 123 125 126 129 125 121 120 121 118 114 112 110 109 106 103 98 93 91 89 86 83 80 76 73 70 68 64 61 59 56 53 51 49 46 44
110 112 114 115 117 120 123 125 126 127 123 120 119 120 116 113 111 108 107 104 100 96 93 90 88 85 82 79 76 73 69 67 64 61 59 56 53 52 48 45 43 41 39

GFSGL_250_spd_081.txt.gz
Wind_Speed
18 22 25 29 34 39 43 45 47 45 46 46 45 48 48 48 44 47 48 50 53 51 54 57 55 58 62 62 57 65 72 86 85 78 82 83 87 89 89 88 88 90 89
24 25 26 28 30 33 37 41 42 42 41 42 42 44 45 42 43 47 49 48 50 54 57 58 58 59 66 64 71 72 81 71 68 71 74 76 77 77 80 82 84 87 90
17 25 30 35 37 38 40 41 40 39 40 42 43 44 43 44 47 47 47 51 54 58 56 56 62 64 70 72 67 65 62 65 65 68 70 72 75 76 79 80 80 83 88
12 13 21 25 30 38 41 38 35 36 42 41 43 44 45 46 49 51 53 55 57 58 61 60 54 51 53 57 60 62 65 66 67 70 72 74 77 79 80 81 82 83 84
14 15 16 17 23 27 29 32 33 32 33 37 40 44 46 49 52 54 54 50 51 53 53 54 57 59 62 63 62 66 68 69 70 72 74 76 79 82 83 83 83 84 86
19 18 20 19 19 18 21 24 28 30 32 33 36 38 40 42 44 45 46 48 50 53 56 58 59 60 63 62 63 65 69 71 73 76 78 79 83 86 87 87 89 90 87
23 23 22 22 23 24 25 24 25 27 30 32 35 36 38 42 44 45 48 49 52 55 58 61 63 65 66 67 67 70 73 75 77 79 82 84 87 89 92 94 95 95 95
28 27 26 27 29 28 28 29 31 33 36 38 40 43 46 49 52 54 56 57 59 62 64 66 68 69 72 74 73 72 77 80 82 85 87 89 91 94 97 99 100 100 101
33 31 31 29 30 31 32 34 35 38 39 41 42 44 48 51 54 57 60 63 65 66 69 71 71 74 79 80 79 78 82 85 87 89 91 93 96 99 102 105 105 106 105
41 41 40 39 39 40 40 41 42 42 44 45 48 50 52 54 57 59 62 65 68 71 71 72 75 79 83 82 79 82 87 90 91 93 95 98 101 105 108 111 110 109 109
45 47 48 48 47 47 47 50 50 48 49 52 54 56 58 60 62 65 68 70 73 73 73 75 78 80 81 80 81 84 90 93 96 98 101 104 108 111 114 116 115 114 114
52 53 54 55 54 53 54 55 58 58 59 61 63 64 64 66 69 71 72 74 76 78 78 81 84 87 86 86 86 90 97 100 103 105 108 110 114 116 118 118 119 118 117
55 54 55 57 64 63 60 62 62 66 67 68 70 70 70 73 76 78 78 79 81 82 84 87 89 87 88 92 94 97 101 105 109 110 112 115 119 120 121 122 122 121 116
67 67 67 69 69 67 67 67 71 73 74 76 76 76 79 81 83 84 85 86 87 88 89 91 90 92 95 97 98 102 105 109 113 113 117 121 123 123 123 123 121 118 115
71 72 74 75 75 73 72 74 78 78 80 83 84 83 84 88 89 90 93 92 94 95 97 96 97 99 99 102 106 110 112 114 116 119 124 125 125 124 124 122 118 115 113
78 80 78 78 78 79 81 83 86 86 87 88 89 89 90 94 94 96 97 100 102 103 102 102 104 104 105 108 115 117 118 120 123 127 128 127 126 124 122 117 116 114 112
86 86 85 85 83 83 83 85 90 91 91 94 95 96 97 100 98 100 105 107 109 108 106 107 107 109 114 118 122 124 124 128 130 130 128 127 124 119 115 116 112 109 105
86 86 88 87 86 86 88 91 92 92 95 95 96 99 100 101 105 110 114 112 114 111 110 110 112 117 122 125 128 128 130 132 130 127 124 120 117 115 113 110 106 100 98
86 86 88 87 87 88 90 92 94 96 99 98 101 102 105 110 114 118 116 118 117 113 113 115 120 125 128 131 129 131 130 127 124 120 117 116 113 109 106 100 96 92 89
89 91 92 92 93 95 96 97 99 100 103 104 105 109 114 118 120 118 119 119 115 116 119 122 128 130 130 129 129 128 124 120 116 115 112 108 105 100 95 91 88 83 81
94 94 96 97 97 99 100 102 105 108 108 110 114 116 117 116 118 121 118 118 119 121 124 130 129 128 127 126 121 116 115 114 111 107 104 99 95 91 87 83 79 76 73
94 97 98 100 103 105 106 108 110 112 115 115 115 116 118 120 120 118 120 121 122 125 127 125 124 123 120 116 114 112 109 105 101 96 93 90 86 81 78 75 71 68 65
98 99 100 101 103 105 107 110 113 114 115 117 119 120 122 121 121 122 122 123 124 123 121 119 117 114 112 110 105 101 97 94 92 89 85 81 77 74 71 68 64 60 57
103 104 105 106 107 109 110 112 115 118 120 121 121 121 122 122 122 123 122 122 121 117 116 112 110 109 106 101 95 91 88 86 83 79 76 72 69 67 64 60 57 55 52
108 109 110 111 112 114 116 117 118 119 118 121 121 121 123 122 119 120 120 116 115 112 110 107 103 99 94 90 87 83 80 77 75 72 69 66 63 60 57 54 51 49 48
114 115 116 117 119 120 121 121 120 121 121 120 122 119 117 118 117 113 112 110 108 105 101 96 92 88 85 82 79 76 74 71 68 66 63 60 58 54 51 49 47 44 42

GFSGL_250_spd_084.txt.gz
Wind_Speed
26 34 41 40 42 44 44 45 47 50 51 51 53 53 54 56 55 56 59 57 50 47 48 51 53 55 57 57 55 53 55 60 64 61 63 63 64 71 74 75 78 79 79
25 26 28 35 42 49 50 51 52 53 52 51 52 52 54 56 58 54 53 50 51 50 49 48 54 59 61 58 52 53 59 66 68 61 65 65 69 73 72 73 76 79 80
6 13 23 30 34 35 37 39 43 44 46 46 45 47 52 51 51 50 52 53 52 56 59 59 59 57 51 52 53 54 56 62 67 65 67 70 69 71 73 74 76 79 81
7 6 4 9 19 26 30 34 36 34 36 36 37 42 46 51 53 54 55 50 49 54 54 49 47 50 50 53 57 60 61 63 68 72 74 74 77 78 77 78 80 83 85
12 10 11 12 12 11 10 17 24 23 29 33 35 38 38 39 38 39 42 44 44 45 46 47 49 51 52 54 59 64 66 70 72 74 76 79 82 82 82 81 83 86 87
21 17 17 16 16 18 19 18 17 16 15 17 19 22 25 29 33 36 38 41 43 46 48 52 55 58 61 64 67 69 71 73 74 76 80 82 86 85 83 79 83 86 89
28 26 24 23 22 22 22 23 23 22 23 25 27 29 32 35 38 41 44 46 48 50 52 55 57 60 64 66 69 71 71 73 75 77 79 82 82 82 82 84 89 91 93
35 33 30 28 28 28 28 28 27 29 29 30 32 34 37 39 41 42 45 46 48 50 53 56 59 61 64 67 70 72 75 78 81 83 84 84 84 87 91 92 94 98 99
41 40 37 35 33 34 34 34 34 35 36 37 38 40 41 43 45 47 49 52 55 57 59 61 64 67 69 71 74 76 79 82 86 88 88 86 89 91 91 94 98 101 102
44 45 43 41 39 41 42 44 45 45 46 46 48 50 52 51 52 55 57 60 61 64 67 69 72 75 76 77 80 82 84 86 89 91 91 92 96 96 97 100 103 106 108
51 46 48 45 45 46 47 49 51 53 54 55 57 57 58 60 62 64 67 68 72 73 74 77 80 82 84 85 87 89 92 93 95 97 98 100 102 102 103 107 110 113 115
57 54 47 53 54 52 52 53 56 58 60 63 65 65 65 66 68 70 71 74 78 81 82 85 86 89 90 91 92 96 99 99 102 105 105 106 106 106 110 113 116 119 122
61 57 56 54 53 55 57 61 66 70 72 71 71 72 72 74 75 77 79 81 83 87 89 91 94 95 96 97 98 101 104 107 110 113 113 113 111 113 116 119 122 125 124
62 66 68 69 72 73 75 77 79 76 76 76 77 78 80 83 84 85 86 87 89 92 93 96 98 98 101 102 105 108 111 115 116 118 119 115 116 118 121 124 126 128 131
70 67 66 69 71 73 74 76 79 78 80 82 82 81 83 85 88 91 92 93 95 96 98 101 102 104 107 108 111 114 121 119 121 123 120 120 121 122 126 129 130 132 131
76 75 76 77 78 78 81 83 84 84 83 88 90 89 90 93 95 96 97 98 99 101 102 105 108 110 112 115 119 123 121 124 124 123 123 124 125 128 131 132 133 127 124
79 81 83 85 84 80 82 86 90 88 91 94 97 96 96 98 100 100 102 104 105 106 108 111 113 114 118 122 125 125 127 127 128 124 125 127 130 131 131 127 123 121 120
84 82 85 87 88 90 92 94 97 97 97 97 97 99 100 100 102 107 109 110 111 111 114 115 116 120 124 127 128 129 129 128 125 125 129 130 128 125 122 121 119 118 114
81 82 84 87 91 92 94 95 98 99 100 99 101 103 104 105 106 109 111 113 115 115 118 121 123 124 127 129 129 129 128 126 127 129 128 125 121 120 119 116 111 106 101
84 84 87 88 90 91 92 93 95 98 100 103 105 107 108 108 109 111 113 114 116 118 120 121 125 127 128 127 126 124 125 127 126 123 120 119 116 114 109 104 100 97 94
92 93 92 92 95 95 97 99 101 104 105 107 110 110 111 112 114 115 116 118 120 122 123 125 126 127 123 122 122 123 124 122 119 117 114 110 105 102 98 95 91 88 84
97 99 101 100 100 102 104 106 108 109 110 110 113 114 115 116 117 119 121 123 124 124 123 125 124 121 121 120 121 120 117 116 112 108 103 98 95 93 90 86 82 78 74
102 104 105 106 107 108 109 110 111 112 113 115 117 118 120 121 123 123 123 122 122 125 123 120 120 119 117 116 115 113 110 106 102 97 94 90 87 84 81 77 73 69 66
106 107 108 109 110 110 111 112 114 116 117 118 120 121 123 120 120 123 120 119 122 120 120 118 115 114 112 111 108 104 100 96 92 89 85 83 80 75 71 69 65 63 60
108 109 110 112 113 113 114 116 117 118 120 119 120 119 120 124 118 118 119 115 116 116 112 111 111 109 106 102 98 94 90 87 84 82 78 74 70 68 64 62 59 56 52
100 103 107 111 113 114 115 115 116 117 119 119 118 119 114 112 114 113 113 113 109 109 108 107 104 101 95 91 88 85 82 80 77 74 70 66 64 61 59 56 53 50 48

GFSGL_250_spd_087.txt.gz
Wind_Speed
18 33 38 41 50 55 52 54 51 54 52 56 55 55 59 60 59 57 61 62 62 64 66 66 65 65 67 63 63 59 65 71 61 52 56 58 58 65 68 72 72 74 73
16 21 36 44 44 44 48 49 56 55 57 58 59 63 59 54 57 60 64 65 61 59 62 65 66 66 62 60 63 65 61 56 54 55 61 64 66 68 69 71 73 75 78
11 13 25 29 35 46 47 45 49 51 53 55 52 55 58 59 59 60 60 60 61 61 60 63 62 58 59 60 62 59 53 56 59 61 62 65 67 71 73 74 74 76 78
16 13 12 14 24 34 37 41 47 54 58 59 61 64 62 58 54 55 56 56 58 59 58 61 61 62 58 50 51 53 56 59 62 63 65 67 69 72 74 77 78 80 83
21 20 17 16 13 13 15 18 24 33 38 42 45 47 50 53 52 53 54 51 50 49 49 46 45 46 48 50 52 53 56 59 62 65 67 69 71 72 75 78 80 84 87
29 27 25 23 22 20 19 19 19 20 20 21 25 32 34 36 37 36 34 37 37 37 39 42 43 45 46 49 51 54 56 59 63 66 68 70 72 75 78 81 81 84 87
39 33 33 33 30 29 27 26 25 25 25 25 25 27 29 30 33 33 35 35 37 38 39 42 45 48 51 54 57 61 63 67 70 73 76 79 82 84 85 88 89 91 94
43 43 42 41 38 36 35 33 32 32 33 32 32 33 34 35 36 38 41 43 45 47 48 49 54 55 59 63 66 69 72 76 79 81 85 88 88 91 91 95 97 99 101
43 43 42 39 39 43 41 40 38 38 39 40 40 41 42 43 46 48 51 53 54 55 57 60 63 65 66 69 72 75 77 81 84 87 91 93 94 96 98 100 103 106 109
51 45 45 48 47 45 43 47 48 46 44 45 46 48 49 50 53 57 59 62 59 63 65 67 69 72 73 78 80 82 84 87 90 92 95 98 100 102 105 107 109 113 115
57 53 52 47 51 52 48 48 48 54 50 51 53 52 54 55 60 65 70 68 67 69 70 72 75 79 81 83 87 89 91 93 96 99 101 103 103 106 109 112 115 118 124
67 65 60 55 53 54 57 56 52 51 57 58 58 61 64 66 69 73 76 77 76 77 79 80 82 83 85 89 92 94 97 99 101 104 105 107 109 112 114 117 120 125 129
63 65 61 59 60 61 61 64 68 69 69 70 73 69 70 73 77 77 78 82 84 86 87 87 88 92 96 99 101 101 103 104 108 110 110 111 114 116 119 122 124 128 129
56 57 62 65 63 61 60 61 65 66 67 71 73 75 79 80 81 81 83 85 86 88 91 94 97 101 103 105 106 108 109 109 112 114 115 116 117 120 122 125 127 128 128
66 65 66 64 66 67 66 69 72 70 71 72 75 79 82 86 87 89 90 90 92 95 98 101 103 103 104 106 107 110 113 114 115 118 119 119 122 125 127 128 128 128 126
78 78 77 75 75 75 77 77 79 80 84 85 86 88 90 93 95 95 95 95 98 101 104 105 105 106 108 111 113 115 115 117 118 119 121 125 126 126 127 129 127 126 125
77 84 84 84 84 85 87 86 87 87 88 91 92 93 96 98 99 105 106 106 108 108 107 108 109 109 114 116 116 117 119 120 122 125 128 128 125 125 125 124 125 123 123
60 68 78 84 85 85 88 89 93 91 90 92 95 97 100 102 103 105 108 107 108 112 113 114 117 120 121 121 122 122 125 127 129 130 128 125 125 123 123 122 122 121 120
71 75 78 80 82 86 88 89 92 94 96 96 98 99 100 101 103 105 106 110 111 114 116 121 123 126 127 128 129 130 131 131 131 127 125 122 122 122 121 121 119 117 111
75 79 84 82 74 74 88 92 95 96 96 97 99 99 101 103 105 109 112 114 116 120 124 126 128 128 130 131 131 131 131 131 125 123 123 123 120 119 119 116 110 104 100
86 87 89 91 92 94 96 96 96 98 99 100 100 104 108 111 112 115 118 121 124 128 130 131 131 131 130 132 133 132 129 122 123 123 121 118 118 115 111 104 98 95 91
96 97 98 97 98 100 103 104 106 107 108 111 112 114 116 119 121 123 126 128 130 131 131 133 132 133 133 130 128 124 122 122 121 118 116 114 110 105 99 96 92 86 82
101 104 106 106 108 110 110 112 114 115 117 118 120 122 124 125 126 128 129 128 130 132 131 131 130 127 125 124 122 121 119 117 116 112 108 104 97 95 91 86 82 78 74
101 102 105 108 111 113 115 117 119 120 122 123 123 124 127 128 128 128 128 127 127 129 127 122 122 123 120 120 117 115 115 111 107 102 96 93 89 86 82 77 74 71 68
101 104 106 108 109 112 115 116 117 118 119 121 121 122 125 124 123 124 124 123 120 120 120 118 116 115 112 111 111 109 105 99 94 91 87 84 81 78 74 71 68 65 61
98 101 102 103 104 106 108 111 113 114 114 116 118 118 118 116 117 118 115 114 116 115 111 110 109 107 107 105 102 97 91 89 86 83 80 77 74 71 69 65 62 59 55

GFSGL_250_spd_090.txt.gz
Wind_Speed
16 16 27 46 47 54 56 51 53 57 59 61 60 61 66 66 67 67 64 65 66 68 70 69 66 66 70 71 75 73 69 70 66 65 63 65 63 59 58 58 62 64 64
16 16 18 26 44 45 48 54 56 56 57 56 63 64 65 64 62 62 65 67 65 66 71 68 66 69 74 74 74 70 71 69 66 65 58 55 56 57 58 58 59 62 63
15 17 17 16 23 35 45 48 45 53 57 54 55 55 55 58 58 60 62 63 65 66 66 70 72 75 75 70 67 67 65 65 59 55 54 54 54 54 56 59 63 65 68
25 18 19 19 15 16 30 40 47 46 47 53 55 55 57 59 62 63 63 64 67 71 73 74 75 75 71 66 59 57 55 55 55 51 51 54 58 60 63 66 68 71 75
35 30 22 21 24 20 17 17 24 37 47 53 57 57 58 60 61 62 65 69 71 74 76 74 61 58 53 50 50 52 53 52 54 54 56 62 64 67 70 73 76 79 80
27 40 33 28 26 26 26 24 21 20 20 25 30 35 39 45 51 56 59 60 59 58 56 49 43 44 47 50 51 53 55 58 60 64 67 67 71 75 78 81 83 85 87
45 33 36 39 35 32 29 31 31 30 29 28 28 29 29 31 34 34 35 36 37 39 41 43 45 49 54 55 57 59 64 66 68 70 73 75 79 80 83 87 88 91 93
45 49 45 36 41 43 41 38 38 37 36 36 36 35 34 35 38 38 40 40 42 45 48 51 54 56 58 58 60 63 66 70 72 75 80 82 83 87 92 94 96 98 101
53 52 52 53 47 39 44 48 45 43 43 44 43 44 43 43 44 45 47 49 50 53 54 52 56 59 60 61 64 68 71 73 77 81 84 86 90 95 99 99 101 103 103
56 54 51 53 54 54 46 48 43 42 43 45 47 46 50 51 51 51 54 55 56 58 62 64 67 68 68 68 70 74 78 82 86 89 91 94 97 100 101 103 105 105 108
58 60 60 62 64 61 59 53 49 51 52 53 52 51 53 51 53 58 62 63 64 66 71 74 77 79 80 78 81 84 86 91 93 95 97 100 104 104 105 106 109 113 115
70 66 67 65 67 69 64 60 58 59 59 62 63 64 64 64 65 65 68 70 72 74 77 79 80 83 84 85 88 91 94 97 99 101 103 107 107 109 109 110 113 114 116
77 70 68 64 65 72 71 67 66 62 64 64 64 66 66 67 69 72 72 73 77 80 83 84 85 87 88 90 95 99 101 103 104 107 110 111 110 112 114 114 117 119 120
67 66 65 68 64 62 68 71 72 72 69 69 68 70 71 72 72 75 77 80 83 86 89 92 93 95 98 101 103 104 106 110 112 113 114 113 114 114 118 122 124 125 125
61 62 62 59 60 56 60 63 70 71 72 71 73 76 77 79 81 84 88 90 91 93 96 99 100 101 106 109 112 113 113 114 117 116 116 119 122 123 128 130 131 132 130
49 56 59 57 58 60 65 70 70 70 71 74 76 79 82 85 87 89 91 92 95 96 96 100 107 108 111 114 116 118 120 120 121 120 123 127 130 133 135 136 135 133 129
42 49 52 63 65 72 75 77 80 84 85 80 85 87 87 86 89 93 96 97 97 102 106 106 109 112 113 117 120 121 123 123 125 128 131 136 138 140 139 137 134 132 129
50 45 48 50 58 66 70 74 80 86 83 85 90 93 93 98 91 102 106 106 106 107 108 112 115 117 119 120 122 124 124 128 130 134 139 141 142 140 138 133 128 125 125
62 61 53 56 63 62 62 63 68 68 72 76 91 93 93 93 96 101 106 109 113 116 115 117 118 120 122 121 123 127 130 134 139 142 144 143 138 135 129 128 126 126 122
74 73 63 70 81 82 78 77 84 85 87 92 90 95 101 102 102 102 104 108 113 119 121 121 121 122 123 126 129 135 140 142 143 142 137 136 131 128 125 122 122 118 115
76 68 73 88 90 87 84 84 87 92 95 98 101 105 106 106 108 110 113 115 119 123 126 128 129 130 133 136 139 141 141 138 136 134 132 129 129 122 120 118 114 108 103
76 79 86 90 91 91 91 92 94 95 98 102 107 112 115 117 118 119 122 124 128 131 131 133 135 136 137 137 138 136 134 131 131 129 126 123 120 117 112 108 103 99 95
87 91 92 93 96 99 102 104 106 110 113 116 118 120 123 124 125 128 130 132 133 132 135 136 135 135 136 136 132 131 130 127 125 121 116 115 110 106 102 97 95 92 86
91 96 97 100 102 104 107 109 112 115 118 120 122 124 125 127 129 130 131 132 134 134 135 136 136 131 130 131 130 121 120 117 113 112 107 104 101 96 93 90 86 81 77
91 96 99 102 104 105 107 109 110 113 115 118 120 123 124 124 126 125 124 124 127 131 131 129 126 126 124 117 117 113 110 109 106 104 101 95 91 88 85 80 77 74 70
87 92 96 99 102 104 107 110 112 114 115 116 115 116 117 119 119 119 121 122 122 121 121 119 115 115 113 108 106 106 103 102 100 94 89 86 83 79 76 72 70 67 64

GFSGL_250_spd_093.txt.gz
Wind_Speed
23 17 15 13 28 37 41 43 49 49 49 47 45 49 51 53 54 56 57 58 61 65 67 70 70 71 71 73 72 72 76 76 71 71 75 78 78 76 70 62 57 56 56
23 20 16 12 12 25 41 46 48 47 50 49 50 51 53 55 57 60 61 62 66 68 68 71 74 76 74 74 76 75 75 74 72 73 76 75 70 64 58 56 54 56 58
23 23 23 16 11 11 21 38 40 48 51 54 51 52 55 56 60 64 66 67 68 69 68 70 65 66 71 73 75 75 74 74 74 74 66 58 57 57 57 57 59 60 61
27 22 22 24 20 14 14 14 30 45 48 49 53 56 57 56 59 62 65 65 66 68 67 70 69 70 71 73 71 71 72 72 65 60 55 55 56 56 58 61 65 69 70
31 33 22 24 28 24 19 17 18 17 21 33 44 48 50 50 54 60 63 64 64 65 69 69 70 71 72 73 72 66 58 54 53 55 57 58 60 64 66 67 68 71 76
35 39 39 26 27 31 29 26 24 22 22 24 23 23 27 35 45 51 53 55 57 59 60 62 62 59 55 51 49 49 51 53 57 60 61 61 63 65 68 71 74 78 82
43 42 40 43 35 30 32 37 33 31 30 29 30 28 29 31 33 32 32 33 34 36 37 39 41 42 45 47 50 53 57 58 58 60 62 65 68 70 75 79 82 85 88
46 38 39 42 45 42 37 35 36 42 42 40 38 38 38 38 39 40 40 40 41 42 42 43 45 49 52 57 58 62 63 66 70 71 72 73 73 78 82 87 90 92 98
46 46 47 47 49 48 49 52 48 45 42 43 49 49 48 49 49 48 49 49 50 50 50 51 53 55 58 62 65 68 71 74 78 80 82 83 85 87 90 93 96 102 104
51 50 47 49 50 54 56 59 61 59 56 54 50 50 53 54 55 53 57 57 55 53 53 58 64 66 67 69 73 76 80 83 84 86 88 91 93 95 96 100 106 109 108
54 53 55 55 54 54 56 58 60 61 60 63 63 61 57 56 57 60 60 60 60 62 65 66 68 71 74 78 81 83 85 87 89 90 92 94 97 100 104 109 111 110 112
58 58 61 63 61 62 65 64 67 66 68 66 69 69 70 68 68 68 70 70 71 73 74 74 74 76 80 84 86 89 91 92 93 94 98 103 105 108 109 110 113 117 116
72 66 64 66 65 66 70 71 71 68 64 69 71 73 73 68 67 68 70 71 75 78 80 83 84 85 91 89 91 94 95 100 104 106 108 110 110 110 118 118 119 118 118
86 87 79 75 75 74 74 67 70 75 70 69 68 67 76 76 76 76 75 76 67 76 84 89 92 90 94 98 98 101 105 107 108 112 110 114 122 124 122 122 121 123 126
66 71 71 72 75 79 81 78 76 72 67 73 78 78 56 80 84 82 68 82 75 80 78 91 94 96 98 101 106 108 108 110 114 118 121 121 123 123 126 125 126 130 132
59 60 63 65 67 67 70 70 70 71 68 56 75 64 73 81 80 81 76 73 92 88 88 94 97 101 105 106 106 110 114 121 123 122 123 126 123 126 129 132 133 137 141
53 55 56 57 57 60 53 55 60 64 60 61 69 76 76 79 79 84 84 83 92 98 96 102 103 104 110 116 115 116 116 121 125 128 129 127 130 132 136 138 140 144 148
53 54 55 55 57 59 55 56 54 58 68 71 73 79 81 89 82 86 94 95 77 94 107 111 116 114 114 113 118 122 124 126 130 132 132 134 136 137 142 145 147 150 149
53 55 57 60 54 54 63 56 63 65 68 72 76 85 87 88 92 97 95 98 103 98 98 107 115 116 113 122 131 130 130 133 133 134 136 140 144 145 147 149 147 142 139
54 57 59 60 62 67 70 69 64 71 71 71 84 80 83 85 88 93 89 97 102 106 102 104 110 118 126 130 131 132 133 135 139 142 144 146 148 148 146 140 139 133 129
64 62 65 63 73 75 74 75 68 71 70 79 91 99 97 103 98 96 91 97 104 110 114 121 125 127 128 129 132 135 137 141 144 144 144 148 148 139 139 136 124 120 112
71 70 70 74 80 83 83 78 84 89 91 93 94 101 103 106 109 109 108 112 118 121 124 124 126 128 130 133 135 137 139 145 146 141 138 139 136 130 123 117 111 106 101
76 77 77 79 81 84 90 92 97 98 99 102 97 98 107 113 117 118 125 128 121 120 124 127 129 132 134 139 139 139 142 139 135 139 130 123 121 116 109 104 102 99 94
77 80 81 82 89 93 92 94 101 100 105 104 106 109 114 119 124 124 124 123 124 124 126 129 133 135 134 137 138 135 128 129 124 121 116 111 106 105 103 99 94 89 86
73 78 82 83 86 89 94 97 97 98 103 106 111 115 116 118 121 122 123 124 127 129 131 130 130 132 127 124 129 124 119 118 113 108 104 103 101 97 93 89 86 81 76
72 75 75 77 83 87 91 94 96 98 101 105 110 113 116 117 119 122 124 126 124 120 122 126 124 121 117 114 116 111 108 105 103 102 98 93 89 86 84 81 75 71 69

GFSGL_250_spd_096.txt.gz
Wind_Speed
27 25 19 17 18 15 18 23 27 30 31 35 40 44 43 44 49 52 51 51 49 53 54 55 56 56 60 63 65 68 68 70 71 73 76 73 69 70 74 74 76 75 68
28 24 22 17 16 16 14 17 26 33 38 37 39 42 42 45 43 46 50 53 54 52 51 54 55 54 56 60 62 63 68 68 70 65 67 70 74 74 74 74 64 58 55
29 29 25 20 20 17 15 13 15 25 33 38 41 43 48 50 51 51 49 53 55 59 58 60 62 63 63 63 66 69 70 69 70 72 76 75 72 72 65 55 56 57 58
30 30 31 26 23 22 20 17 15 14 21 33 36 41 46 49 52 54 56 57 57 56 56 56 58 59 63 69 72 72 74 75 76 76 75 76 70 55 52 55 57 60 63
36 33 33 33 30 26 22 25 22 19 18 18 22 31 41 47 49 49 51 54 51 52 55 55 59 61 64 66 67 72 71 69 67 63 58 52 50 50 53 57 60 63 65
40 39 38 39 36 36 29 27 29 29 27 26 24 23 24 25 28 35 42 46 47 48 47 48 47 46 45 44 43 44 46 48 49 51 53 54 56 58 60 62 68 72 77
35 33 34 39 42 43 42 37 38 33 35 35 33 33 32 31 31 31 31 31 33 34 35 36 37 39 42 45 47 48 50 54 57 58 62 65 66 68 68 74 76 80 81
35 37 37 39 40 44 43 45 40 42 42 41 39 40 42 43 42 41 40 40 42 43 45 46 46 48 51 53 55 57 58 60 64 67 70 70 73 78 82 83 85 88 92
53 49 43 45 44 38 46 44 46 49 50 49 49 46 44 46 47 48 50 50 52 53 54 54 55 58 58 59 63 65 67 69 71 73 77 81 83 86 90 93 95 96 100
60 61 62 56 50 43 48 54 53 52 52 54 57 57 57 58 58 57 57 57 55 58 60 61 64 63 66 69 71 72 73 74 77 79 82 85 87 90 93 97 100 102 103
62 60 54 53 53 54 52 54 55 54 55 58 57 61 60 58 62 65 67 66 65 63 64 66 66 67 68 71 74 77 82 85 83 87 89 93 92 93 98 102 105 107 111
67 63 58 59 60 61 54 58 57 57 59 61 64 64 65 63 64 66 70 71 73 75 75 76 78 80 80 80 81 80 84 90 91 92 95 97 103 105 108 111 113 115 118
60 64 67 65 65 67 66 55 64 61 63 64 65 67 69 68 71 69 65 68 72 74 76 76 78 79 82 84 86 87 88 93 89 97 100 106 108 112 112 112 115 121 124
69 70 68 68 69 68 65 64 63 70 71 67 72 68 71 75 72 61 64 66 73 73 70 76 68 80 80 79 78 86 89 89 95 107 105 110 115 117 117 125 128 131 130
83 85 85 87 87 88 85 81 81 77 75 74 77 79 80 79 77 75 75 59 73 72 70 78 80 80 80 82 87 90 94 94 101 102 112 119 124 115 128 135 132 133 134
63 63 64 63 65 71 77 81 96 100 91 89 88 97 101 98 100 97 92 85 92 88 83 86 92 89 94 88 88 96 100 103 107 111 118 115 115 126 133 138 139 139 141
61 58 60 60 67 70 72 73 76 82 91 94 85 87 63 80 95 92 89 90 88 79 85 87 94 92 94 88 95 101 98 101 109 115 112 119 124 130 137 140 136 140 141
55 59 61 61 61 62 67 68 69 71 73 77 87 81 80 80 90 82 90 87 92 92 92 95 95 102 104 109 101 104 100 108 118 120 121 126 131 135 137 137 139 144 144
56 58 60 61 59 58 62 67 68 70 73 76 82 88 88 87 87 84 85 89 91 97 100 97 99 106 110 111 109 110 117 124 127 129 131 131 133 135 141 142 144 141 144
61 60 64 65 61 60 63 65 68 70 73 78 80 83 88 83 85 84 84 88 95 99 101 103 105 109 115 118 114 114 118 121 122 124 125 128 134 139 143 144 145 142 146
66 67 68 68 64 64 64 66 69 72 76 78 80 88 90 88 86 91 93 95 99 98 99 105 109 113 115 116 118 121 124 127 131 131 131 136 141 142 138 145 148 141 129
67 69 71 70 67 69 68 71 73 76 80 86 84 86 84 93 97 101 101 102 103 105 106 105 113 114 119 125 127 129 130 133 134 138 139 137 139 146 144 134 129 118 112
67 69 72 72 73 71 75 79 82 84 86 88 92 90 92 96 103 105 108 107 106 106 107 107 110 115 125 130 131 129 127 130 137 139 138 140 136 132 132 121 111 108 102
66 68 71 73 75 76 78 83 87 88 86 91 91 96 98 98 101 104 110 111 114 112 113 117 123 126 127 126 125 128 130 132 135 131 125 129 127 121 118 108 104 99 93
66 66 67 69 70 71 74 76 80 84 85 86 90 94 98 102 106 107 107 106 108 111 116 122 125 126 128 128 130 131 132 130 127 124 119 116 110 107 104 99 96 92 88
66 66 67 69 69 69 69 70 73 75 77 80 82 85 90 93 97 101 102 104 107 110 113 116 118 118 118 116 115 115 116 117 115 111 106 104 101 99 95 92 89 85 81

GFSGL_250_spd_099.txt.gz
Wind_Speed
19 21 26 24 23 18 14 14 11 15 20 21 23 30 38 41 45 51 56 58 58 58 56 61 65 67 63 62 58 54 54 56 57 62 59 60 62 63 67 68 68 70 73
26 23 21 23 22 21 15 13 12 14 21 21 22 24 31 39 44 44 47 52 54 58 57 56 58 53 48 48 50 51 54 54 53 58 60 64 64 67 68 70 74 74 76
28 26 22 24 26 23 20 15 14 13 15 24 29 31 32 33 35 38 39 43 45 49 47 48 51 52 57 60 61 64 63 62 63 58 63 67 69 72 71 72 74 73 70
30 27 25 25 25 28 27 24 20 18 15 15 24 30 30 33 38 42 44 46 49 50 51 54 55 55 58 59 57 57 59 61 62 64 65 68 69 68 69 65 60 58 55
30 29 30 31 28 26 30 30 26 25 24 21 18 21 32 36 36 37 40 43 46 48 49 49 52 54 53 52 54 57 59 59 60 59 56 56 54 53 53 55 57 59 60
33 34 32 31 29 30 30 35 34 31 30 29 29 26 26 26 28 32 36 41 45 49 51 53 55 55 54 54 53 51 49 47 47 47 49 52 54 56 58 61 64 66 68
34 36 35 34 32 26 25 29 33 38 38 37 38 36 36 35 35 34 34 34 34 35 36 37 38 39 41 42 45 47 48 50 51 54 58 61 63 65 68 69 71 75 76
40 40 41 38 37 35 33 31 32 32 37 42 42 45 45 43 42 45 44 43 44 44 45 45 46 47 49 50 53 56 57 58 59 64 68 69 70 74 76 77 80 81 84
46 48 48 44 40 39 40 40 42 45 44 42 43 44 43 47 48 49 49 48 48 49 48 49 50 53 54 58 61 62 63 67 70 72 73 74 75 77 78 81 85 87 90
55 49 50 55 55 52 47 45 51 50 53 52 47 49 50 50 49 49 52 57 59 61 62 64 63 63 65 67 68 68 69 69 72 74 75 78 82 79 84 88 89 92 94
55 53 57 60 61 59 58 60 63 57 55 57 53 52 53 54 57 56 55 55 55 58 58 61 63 65 67 69 70 73 75 76 79 81 83 81 80 85 91 96 99 100 101
60 60 62 64 67 65 69 69 65 64 65 60 58 52 55 58 62 64 64 64 62 62 61 61 62 67 73 71 72 74 73 71 75 79 81 83 88 83 90 95 95 101 107
65 63 66 71 74 71 71 70 69 66 62 63 62 60 49 70 59 61 67 69 68 66 68 66 67 71 64 67 74 61 70 74 82 84 87 84 86 89 91 98 104 109 112
68 67 66 69 73 73 71 71 66 66 69 71 68 61 62 58 57 44 63 69 77 73 77 77 76 76 73 70 71 71 79 76 82 84 88 96 94 94 103 105 103 105 110
70 68 69 69 71 70 72 75 74 70 71 70 66 56 68 75 73 74 84 86 87 83 80 85 87 85 84 87 83 84 98 103 92 93 101 104 108 110 109 109 108 111 115
78 75 77 77 78 80 81 83 84 86 86 85 84 81 86 82 81 86 83 92 88 90 87 87 87 93 91 94 93 97 101 104 103 107 107 112 113 113 114 113 120 124 125
80 81 82 84 86 90 91 91 95 95 99 104 104 103 100 103 101 95 93 78 87 88 76 91 94 85 93 94 104 102 105 106 109 113 111 111 113 116 121 124 123 128 130
81 82 81 81 77 75 75 76 76 73 76 83 81 82 82 82 85 92 98 93 103 104 96 104 100 94 94 102 96 99 108 111 112 114 116 120 124 125 127 126 125 131 135
77 74 72 72 73 72 72 71 71 74 78 83 86 86 86 86 89 94 104 110 102 99 97 100 103 108 113 110 107 111 114 118 114 115 122 127 129 129 129 129 132 137 137
74 73 70 67 66 65 66 69 71 70 74 73 73 74 79 81 82 86 92 96 98 105 111 115 116 112 114 115 119 128 125 119 118 118 119 122 125 127 127 127 126 129 133
68 68 68 68 68 67 68 69 70 73 75 76 74 73 78 82 82 84 88 93 98 102 106 115 121 125 128 129 125 122 117 116 119 120 122 125 126 127 124 122 125 129 132
69 69 70 70 71 71 71 72 72 74 75 77 79 79 79 82 86 87 89 92 97 101 106 109 111 113 116 117 118 119 120 119 121 121 123 126 128 128 128 126 127 127 132
71 71 72 73 74 74 75 76 79 80 80 81 81 83 85 87 87 90 94 97 98 103 105 107 110 111 112 114 116 118 117 117 117 119 122 123 124 122 121 123 123 119 118
69 69 69 71 71 74 76 78 80 80 82 84 86 86 88 88 90 91 92 94 97 98 100 103 106 110 113 113 114 116 117 120 122 122 123 122 119 119 124 115 111 107 105
68 69 69 70 70 71 73 73 72 72 73 75 76 77 78 82 85 88 90 90 90 91 93 96 100 103 105 108 109 108 109 112 113 113 112 113 112 105 106 102 98 97 92
65 65 66 67 68 69 70 70 71 72 74 74 75 76 76 77 79 81 83 85 87 88 90 91 93 94 95 96 99 100 102 104 106 105 101 100 99 96 95 93 89 87 85

GFSGL_250_spd_102.txt.gz
Wind_Speed
26 27 23 20 23 21 15 16 15 14 14 19 28 33 35 42 46 51 51 56 58 58 59 64 61 60 59 62 63 66 64 63 63 68 62 62 67 59 58 57 59 63 67
26 26 26 22 23 22 19 18 16 9 17 24 27 28 32 35 43 48 49 46 50 53 57 65 64 64 62 60 60 59 65 68 61 57 57 56 58 60 62 63 64 66 71
28 27 33 27 24 21 20 18 18 17 12 11 23 25 29 32 34 39 41 42 44 46 49 54 57 57 59 58 58 61 60 56 55 56 62 65 65 62 65 69 71 71 72
33 32 29 27 25 20 22 20 18 21 21 18 14 20 28 29 34 35 39 44 47 50 51 47 47 50 52 55 56 54 55 56 58 57 59 64 64 67 70 73 73 74 71
34 31 29 28 28 24 24 23 25 22 24 23 23 20 18 28 33 37 38 39 40 42 45 47 49 51 54 55 56 56 57 59 59 60 58 61 67 70 72 69 64 60 59
33 33 33 30 29 28 27 27 25 24 24 27 26 25 25 25 24 28 36 40 43 47 49 51 53 53 55 57 58 58 59 60 62 64 63 59 57 57 58 60 62 65 68
38 38 36 35 36 34 31 29 25 22 23 23 26 30 30 31 31 32 32 32 34 37 40 43 45 48 50 51 52 51 50 50 50 52 53 55 57 60 64 67 69 73 76
42 40 39 40 40 41 41 39 34 33 31 26 23 24 28 30 33 36 39 40 40 42 44 46 47 48 48 50 52 53 54 56 57 59 60 61 63 66 69 72 75 76 76
47 44 42 48 48 45 41 43 41 39 37 37 38 39 38 41 41 41 40 41 43 48 50 51 51 52 53 54 57 58 59 60 62 66 68 69 70 71 75 78 79 80 81
56 54 55 54 51 49 47 46 47 47 46 50 51 49 48 49 47 41 45 50 50 50 51 52 54 56 59 60 62 63 65 65 64 65 67 71 69 71 75 75 77 78 78
56 58 58 54 51 51 52 50 53 54 56 56 56 56 57 58 58 54 57 45 44 47 50 54 58 63 63 64 63 62 64 65 65 68 70 70 69 72 74 74 79 85 87
62 61 59 58 60 62 63 62 62 59 57 57 59 59 60 60 60 62 57 48 53 59 54 57 61 57 55 59 62 62 67 72 73 79 82 78 77 79 85 89 88 90 89
68 65 71 69 68 66 66 64 64 64 68 69 71 70 72 71 68 66 56 51 50 55 46 62 55 65 61 67 63 64 68 66 83 83 85 82 86 95 97 93 91 98 101
70 71 70 68 70 72 70 71 73 74 75 77 77 79 79 76 68 64 62 62 58 56 63 64 71 70 79 71 78 85 75 84 90 93 93 95 96 97 97 101 104 101 109
75 74 74 71 73 74 74 75 76 77 80 79 79 77 75 75 74 68 68 63 65 74 72 80 81 79 82 85 92 93 91 90 95 99 102 99 102 102 102 106 109 107 114
77 76 79 78 76 75 74 73 77 78 79 81 84 83 80 78 78 79 78 78 80 82 80 81 86 88 91 97 100 97 92 93 100 104 112 104 104 105 103 104 117 119 123
79 78 80 81 82 84 87 86 80 79 82 86 88 88 88 92 91 91 89 92 93 92 93 91 99 99 98 99 99 105 106 112 114 114 111 113 116 115 125 122 132 124 124
86 85 86 88 88 87 87 88 87 88 90 95 97 97 99 98 97 98 99 98 101 106 105 105 106 107 109 112 113 113 118 118 121 120 122 121 122 128 135 136 129 133 127
95 94 95 94 90 89 89 89 90 92 92 92 93 92 91 90 90 91 91 93 96 96 97 98 104 113 119 123 125 123 123 124 123 123 125 128 131 134 136 133 129 135 142
93 91 89 88 89 91 89 89 88 88 87 85 86 87 88 87 88 89 90 90 94 96 97 99 102 105 106 110 113 116 121 124 128 129 132 132 134 137 136 139 140 140 142
90 89 87 86 85 86 85 85 87 86 84 83 81 81 82 85 86 87 89 89 92 93 95 96 95 98 101 103 109 115 121 125 128 130 133 136 134 136 136 135 136 137 137
89 90 90 89 88 86 83 81 79 80 80 81 81 80 81 83 86 88 89 92 94 97 99 99 100 101 102 103 105 108 113 116 120 122 122 123 125 126 127 127 123 121 123
82 82 81 81 81 80 80 80 80 79 79 80 81 82 84 85 87 89 90 92 95 97 99 100 99 100 101 101 103 104 107 110 113 114 113 114 115 114 116 113 112 113 113
78 78 78 78 77 77 77 77 78 78 78 80 82 83 84 84 85 85 86 86 86 88 90 91 93 94 95 96 97 98 99 101 103 104 104 103 103 103 104 105 105 104 100
77 76 75 74 74 74 75 77 78 79 80 81 80 80 79 78 78 78 78 80 81 83 84 85 86 88 90 91 92 93 94 94 95 95 95 97 98 98 95 96 96 93 90
73 72 72 74 74 74 75 76 74 73 73 74 74 74 74 75 77 78 79 79 80 80 81 82 83 83 84 86 87 89 90 90 90 89 89 91 91 90 89 87 87 84 82

GFSGL_250_spd_105.txt.gz
Wind_Speed
43 44 39 36 31 21 19 20 19 18 17 16 19 31 63 65 61 56 52 54 55 57 57 61 62 62 62 63 69 72 70 71 75 76 71 73 73 70 68 67 70 64 68
43 42 39 35 29 22 19 18 18 15 15 13 15 23 43 59 65 68 61 58 56 58 61 61 62 65 68 61 58 59 63 66 67 64 65 65 63 65 67 64 65 65 68
42 43 40 32 28 28 22 21 19 16 15 14 13 20 29 41 43 51 57 53 56 58 61 62 61 62 60 55 60 62 65 67 67 64 61 60 61 63 64 64 65 65 66
43 40 39 33 30 32 27 26 21 21 19 19 15 14 26 31 39 42 44 49 52 56 59 60 59 55 57 59 60 59 59 58 58 59 61 63 62 64 65 68 68 69 70
35 38 37 35 34 33 31 26 24 22 21 18 22 20 18 17 33 38 43 45 46 50 56 58 56 55 54 56 58 61 59 59 59 58 60 64 65 65 70 74 72 74 76
41 41 42 39 38 36 33 29 31 27 25 23 22 25 24 22 22 21 31 40 43 45 46 49 51 53 54 56 56 58 60 60 59 61 63 65 69 70 76 75 66 62 62
44 45 45 42 32 34 34 34 34 32 29 26 23 23 25 28 28 27 25 26 29 37 45 50 53 54 56 57 60 63 66 67 65 64 62 59 57 58 59 61 63 65 67
45 47 41 40 38 40 42 42 40 38 37 34 30 28 27 27 24 24 24 25 29 37 40 42 44 46 49 51 53 54 55 55 56 57 57 57 58 60 62 64 67 70 73
46 50 46 44 45 48 48 47 46 44 42 40 38 37 34 32 33 35 34 37 38 37 37 41 44 49 50 51 54 57 58 60 60 63 65 67 69 71 72 73 75 76 73
52 43 55 53 44 49 53 53 46 46 44 45 43 42 43 45 48 47 46 45 46 48 49 48 48 50 52 54 55 59 57 55 61 66 67 68 69 69 71 73 74 76 79
58 57 56 53 54 56 55 53 50 49 48 49 47 48 50 52 56 59 55 53 53 54 56 54 55 54 57 54 58 58 56 56 53 53 58 64 67 66 69 72 75 80 83
60 61 62 59 56 56 57 56 57 55 55 53 55 56 56 58 59 61 62 60 59 61 61 62 60 59 67 66 65 66 69 61 61 66 74 74 73 76 83 85 80 85 88
59 60 65 62 58 58 59 59 61 60 61 63 63 64 62 61 61 62 65 67 69 72 74 73 70 70 65 63 66 69 74 71 75 76 79 82 83 83 86 93 96 93 99
68 65 63 64 64 65 65 67 70 70 71 70 69 67 65 66 70 72 73 77 79 81 82 81 78 72 69 69 72 72 70 76 78 78 81 85 93 96 92 95 101 101 105
74 71 71 75 75 75 74 73 73 76 78 78 76 75 75 75 76 76 80 83 83 83 85 81 77 73 75 72 72 76 78 78 84 85 87 95 101 102 105 110 113 116 122
73 77 78 79 82 83 84 83 81 81 81 81 81 81 80 83 81 80 81 81 84 84 83 84 86 84 86 87 88 87 87 92 94 96 102 107 108 111 114 117 120 125 128
72 77 84 85 84 84 86 88 87 85 82 85 86 86 89 86 84 84 88 88 89 90 92 91 92 94 94 96 96 100 102 105 107 109 110 113 117 116 120 125 128 131 131
86 91 91 89 86 84 84 86 90 90 87 89 95 92 90 91 91 93 95 97 95 98 100 102 104 103 104 105 104 106 110 113 114 117 120 122 124 122 124 129 129 132 134
85 87 89 90 90 92 93 96 98 100 96 99 100 96 96 98 102 101 98 100 102 103 102 103 104 101 100 100 101 101 101 104 106 109 113 116 121 126 130 134 138 141 142
98 97 95 97 99 101 102 106 109 109 109 104 101 105 107 103 100 103 103 104 104 101 99 98 99 100 101 100 100 100 102 104 104 105 105 107 110 113 117 121 124 127 130
104 106 107 109 110 110 103 100 102 102 103 108 108 102 101 100 99 99 99 100 101 99 96 94 94 95 97 98 100 101 102 103 105 106 107 109 110 112 115 115 117 120 123
99 100 101 102 103 104 105 106 106 106 105 101 99 98 96 96 94 93 92 92 91 91 91 92 94 95 97 98 99 101 102 105 106 107 109 110 111 112 112 113 114 114 114
96 97 98 98 99 99 99 100 99 99 98 96 93 90 88 88 88 89 89 89 90 92 93 94 94 94 94 94 95 96 96 97 98 98 99 99 99 99 99 100 100 100 101
87 89 91 92 92 92 92 91 90 90 90 89 88 86 86 87 88 88 89 89 90 90 90 91 91 90 88 88 88 89 90 90 92 94 94 94 94 95 95 95 95 96 95
78 80 82 84 85 86 87 86 86 86 85 84 84 84 85 87 87 88 88 87 86 84 83 81 81 82 82 84 86 86 86 86 87 88 88 88 89 89 89 89 89 90 89
77 79 81 82 82 83 83 82 81 80 82 83 83 84 85 84 82 80 79 76 75 76 78 79 78 77 78 79 80 81 81 82 82 82 82 82 82 83 84 83 81 79 78

GFSGL_250_spd_108.txt.gz
Wind_Speed
59 54 46 42 45 44 37 28 26 23 21 22 22 20 16 30 54 68 64 64 63 71 68 62 63 67 61 56 61 60 60 62 61 65 68 71 71 74 72 74 72 66 65
59 53 42 47 47 44 37 28 27 23 19 19 19 17 18 18 47 62 64 67 63 67 69 69 70 68 66 70 71 74 69 73 77 71 70 73 66 65 64 70 70 70 68
58 49 44 49 48 45 38 31 29 21 19 18 19 18 17 18 22 59 61 58 61 65 63 61 58 59 60 64 64 62 62 63 69 70 65 68 67 70 70 69 69 68 67
45 46 49 48 49 44 38 34 30 25 22 21 21 21 15 19 21 32 57 60 58 58 58 58 58 59 62 64 63 67 70 70 70 71 66 70 71 72 70 69 71 73 73
42 43 48 51 47 45 37 34 37 30 24 23 22 19 21 18 22 30 39 46 57 65 67 64 65 67 67 68 69 72 72 72 70 68 67 69 69 71 74 75 74 74 74
37 47 49 50 47 45 35 33 37 35 29 27 24 24 20 24 22 22 32 43 48 51 57 63 62 64 65 63 64 62 62 63 65 68 74 75 73 71 71 74 75 78 80
48 45 46 45 42 39 36 35 35 37 36 33 31 26 27 27 30 28 25 27 35 45 50 52 54 58 59 60 61 63 64 67 68 67 67 68 69 71 73 73 72 70 68
40 38 37 40 40 39 40 40 36 36 37 36 36 33 30 30 29 30 34 33 32 31 32 34 35 39 44 49 51 53 55 57 59 61 62 61 62 64 64 67 69 70 72
40 37 41 43 45 47 47 46 42 42 42 43 42 37 36 36 33 31 29 29 30 30 34 36 38 39 41 39 41 47 54 56 59 62 64 66 68 70 72 74 74 75 76
44 43 43 46 51 51 50 53 51 48 47 48 47 45 44 45 45 42 41 42 44 43 45 45 47 49 49 52 54 56 57 58 59 62 66 72 72 71 71 72 70 68 72
34 44 39 41 48 52 52 55 60 57 54 51 52 50 50 51 51 50 48 48 51 55 57 57 59 60 59 61 64 63 66 67 67 67 68 73 79 76 75 73 74 74 76
59 58 51 51 52 47 52 55 60 57 58 54 55 56 55 53 53 54 56 57 56 56 58 59 60 63 64 65 67 69 74 76 79 79 77 77 77 83 85 83 82 81 84
60 61 60 60 56 56 56 57 58 56 55 55 57 59 57 59 61 62 63 63 63 63 64 66 68 69 69 72 75 78 82 84 85 84 82 77 80 82 82 88 92 91 92
64 63 65 62 61 60 64 66 68 68 64 61 62 61 60 65 66 68 68 68 67 69 69 69 71 74 78 83 87 89 89 88 87 85 85 83 81 82 88 90 90 92 96
71 70 68 71 69 69 70 68 67 66 67 66 65 69 71 74 75 76 76 77 80 79 80 80 79 82 82 88 86 86 85 88 88 88 88 88 90 93 94 95 97 99 102
72 77 68 68 71 69 70 69 72 74 75 76 76 77 77 79 80 80 82 85 86 86 88 88 91 90 92 87 86 86 90 94 96 97 98 98 101 104 106 108 108 109 112
79 83 80 79 77 78 79 82 80 82 81 84 87 89 89 89 91 92 95 97 97 98 92 88 89 93 99 94 92 95 99 101 105 108 108 109 107 109 110 112 113 116 119
91 89 85 84 85 84 85 88 89 89 93 95 96 97 99 99 101 102 99 99 96 95 97 101 102 101 105 102 105 110 104 103 105 108 110 109 107 106 105 105 106 108 111
86 84 85 82 83 90 87 87 87 86 86 101 107 103 100 99 100 103 98 99 101 104 102 106 112 105 105 109 111 108 110 112 108 106 107 107 108 107 106 104 105 106 107
89 90 86 85 88 92 93 93 96 96 100 98 98 97 96 98 102 104 106 107 106 109 113 110 108 108 111 110 109 110 109 108 107 106 103 101 102 102 103 104 104 105 107
96 100 97 96 98 96 97 99 99 100 100 98 103 104 104 111 111 109 113 113 113 113 114 111 107 105 106 108 107 104 102 101 101 101 102 102 102 102 102 102 103 103 104
101 102 104 106 105 108 107 111 110 106 108 111 112 114 116 116 116 113 112 113 110 106 104 106 106 103 99 98 99 98 98 99 100 99 99 99 99 99 99 98 97 96 95
113 113 114 114 114 114 112 109 112 114 116 117 118 119 117 115 114 110 107 104 104 101 98 97 97 97 96 95 96 97 96 95 95 95 95 93 92 91 91 92 93 94 93
101 104 108 110 116 116 115 116 116 114 111 109 108 106 104 103 101 100 97 95 94 94 94 94 94 95 94 92 91 91 90 89 88 86 87 89 91 91 89 89 89 90 91
83 86 88 91 92 94 96 97 98 98 99 98 98 98 97 96 95 93 91 92 92 93 93 92 90 88 87 86 84 83 82 84 86 86 86 85 86 87 87 87 85 85 85
78 79 81 83 84 86 88 89 90 91 91 91 91 91 90 89 89 90 91 91 89 88 85 83 82 81 81 81 82 83 82 81 82 82 82 82 82 82 82 82 82 82 81

GFSGL_250_spd_111.txt.gz
Wind_Speed
59 54 54 57 54 51 48 47 42 40 40 33 29 29 29 26 27 27 33 60 66 59 61 52 55 68 65 63 65 63 59 59 56 59 61 61 62 65 63 66 70 72 73
54 52 56 55 53 53 52 50 43 42 40 32 29 24 23 23 24 22 26 52 69 60 61 67 56 53 61 70 62 60 63 73 70 69 70 70 68 65 73 74 76 79 77
56 59 59 57 52 42 50 50 45 43 38 33 28 23 19 22 22 20 23 44 64 63 69 61 65 69 60 57 59 61 67 65 66 68 68 71 72 70 71 72 72 74 76
60 63 63 59 51 43 47 46 46 45 39 33 30 26 22 21 19 21 19 31 56 64 65 63 62 65 66 71 71 67 68 67 67 68 69 68 69 70 74 77 80 80 77
58 57 56 52 47 40 41 47 48 46 39 35 32 28 24 22 22 18 20 19 42 60 66 68 68 66 64 64 65 65 66 65 66 66 70 71 73 76 79 82 82 77 75
51 50 48 43 44 41 45 49 51 46 38 35 34 30 27 23 23 24 22 24 24 45 58 62 61 61 62 66 63 64 65 67 67 70 71 74 76 79 79 77 77 81 82
39 39 39 43 44 45 48 50 50 44 36 34 40 34 29 27 26 26 24 26 28 35 40 46 49 54 58 60 62 66 68 70 71 72 73 73 72 72 73 74 75 75 73
26 29 34 39 44 45 46 48 45 39 36 30 32 34 36 33 32 30 26 26 30 32 34 42 47 49 51 52 54 58 63 65 68 67 68 69 70 69 68 71 71 72 74
30 33 35 41 44 45 45 44 43 42 39 35 37 33 33 36 37 36 33 29 30 30 37 41 39 41 43 44 45 48 47 50 54 55 57 57 60 63 65 67 69 71 72
36 41 43 40 33 35 37 37 40 42 43 44 39 40 44 46 44 40 40 38 39 38 38 40 43 46 48 48 48 49 51 54 58 59 61 64 68 70 73 75 76 77 80
36 38 37 31 33 40 42 44 44 45 46 40 47 46 44 47 48 49 48 48 45 43 44 47 50 53 54 56 54 57 61 61 58 63 64 67 70 73 78 81 83 86 88
33 36 38 42 43 45 45 45 48 50 49 56 58 55 54 55 54 53 52 52 51 52 52 54 55 56 58 60 63 63 68 68 68 71 71 75 75 78 82 86 92 94 93
47 40 41 49 44 43 46 46 50 50 52 57 59 61 58 58 57 59 60 57 56 56 58 60 62 64 65 67 68 71 73 75 75 76 80 81 83 85 88 93 91 91 93
59 60 62 52 57 59 51 53 54 56 55 55 59 61 62 62 60 59 61 61 64 62 64 66 69 70 71 72 74 75 77 80 82 86 87 88 92 94 94 93 90 90 95
65 62 60 60 60 62 60 58 58 61 59 59 61 63 61 62 64 65 68 70 71 73 75 75 75 77 78 80 82 84 87 88 91 92 94 93 93 95 99 98 95 97 101
64 63 63 61 61 67 71 72 68 68 65 65 69 70 69 69 68 67 69 68 73 77 79 80 81 83 87 88 88 90 94 98 104 106 99 100 101 103 104 100 103 106 112
73 73 68 69 74 77 70 68 73 76 77 73 74 75 76 79 79 79 78 80 83 83 86 90 92 93 95 98 100 106 109 108 104 101 104 106 107 109 108 110 112 113 112
86 83 74 75 81 85 80 81 78 82 82 84 86 86 84 85 85 86 88 89 93 96 97 100 102 105 107 113 110 110 108 105 106 109 109 112 111 114 117 119 116 117 117
82 85 85 81 83 86 86 90 93 91 89 90 88 87 88 91 92 94 96 100 100 105 106 108 107 107 109 110 108 106 109 113 113 116 112 115 116 113 112 116 116 113 110
89 87 86 90 91 91 94 96 98 96 95 96 98 99 97 102 101 103 102 103 105 98 102 99 100 102 107 110 111 114 117 120 115 114 115 113 112 111 107 105 104 104 104
99 101 100 102 102 99 99 102 104 106 104 105 105 104 105 104 97 96 99 102 109 110 106 109 112 114 113 116 117 117 121 117 113 113 112 107 104 103 103 103 102 102 102
107 107 109 104 103 104 107 107 106 108 110 110 110 109 109 108 108 108 108 112 112 114 118 119 112 118 120 117 120 117 113 111 107 104 103 101 102 101 100 99 98 97 96
113 113 113 113 110 110 114 118 116 113 108 109 110 111 111 114 118 119 120 121 122 122 123 127 124 117 122 118 111 107 103 102 101 100 100 99 98 96 96 96 93 92 92
113 118 112 113 114 115 115 115 115 115 112 116 118 116 116 118 117 119 123 122 122 125 123 119 119 113 107 103 100 98 99 99 99 98 96 95 93 91 90 90 92 93 93
102 109 114 110 110 111 114 116 117 119 118 117 116 117 122 127 128 126 124 120 114 112 109 106 101 99 99 99 98 98 97 95 93 92 90 89 88 90 91 89 88 87 86
103 105 107 110 113 115 117 120 123 126 128 127 124 117 112 109 107 106 106 104 101 99 98 98 98 98 97 96 94 91 89 88 87 87 88 89 89 87 85 83 83 82 82

GFSGL_250_spd_114.txt.gz
Wind_Speed
51 59 60 58 60 57 52 46 48 49 49 44 43 41 38 33 33 34 31 32 31 35 55 62 54 57 53 56 53 51 56 52 52 56 59 63 62 54 57 55 54 54 62
53 56 58 63 62 54 48 45 43 49 53 45 44 42 39 32 32 32 29 29 29 31 54 63 50 59 57 57 56 54 54 52 54 53 53 54 56 57 59 59 65 68 71
68 69 69 66 63 56 49 47 43 44 52 47 44 44 39 32 30 26 27 25 26 26 42 65 55 54 51 59 61 59 60 60 62 64 64 64 67 69 67 69 69 69 71
71 73 71 69 63 60 54 53 48 44 49 46 45 45 39 33 32 27 27 24 22 20 34 69 59 56 53 48 55 54 57 56 56 58 59 60 62 65 68 67 69 73 70
75 70 68 68 66 60 54 54 47 48 47 45 45 45 39 36 30 28 23 25 22 17 27 60 68 57 58 59 56 58 57 57 57 59 62 66 68 75 74 73 71 71 74
68 68 69 65 61 60 58 56 48 46 43 44 45 45 40 37 30 27 23 21 23 19 15 39 66 60 60 58 56 57 59 65 68 69 72 74 73 70 72 72 74 70 72
54 53 56 60 60 60 56 50 43 47 45 46 46 44 40 38 31 30 27 23 20 20 19 20 38 63 63 64 68 64 62 64 68 68 69 71 73 73 71 72 74 80 79
50 56 59 53 51 50 47 46 48 51 46 47 46 42 39 38 35 33 30 28 25 21 21 23 27 36 49 59 66 69 72 70 66 64 64 65 67 70 72 73 68 65 65
55 48 44 45 43 43 41 45 48 46 45 44 42 38 38 31 24 24 31 34 32 30 23 23 26 32 35 41 46 53 58 61 62 63 63 66 69 68 64 62 62 65 67
33 30 27 30 28 34 39 43 46 43 40 41 43 41 36 32 31 31 33 33 33 33 35 33 29 31 34 35 42 47 50 52 55 58 58 58 58 59 62 63 66 70 73
30 27 24 25 31 35 39 39 39 41 40 36 38 40 37 42 44 37 42 42 41 40 40 40 42 41 39 41 44 48 50 54 58 60 62 62 65 68 69 72 74 76 77
33 34 32 31 32 33 34 39 41 36 35 33 39 44 46 47 46 47 51 51 48 48 50 50 48 48 49 51 52 54 55 55 55 58 62 64 67 69 72 78 79 80 83
38 40 35 34 29 34 34 32 37 38 41 40 44 45 48 49 53 50 51 53 51 52 55 56 55 55 56 56 57 59 62 64 64 65 68 71 73 76 78 82 86 88 90
38 41 42 46 44 37 35 34 37 39 45 44 46 48 48 53 54 54 56 54 57 56 57 59 60 58 58 61 65 68 69 71 74 75 76 79 82 84 87 90 93 97 100
49 51 38 44 39 45 45 36 48 48 46 52 51 51 52 56 58 61 62 62 60 61 61 62 62 63 65 68 69 70 73 77 80 84 85 88 88 91 95 98 101 107 112
52 59 60 60 51 54 52 50 52 54 58 55 55 58 58 60 62 64 66 67 66 66 67 68 70 72 76 78 77 79 82 84 87 88 90 93 97 101 104 111 116 119 121
59 66 64 66 58 60 63 62 63 66 64 67 62 65 67 63 64 66 66 64 65 68 71 72 74 73 76 80 82 85 90 92 94 96 100 104 107 112 115 115 112 111 112
68 72 70 68 69 66 66 73 72 70 75 69 72 74 76 76 75 75 76 77 79 84 85 84 85 85 88 89 92 95 98 101 104 107 111 113 116 113 110 110 111 113 120
80 81 76 79 78 76 77 72 76 78 81 84 84 79 80 84 85 85 87 89 90 90 91 94 97 98 101 102 104 104 105 112 117 116 111 110 114 112 116 116 123 120 115
84 82 81 81 81 78 80 81 82 83 82 82 87 90 89 92 92 93 91 94 96 99 102 105 108 107 106 106 109 111 113 112 110 110 113 118 123 122 124 125 119 117 121
89 88 86 86 86 82 89 89 87 89 91 91 91 93 99 102 102 104 102 102 105 109 108 108 109 110 112 113 115 120 124 121 118 119 122 122 123 124 123 117 113 111 110
100 99 98 97 98 97 95 96 97 98 99 100 101 104 103 101 107 107 109 111 113 114 115 116 120 120 121 121 126 123 121 123 124 128 126 125 129 123 116 112 108 107 106
106 106 107 107 106 104 104 106 108 104 105 106 107 109 111 112 114 115 118 118 118 121 121 123 122 121 122 125 122 121 123 125 126 131 130 121 111 108 108 106 104 104 103
119 118 115 116 114 115 117 117 115 115 117 116 113 114 117 118 118 120 122 123 121 124 124 123 128 133 135 138 131 127 129 127 128 118 111 110 107 104 105 102 101 99 96
115 120 118 124 118 120 116 116 119 122 121 121 124 125 124 123 126 130 132 131 129 129 130 134 134 128 124 125 128 131 131 124 114 111 108 105 102 101 99 96 95 93 93
99 105 113 118 118 118 118 119 121 122 126 125 125 128 124 123 126 126 129 133 134 127 122 125 127 125 121 119 114 111 110 109 107 103 102 100 98 95 93 93 91 88 86

GFSGL_250_spd_117.txt.gz
Wind_Speed
57 51 52 55 56 49 49 48 51 54 55 57 58 54 45 41 42 39 37 36 35 37 35 32 40 48 57 53 52 49 52 48 50 50 51 50 48 47 46 49 53 53 58
63 58 54 53 57 50 51 50 50 53 56 57 53 51 43 41 42 40 36 35 37 37 36 35 35 45 58 58 55 57 51 51 48 50 50 48 55 52 54 55 60 50 51
58 62 64 64 60 55 62 60 53 54 61 59 51 49 45 43 45 41 36 35 34 33 32 32 31 36 49 62 59 57 60 53 51 55 54 52 53 56 53 54 53 61 61
66 71 70 70 63 64 67 66 64 62 67 61 54 51 46 42 42 39 36 33 33 29 29 28 27 31 45 61 55 54 60 63 59 54 52 52 54 56 60 64 62 63 62
72 74 74 67 71 65 69 67 66 66 69 58 55 53 44 39 40 37 38 34 34 33 26 25 24 27 50 57 59 56 46 47 51 58 63 60 61 63 63 62 59 58 62
74 73 74 73 74 72 73 71 74 73 72 64 56 51 45 40 41 38 38 34 30 27 23 21 20 24 45 51 52 56 54 47 47 50 51 54 54 55 59 62 65 68 72
61 59 61 65 70 74 75 77 79 77 67 59 58 55 46 42 43 41 41 37 33 26 22 20 21 20 31 48 55 55 56 53 52 52 54 54 57 62 66 70 75 76 78
63 63 64 68 72 78 82 82 75 64 58 57 55 55 43 45 45 44 42 37 34 30 25 22 24 21 22 33 47 57 58 58 54 56 59 60 60 64 67 71 75 77 75
66 64 62 62 65 61 63 64 61 61 58 54 51 50 46 48 48 45 41 39 39 34 29 27 26 23 24 25 32 58 58 63 64 63 66 71 74 76 75 75 73 72 71
50 52 54 59 64 63 58 59 55 54 51 45 52 49 49 49 49 43 40 38 35 30 32 35 34 32 24 23 26 30 32 37 44 46 49 51 54 58 61 62 64 65 67
52 58 60 62 62 59 48 40 41 43 43 49 50 52 49 48 44 39 37 35 37 32 33 37 38 37 35 36 36 35 36 38 41 43 46 49 52 55 59 64 67 68 70
55 53 47 52 47 41 31 31 31 33 35 40 43 41 39 39 40 39 39 38 47 46 42 40 41 41 41 42 43 44 44 46 50 52 56 56 56 59 63 67 69 71 72
38 36 37 36 30 24 21 22 25 29 34 39 40 41 44 46 40 40 46 46 48 46 48 48 48 50 49 48 48 50 53 55 55 58 60 62 66 67 68 67 70 71 74
38 40 38 33 30 28 24 25 29 31 34 34 42 44 44 44 37 40 51 51 53 51 53 54 53 53 53 55 56 58 59 62 64 66 68 69 71 73 72 73 78 80 80
40 42 39 37 36 30 30 33 39 44 42 47 34 36 43 44 41 43 49 50 51 52 53 56 59 60 63 59 61 64 64 63 66 68 70 73 75 72 75 78 82 87 91
44 45 46 48 47 39 42 40 43 43 45 46 41 42 46 45 47 49 51 53 54 56 57 58 58 62 66 69 68 69 68 69 72 74 75 73 76 78 82 86 92 97 100
56 55 50 56 46 53 49 47 48 46 49 47 46 46 52 59 53 52 52 54 56 58 60 63 65 68 69 69 70 68 73 74 69 76 79 80 83 89 94 99 104 108 114
61 59 61 57 54 55 55 56 56 54 52 56 53 55 55 58 56 62 65 68 68 65 67 71 74 72 68 69 73 75 77 80 85 87 93 96 100 102 105 111 114 115 115
67 66 64 66 69 72 63 63 62 61 65 68 65 65 70 67 66 68 74 75 75 76 75 73 75 79 82 84 88 90 92 95 96 98 103 105 107 112 113 113 117 117 120
77 76 73 75 74 78 68 74 75 73 74 77 74 78 79 79 76 78 79 79 78 82 87 87 87 89 92 98 99 102 103 103 104 108 109 111 116 119 119 121 121 123 126
85 84 83 84 83 81 78 82 83 81 84 84 88 86 87 83 83 85 86 90 93 94 96 99 96 97 104 105 107 108 111 112 116 119 119 119 122 121 125 125 125 129 132
88 87 89 90 90 92 82 85 89 91 92 95 94 94 89 93 97 98 96 98 99 101 103 104 104 103 103 108 111 113 115 116 118 121 123 124 128 132 133 134 127 129 132
95 96 92 92 92 94 93 93 94 98 103 101 101 101 103 100 100 102 105 104 108 109 109 107 110 115 118 117 115 118 120 122 123 124 129 129 133 135 130 136 136 139 126
100 104 105 102 101 101 102 101 102 104 105 109 108 107 109 107 108 109 107 106 109 109 110 116 119 118 119 119 122 125 128 130 130 131 132 134 141 136 124 130 120 122 117
105 106 108 111 111 108 108 109 110 110 111 114 113 114 115 114 112 111 110 112 112 116 120 122 126 125 127 130 131 135 136 132 132 133 139 131 126 124 115 127 114 110 108
99 109 113 113 113 113 115 116 116 115 118 119 121 121 120 120 122 123 122 123 123 124 128 129 131 135 135 132 124 126 133 132 129 130 133 120 123 117 109 108 106 104 103

GFSGL_250_spd_120.txt.gz
Wind_Speed
81 76 70 69 64 60 61 61 52 49 51 52 49 47 50 49 49 49 45 40 36 34 35 35 36 35 32 36 41 47 48 51 53 51 50 50 52 53 51 49 45 47 47
73 74 71 66 62 60 62 58 49 48 48 53 53 47 51 51 51 49 47 42 38 35 35 36 37 38 35 36 40 47 53 53 50 56 54 53 50 51 51 51 47 50 50
71 67 63 63 64 64 63 54 55 53 48 51 54 58 54 53 52 53 51 44 42 37 36 34 34 35 33 35 38 50 55 58 56 56 59 58 54 53 55 52 53 53 55
72 73 69 64 59 61 61 57 54 57 56 57 56 56 58 60 58 57 52 45 42 38 37 33 35 31 35 35 35 47 57 62 63 58 56 57 58 57 53 51 53 57 57
69 68 67 64 62 56 55 54 59 62 60 60 61 62 66 62 59 60 54 47 41 39 37 34 35 34 36 34 32 39 49 60 61 59 58 54 53 55 54 61 63 62 59
71 68 71 70 59 61 63 63 66 68 66 64 66 63 64 63 63 61 58 49 39 38 37 33 33 32 31 30 26 39 47 51 53 53 56 58 61 57 55 55 54 57 60
66 65 64 63 65 67 67 68 68 74 73 70 71 70 68 63 66 66 59 50 41 39 39 35 32 30 29 25 20 43 48 47 49 51 50 53 57 59 62 65 65 62 62
66 71 65 67 71 70 75 78 75 66 66 68 69 66 67 68 67 69 53 48 43 42 42 38 33 31 31 23 23 28 50 52 50 49 53 52 50 50 53 56 59 62 66
60 61 63 68 66 64 65 63 64 66 67 67 68 65 69 68 59 55 50 47 46 46 45 40 38 34 32 26 24 24 40 51 50 48 47 53 56 59 62 58 62 66 70
52 53 58 62 64 65 62 64 66 67 69 70 68 59 51 49 53 55 51 51 48 48 47 42 40 38 36 32 29 28 29 33 40 48 56 60 59 59 58 60 56 55 55
55 57 58 62 64 65 68 70 69 66 60 61 53 55 61 56 55 58 56 50 47 50 48 46 43 41 42 38 39 36 31 30 30 32 35 38 41 43 46 49 51 53 57
47 47 47 49 54 58 57 57 59 57 49 58 53 52 60 52 55 50 48 46 47 52 48 46 43 47 44 43 44 42 39 40 41 42 44 44 46 49 53 55 59 61 64
52 50 47 52 54 59 62 58 61 53 44 44 43 44 43 42 47 45 47 44 48 52 48 48 47 47 50 45 45 45 46 46 47 47 50 52 53 54 58 61 65 68 69
56 54 54 57 62 61 58 48 42 36 35 36 40 37 36 36 37 42 44 45 50 51 49 47 50 53 55 57 53 53 52 53 52 53 52 53 58 62 63 65 66 68 71
54 53 58 54 46 41 40 34 28 26 22 25 26 28 36 38 34 41 48 51 53 53 54 57 51 57 58 59 60 62 60 58 56 57 58 59 63 67 69 73 76 75 77
45 45 43 40 40 40 40 33 32 33 34 32 30 31 37 43 42 43 49 51 56 59 57 57 52 54 55 59 62 59 59 61 61 62 64 65 69 71 73 73 74 72 73
40 41 47 47 45 42 46 49 42 35 35 41 41 46 48 53 52 52 53 56 57 55 54 51 51 55 56 57 59 61 62 65 67 69 70 71 75 72 72 72 76 82 86
43 51 55 56 53 48 52 51 45 44 49 55 51 56 52 53 62 62 57 57 61 61 53 55 57 54 58 61 62 63 65 68 71 74 74 75 75 76 80 86 90 93 98
52 59 64 63 62 60 59 62 56 60 56 65 61 63 61 64 63 67 64 58 61 61 63 64 65 66 67 69 76 78 77 81 81 81 80 78 81 86 90 94 98 102 105
59 66 68 69 71 67 68 67 70 65 59 67 65 66 64 64 64 64 67 68 66 70 68 68 71 75 77 79 82 83 86 82 81 84 88 91 96 100 102 103 106 106 109
62 73 73 72 79 76 72 76 76 78 69 69 72 72 72 75 74 72 72 74 72 74 75 76 83 82 85 82 86 89 90 91 88 91 96 99 104 107 112 113 113 115 119
63 77 82 80 82 81 82 82 83 82 81 76 77 77 78 79 81 77 80 81 82 84 87 87 88 88 90 93 93 93 94 96 101 106 109 112 112 114 118 121 120 123 128
64 69 83 86 89 90 89 88 88 91 89 86 86 88 83 85 86 85 86 90 91 91 93 94 95 99 100 101 101 100 105 108 112 114 116 118 119 122 121 122 127 131 135
68 69 78 89 93 95 94 92 96 99 96 95 97 92 96 97 93 96 98 98 100 100 102 104 106 109 108 109 112 112 112 115 118 119 120 123 123 123 127 128 129 135 141
69 73 75 87 94 99 100 101 100 101 102 103 104 102 103 108 105 102 104 107 111 109 112 114 115 119 120 119 120 120 122 126 128 124 125 128 127 129 133 138 138 143 137
65 72 77 79 90 97 105 107 105 106 108 109 109 109 111 113 114 113 115 114 114 116 118 119 118 121 124 127 130 132 134 133 131 132 131 134 134 136 139 143 139 135 126

GFSGL_250_spd_126.txt.gz
Wind_Speed
68 68 70 72 73 75 77 79 79 77 82 82 83 82 79 74 70 67 62 54 51 48 41 42 41 40 43 43 37 40 38 35 35 31 33 38 37 35 40 50 49 49 46
70 70 71 72 76 77 80 82 83 83 83 82 82 78 70 67 70 68 59 53 50 49 45 45 43 38 43 46 38 37 42 39 35 36 33 37 40 42 37 46 51 53 52
73 73 72 76 78 80 81 82 82 82 81 79 80 79 75 72 71 70 59 52 56 51 50 47 41 42 43 47 41 40 42 42 40 38 38 37 39 44 43 43 48 56 59
76 76 75 77 79 80 82 85 83 82 82 82 80 78 77 73 71 67 62 60 59 57 57 50 44 45 46 46 46 45 41 43 40 36 36 34 38 41 47 49 50 54 56
74 78 77 82 82 83 85 83 83 83 82 84 83 80 79 77 73 71 68 65 63 63 57 51 49 47 47 50 52 49 40 44 42 40 40 41 38 40 46 54 55 54 55
71 75 78 83 84 80 79 78 77 77 77 78 79 75 71 68 67 67 66 67 66 64 56 55 55 53 51 53 52 50 40 43 43 42 43 42 41 42 41 52 60 60 59
68 73 78 75 71 70 69 70 70 69 67 68 64 66 59 60 62 63 65 70 71 69 60 55 54 52 53 57 52 48 44 44 45 42 43 39 39 40 39 47 54 57 57
61 62 63 63 62 61 61 61 61 61 61 62 61 62 58 59 56 54 51 53 57 58 57 57 56 57 58 53 51 51 46 45 46 44 40 37 38 33 38 43 50 56 58
55 55 57 55 52 49 51 53 57 62 62 62 61 62 68 67 61 63 58 55 60 59 62 60 60 62 58 54 53 50 47 47 48 46 41 37 36 38 48 46 48 50 49
55 54 51 46 46 43 44 45 49 51 57 62 63 63 59 62 66 61 60 66 65 64 63 63 62 63 61 59 56 48 45 48 50 50 43 37 36 34 38 47 49 48 48
61 59 56 53 49 46 47 41 39 42 49 50 57 64 62 63 62 64 63 66 68 69 69 66 65 60 59 52 47 44 46 47 54 52 47 42 38 36 35 44 52 50 51
63 60 60 55 54 53 46 44 44 44 45 48 49 55 66 70 67 67 62 65 68 68 67 65 64 63 55 50 45 44 48 46 54 56 52 48 44 40 41 41 47 49 50
60 60 58 55 55 55 54 50 53 53 53 56 57 55 56 61 61 64 66 67 67 65 65 68 68 53 57 57 58 53 51 51 52 59 57 54 51 50 47 45 48 51 53
58 59 58 57 56 55 56 58 58 59 57 55 56 57 61 61 63 68 71 70 69 68 62 53 49 44 50 54 56 55 55 57 56 59 59 57 57 56 54 53 52 52 53
58 58 61 63 62 63 66 64 65 66 64 63 61 62 64 64 65 65 67 70 59 56 48 55 56 55 48 53 55 57 57 58 58 60 59 62 61 57 59 58 58 58 59
57 52 53 57 62 69 74 69 68 66 64 65 63 60 63 63 61 59 55 54 52 51 55 52 61 59 53 54 51 50 52 55 60 65 68 69 66 62 59 59 59 60 62
59 54 50 51 54 58 72 73 66 67 63 63 62 63 64 62 61 56 56 51 58 64 64 59 65 67 66 58 54 52 55 58 58 64 69 71 69 67 67 66 61 60 66
62 57 52 50 50 51 54 61 68 69 64 64 66 65 64 65 64 62 63 63 65 66 67 66 60 63 59 57 59 58 57 59 59 62 65 70 71 72 71 68 71 74 76
59 55 52 49 49 49 50 49 53 57 60 63 63 69 72 69 65 64 65 66 71 56 63 64 60 59 57 59 61 62 61 61 58 60 61 63 67 73 76 77 79 81 82
54 53 52 50 49 49 48 45 46 49 52 56 61 64 64 64 58 59 61 62 61 64 69 66 66 67 63 59 64 64 63 61 60 60 63 67 71 74 76 78 81 83 86
53 52 51 50 51 51 50 48 48 52 54 59 64 66 67 67 61 65 68 72 68 68 73 69 67 67 69 70 69 68 66 66 67 71 71 73 75 77 80 82 85 88 90
52 52 51 50 50 52 53 53 52 56 61 65 71 71 74 73 69 71 73 70 74 73 72 74 77 76 77 76 75 76 77 77 76 77 78 80 82 83 84 86 91 94 98
51 52 52 51 51 53 56 58 58 60 65 71 77 78 80 83 80 78 81 82 82 82 81 82 81 77 76 77 78 80 82 83 84 85 87 89 91 91 94 97 100 101 103
50 51 52 53 53 54 57 61 64 64 67 76 80 84 85 88 90 88 89 88 87 90 90 89 90 90 85 86 89 90 91 91 94 95 96 98 100 102 104 106 106 107 109
53 54 53 53 53 54 57 62 67 70 70 78 83 87 89 93 95 95 95 97 97 97 96 100 98 98 96 96 97 98 99 101 103 104 105 106 108 109 109 108 107 110 113
54 55 56 57 57 57 57 60 65 69 74 77 83 87 89 91 98 99 103 103 104 105 105 105 106 106 106 105 104 103 105 105 108 108 106 108 111 111 112 114 115 116 117